GFSCGP_850_thetae_003.txt.gz
Theta_e
316 314 315 315 315 315 316 315 314 313 314 314 314 316 316 318 320 320 319 321 322 324 324 324 325 325 325 325 327 328 327 326 325 323 322 320 321 316 313 312 311 311 311 311
314 316 316 316 317 318 317 316 317 314 315 315 317 315 315 316 318 320 318 320 322 323 324 324 326 327 328 328 328 326 325 323 320 319 318 319 318 316 313 311 311 310 309 307
315 317 317 317 317 319 319 317 318 316 316 316 318 317 314 315 317 319 319 319 320 321 321 321 321 322 324 323 322 317 317 318 317 318 316 312 311 311 311 311 309 309 307 306
316 317 318 317 318 317 321 319 318 315 317 319 315 318 317 316 316 316 318 318 318 318 318 318 318 317 316 315 314 314 313 313 312 312 312 312 312 311 310 310 309 307 306 306
319 319 318 318 318 318 320 318 318 317 314 314 316 316 316 315 317 316 317 318 317 317 317 316 316 316 316 315 315 315 314 314 314 313 313 312 311 311 309 307 306 305 303 302
318 318 318 318 318 318 318 319 318 317 316 317 319 317 317 316 316 315 316 317 317 317 316 317 316 316 315 315 314 314 314 314 313 313 313 312 311 308 306 306 304 303 304 303
317 317 315 318 320 317 316 318 320 320 316 318 318 319 317 315 314 315 315 316 317 317 317 317 316 316 315 314 314 314 314 313 313 313 312 312 310 308 306 304 304 303 300 301
318 318 316 315 317 318 317 317 318 322 317 318 316 320 317 314 316 317 317 318 317 317 317 317 316 315 314 314 313 313 313 312 311 310 308 307 305 303 303 304 303 302 301 301
318 318 317 316 316 318 318 314 314 315 311 316 315 316 315 314 315 316 317 315 315 316 315 315 314 313 312 312 312 311 309 308 307 304 303 302 301 302 304 304 303 301 301 300
317 316 316 316 318 316 315 315 316 311 315 315 316 317 316 314 315 312 311 313 313 313 313 312 311 310 310 310 308 306 305 304 304 303 301 299 299 302 302 301 301 300 300 299
317 313 315 317 317 317 316 316 313 313 310 312 312 316 311 314 312 311 311 311 311 311 310 309 309 309 307 306 304 303 303 301 300 298 297 297 296 295 294 293 293 298 299 298
315 312 312 317 315 316 316 316 312 309 316 308 306 312 310 311 312 311 310 310 309 309 309 309 307 306 304 302 301 301 301 300 299 298 296 295 294 292 291 290 293 297 296 296
315 312 313 317 317 314 317 316 313 309 307 314 307 309 311 311 312 311 310 309 309 309 308 306 304 303 302 300 301 300 300 299 298 296 295 294 293 291 290 289 292 297 296 294
316 314 312 315 316 312 313 314 314 312 308 310 309 311 313 311 309 309 309 309 309 309 307 303 302 302 301 301 300 299 298 297 296 295 294 294 292 291 291 290 291 294 294 294
312 313 314 313 312 313 314 313 313 314 312 312 312 311 312 310 309 309 310 309 309 307 303 302 302 301 300 299 299 298 297 296 295 295 295 293 293 292 291 290 290 293 293 293
309 312 310 316 312 312 313 311 310 311 312 313 313 314 311 311 311 309 309 308 308 306 303 301 301 301 299 298 297 296 296 296 295 295 294 293 293 291 291 290 291 293 293 291
307 305 304 306 308 308 305 309 312 312 314 311 313 312 309 309 309 309 309 308 307 303 301 301 300 299 298 297 296 296 296 295 295 294 294 293 292 292 291 290 292 293 292 289
307 304 299 304 301 304 309 309 311 313 314 311 310 309 310 310 311 310 309 308 305 302 300 300 299 298 297 296 295 295 295 294 294 294 293 292 292 292 291 291 292 292 292 291
307 301 305 303 304 304 308 312 314 313 313 311 309 308 310 310 309 308 308 306 303 302 300 299 298 297 296 295 294 294 294 294 294 293 292 292 292 291 291 291 291 291 291 291
306 299 302 303 300 301 305 312 313 311 311 312 310 309 308 307 302 305 308 305 304 302 299 299 297 296 295 295 294 294 294 293 292 291 292 293 292 290 291 291 290 290 290 288
304 298 300 296 298 304 304 311 312 312 309 312 312 312 309 306 307 306 307 305 304 300 299 297 296 296 295 294 293 293 292 290 291 292 293 292 291 289 290 291 290 290 289 289
309 306 304 303 302 308 308 310 311 311 311 313 313 313 310 310 308 306 306 301 300 299 297 297 296 295 293 291 291 290 289 291 292 292 292 292 291 289 290 289 289 289 288 288
309 306 307 308 308 308 311 312 313 313 313 313 313 312 312 309 307 305 304 300 298 297 296 296 295 292 290 289 289 290 289 290 290 290 290 291 291 289 288 287 288 288 288 287
309 309 306 309 311 310 311 312 312 313 314 314 314 313 311 308 306 305 300 298 297 296 295 293 291 290 290 290 290 289 289 289 289 290 290 291 290 288 287 287 287 288 287 287
308 310 310 308 310 312 315 315 314 314 314 314 313 312 309 306 305 301 298 297 296 294 292 290 290 290 290 289 289 289 289 289 289 289 290 290 290 288 287 286 288 287 287 286
311 309 307 308 311 313 313 313 314 314 314 313 312 308 307 307 303 297 297 295 293 291 290 290 290 290 289 289 289 289 289 289 289 289 289 290 290 289 287 287 287 287 286 284

GFSCGP_850_thetae_006.txt.gz
Theta_e
315 313 313 314 312 311 313 313 313 312 312 315 315 315 314 318 317 317 318 321 322 324 324 325 325 325 325 325 326 326 326 326 325 322 318 317 318 319 319 312 312 311 309 308
313 315 315 315 316 316 315 314 314 314 314 315 316 314 312 314 316 317 319 322 324 325 326 326 327 328 329 328 325 322 321 321 319 319 318 318 315 311 311 311 311 309 309 308
314 316 316 317 316 318 318 315 316 315 316 315 316 317 314 315 317 318 319 322 322 321 322 323 324 324 322 319 317 315 313 313 313 313 312 313 312 311 311 310 309 309 308 307
317 316 316 316 317 316 319 317 315 316 317 320 314 320 316 316 317 316 317 319 319 319 319 319 319 316 315 314 313 313 313 313 313 313 313 313 313 312 311 310 309 307 306 305
318 318 317 317 318 318 319 315 315 314 313 314 316 317 315 316 318 316 316 317 317 317 317 316 315 314 314 314 314 314 314 314 314 313 313 312 312 311 310 308 307 305 304 303
316 317 316 317 317 316 316 317 316 315 315 316 316 316 315 315 316 316 316 317 316 316 315 315 315 315 314 314 314 314 314 314 313 313 312 311 309 308 306 304 304 304 302 301
316 316 314 316 319 316 316 317 318 319 315 318 317 317 315 314 313 316 316 317 316 316 315 315 315 316 314 314 314 314 313 313 312 311 310 308 306 303 302 303 303 303 302 301
317 316 316 314 317 317 316 316 317 320 316 318 316 319 317 313 315 317 317 317 316 316 315 315 314 315 314 314 313 312 311 310 309 308 306 304 303 301 301 302 301 300 299 299
317 317 315 315 315 317 316 314 313 314 311 315 314 316 315 313 313 315 316 315 315 314 314 314 313 313 313 312 311 309 308 306 305 303 303 300 298 297 296 295 294 293 293 293
316 316 315 315 316 315 316 313 314 310 315 315 315 316 316 315 315 313 312 313 313 312 313 312 311 311 311 311 309 307 304 303 301 300 299 298 296 295 294 293 292 291 290 296
314 313 314 315 316 316 315 315 312 311 309 311 311 314 311 313 314 311 311 313 313 312 311 310 310 310 310 309 308 307 302 301 300 299 297 295 294 293 292 291 290 289 291 297
314 312 312 316 314 314 315 315 309 307 312 307 305 310 309 308 311 312 311 311 311 310 308 309 309 308 306 304 302 302 301 300 298 297 295 295 294 293 291 290 290 289 291 296
313 312 313 315 313 313 316 315 310 307 307 312 308 309 309 310 310 310 310 309 308 308 308 308 307 304 302 302 301 300 300 299 297 296 295 294 294 293 292 291 290 290 291 293
313 311 311 313 313 311 314 315 311 310 307 309 308 310 313 310 308 308 308 308 308 308 308 306 303 302 301 301 303 299 299 297 296 295 295 295 294 293 292 290 290 290 292 293
310 313 312 312 311 312 312 312 313 312 310 311 311 309 309 309 307 308 309 308 308 308 305 304 303 302 303 302 299 298 298 296 295 295 295 294 293 293 291 291 290 290 291 292
307 310 308 315 311 310 312 311 310 311 311 310 312 311 310 310 310 309 309 309 309 308 305 303 302 302 300 299 298 297 296 295 295 295 294 294 293 291 291 291 290 291 292 292
305 305 304 304 306 305 306 308 309 309 309 309 311 310 308 308 309 309 309 309 310 308 305 302 301 300 299 299 297 296 295 294 295 294 294 293 292 291 290 290 290 291 292 291
303 302 298 303 300 304 308 307 309 311 312 310 310 309 309 310 310 311 311 311 309 308 304 301 300 300 299 297 296 295 294 294 294 293 293 292 291 292 290 290 290 291 291 291
304 300 302 303 303 304 307 312 311 312 311 309 310 308 309 310 310 310 311 310 309 306 303 301 300 299 297 295 295 294 295 294 293 293 291 291 292 292 290 289 290 290 291 291
304 298 301 296 301 301 305 308 312 311 311 310 310 308 308 308 304 309 311 310 308 304 302 301 299 298 296 295 295 295 293 292 291 290 291 292 292 291 291 289 290 289 290 289
304 301 299 295 298 303 303 311 311 312 310 311 312 311 309 306 310 311 310 309 306 304 304 299 298 296 296 295 293 291 290 289 289 289 289 290 291 291 290 289 289 289 289 289
309 305 303 299 299 306 306 310 310 311 310 312 313 313 312 312 309 308 307 306 305 304 299 298 297 296 294 291 290 289 289 289 289 289 289 289 290 290 290 289 288 287 288 288
309 306 305 304 305 306 308 310 313 312 311 312 313 313 313 311 309 308 306 305 303 299 298 297 295 293 290 290 289 289 289 289 289 289 289 289 290 291 290 288 287 287 288 287
308 306 304 307 309 308 310 311 312 312 312 313 313 313 313 312 310 308 305 299 298 296 299 295 293 291 290 290 289 289 289 289 289 289 289 289 290 290 290 287 287 287 287 287
307 308 307 306 309 311 312 313 313 314 314 313 313 314 313 312 309 306 301 300 297 300 294 292 291 290 290 289 289 289 289 289 289 289 289 289 289 289 289 288 287 287 287 286
309 308 306 307 311 310 311 312 313 313 314 314 313 313 312 310 307 301 301 298 299 293 292 291 290 290 290 289 289 289 289 289 289 289 289 289 290 289 289 288 287 287 286 285

GFSCGP_850_thetae_009.txt.gz
Theta_e
314 316 317 315 313 312 313 313 314 313 315 319 318 319 318 318 318 319 320 322 324 325 325 325 326 326 325 325 325 327 327 326 324 322 321 319 316 319 317 312 311 311 310 309
317 317 314 315 316 315 316 316 317 317 316 319 319 320 319 317 317 317 319 320 322 323 324 325 326 327 327 325 322 321 320 319 318 319 318 318 316 311 311 311 310 310 309 308
317 316 315 317 317 319 317 317 316 319 318 318 320 321 321 319 318 318 318 319 321 323 324 323 322 318 317 316 315 313 313 315 313 312 312 312 312 311 311 311 310 309 308 306
318 316 316 317 318 317 320 315 318 319 320 322 316 322 321 321 320 319 318 317 319 320 320 318 315 313 312 312 312 312 312 313 313 313 312 313 312 312 311 310 308 306 305 304
318 317 317 318 317 317 319 316 318 316 317 318 319 322 319 320 322 321 318 317 316 317 316 314 314 313 313 313 313 313 313 313 313 312 312 312 311 310 308 305 304 304 304 303
316 316 316 317 315 316 316 318 318 317 318 322 318 319 320 321 322 321 318 317 315 315 314 314 313 313 314 314 313 313 313 313 313 312 311 310 309 306 305 303 303 303 302 300
317 316 315 316 319 316 318 320 324 324 325 323 317 319 321 318 317 320 318 317 315 315 314 314 314 313 314 314 313 313 313 313 311 310 307 306 305 304 301 300 299 298 296 295
318 320 316 315 317 319 317 320 325 324 324 322 317 323 321 315 315 317 317 317 316 315 314 314 314 314 313 313 313 313 312 309 307 305 302 300 300 298 296 295 294 293 292 291
319 318 314 314 315 317 316 318 316 318 313 319 319 318 317 314 315 316 315 315 315 315 314 314 313 312 312 312 311 309 308 305 302 301 300 298 297 295 294 293 292 291 290 290
317 318 314 315 315 315 317 314 318 316 319 318 317 318 321 318 317 316 315 315 315 315 315 313 311 310 309 308 307 307 305 302 301 300 298 297 295 294 293 293 291 290 290 290
313 317 317 315 317 318 317 317 314 314 314 316 316 317 315 317 317 317 316 314 314 314 313 310 308 308 307 306 305 305 303 303 300 298 297 296 295 294 294 293 291 290 290 290
314 316 319 316 314 314 315 315 314 317 314 311 314 317 311 312 313 315 313 313 313 313 310 308 308 307 305 304 304 304 304 301 298 298 297 296 295 295 294 292 290 290 290 290
314 316 319 318 315 314 317 315 311 311 312 315 323 316 311 311 311 312 313 311 311 311 307 307 307 306 304 302 304 304 302 299 298 297 296 295 295 294 293 291 290 290 290 290
313 312 316 319 315 314 315 315 312 314 316 314 317 315 313 314 312 310 310 310 309 308 307 308 306 305 303 303 304 302 299 298 297 296 295 294 294 293 293 291 290 290 290 290
313 316 313 312 312 312 312 314 313 313 313 318 314 312 312 313 313 310 308 308 308 307 307 307 306 304 302 305 302 299 298 297 296 295 295 294 293 293 292 290 290 290 290 291
309 314 310 314 311 311 313 311 312 313 312 312 312 314 311 310 309 309 308 307 307 308 309 308 305 303 304 301 299 298 297 296 295 295 295 294 293 293 291 290 290 290 290 291
309 309 310 311 307 307 312 312 312 311 311 314 315 315 311 311 310 310 309 308 308 309 310 307 305 303 300 300 299 297 296 295 295 295 294 293 293 291 291 291 290 290 290 291
306 305 304 312 305 313 312 309 309 311 310 310 311 311 311 311 310 310 310 310 310 310 309 307 304 301 300 299 298 296 295 295 295 294 293 292 291 291 291 291 290 289 290 290
305 306 306 314 311 308 309 308 312 314 314 312 312 311 309 309 310 310 311 311 311 311 309 306 302 300 300 299 297 296 295 295 294 291 290 289 290 290 292 291 290 289 290 290
305 302 311 306 311 311 310 306 312 311 316 311 312 310 308 309 315 314 312 312 311 310 307 303 301 300 299 297 296 296 295 292 290 289 289 289 289 289 291 291 290 289 289 289
310 306 310 302 312 310 306 309 310 315 315 310 312 311 308 311 313 311 312 311 311 308 304 302 301 298 297 296 296 293 290 290 289 289 289 289 289 289 289 290 290 289 288 288
313 311 310 303 308 313 305 311 315 314 311 310 312 313 312 312 311 311 310 310 309 306 303 304 299 299 296 295 292 290 290 289 289 289 289 289 289 289 290 290 290 288 287 287
313 311 312 309 312 307 307 311 312 311 311 311 311 312 312 311 310 309 308 307 305 304 301 297 301 299 294 291 290 290 289 289 289 289 289 289 289 289 290 290 290 287 287 287
309 305 309 309 309 307 308 310 310 310 311 311 311 311 312 312 310 308 306 305 301 298 297 301 301 294 291 290 290 289 289 289 289 289 289 289 289 289 289 289 289 288 287 287
309 307 309 309 309 310 311 311 311 312 312 313 314 313 312 312 310 308 306 301 299 298 300 299 293 291 290 290 289 289 289 289 289 289 289 288 289 289 289 289 289 288 287 287
308 310 312 314 311 310 311 311 313 313 313 313 313 313 312 311 309 306 300 296 299 299 298 292 291 290 290 290 289 290 290 289 289 288 287 288 287 288 287 288 288 288 287 287

GFSCGP_850_thetae_012.txt.gz
Theta_e
318 319 318 318 317 317 318 318 317 319 321 322 322 322 322 323 327 327 327 327 327 327 325 326 325 325 325 325 324 324 327 327 325 324 321 320 318 318 318 313 312 311 310 308
319 319 318 319 318 318 318 318 320 319 320 323 323 324 322 322 324 326 327 327 327 326 326 327 328 329 330 329 328 326 325 323 323 321 319 319 319 317 311 311 311 310 309 308
320 320 319 320 320 320 320 320 322 321 321 322 323 324 324 322 322 322 324 325 326 326 327 328 328 328 326 325 324 323 321 320 319 317 315 313 312 311 311 310 309 308 307 306
321 319 320 321 321 321 322 320 321 322 322 321 322 322 325 324 324 324 323 325 325 326 326 324 322 322 320 319 319 318 317 314 312 312 313 313 314 314 311 308 307 306 305 304
322 321 321 322 321 321 322 321 323 322 323 323 322 323 326 325 326 326 324 324 324 322 320 318 318 317 315 313 313 313 312 312 312 312 312 312 311 309 307 307 306 306 306 305
321 319 321 321 320 320 320 322 322 322 323 324 323 323 323 327 326 326 324 322 321 320 317 315 314 314 313 313 312 312 312 312 312 312 311 309 306 305 305 304 303 301 299 298
321 321 319 320 322 321 322 323 323 323 324 324 322 323 322 323 323 325 325 321 319 318 316 315 314 314 313 313 312 311 311 311 311 308 305 302 301 299 299 297 296 296 295 295
320 322 320 319 322 322 323 323 322 322 324 321 322 322 322 321 321 323 323 320 319 318 317 316 315 314 313 311 310 310 310 307 305 302 301 300 298 297 296 295 294 295 294 294
321 320 318 319 320 320 321 322 322 324 321 324 322 323 322 320 320 321 322 320 318 318 317 316 314 312 311 310 310 308 306 304 302 301 299 298 297 296 294 294 295 294 294 294
322 321 319 318 319 319 321 319 322 323 324 321 320 321 320 322 321 321 322 320 319 318 317 315 313 311 310 310 307 307 303 303 306 302 298 298 297 296 295 294 294 292 292 293
320 322 321 320 321 322 320 320 318 320 321 317 316 316 321 321 322 321 321 320 319 318 317 314 312 311 309 306 306 305 305 305 301 298 298 297 297 296 295 295 294 293 291 293
319 322 324 322 319 319 320 320 318 318 318 319 321 317 317 319 319 320 320 319 319 318 316 313 310 309 307 305 303 302 303 301 299 298 297 297 297 296 295 295 294 293 293 293
320 323 324 321 320 319 320 319 317 318 320 319 326 317 317 317 318 318 319 319 318 317 314 311 309 308 306 304 302 303 302 303 299 297 297 297 296 296 295 295 294 293 293 293
316 321 323 324 321 320 321 320 318 317 319 318 319 316 316 317 318 318 317 318 317 315 312 310 308 306 304 302 303 303 306 299 298 297 296 296 296 296 295 295 294 293 292 293
320 322 319 317 317 316 318 319 318 318 318 318 316 316 315 316 317 317 317 316 315 314 311 310 308 306 304 302 303 304 301 299 298 297 296 296 295 295 295 294 293 292 292 293
316 322 317 319 316 316 317 317 318 318 318 317 317 317 317 316 316 316 315 314 314 312 311 310 309 307 304 303 304 301 300 298 297 296 296 295 295 294 294 294 293 292 292 293
320 318 317 319 314 315 319 317 317 317 318 318 318 318 317 316 316 316 315 314 313 312 311 310 309 307 304 302 301 301 299 297 296 295 295 294 293 293 293 293 293 292 292 292
314 315 315 320 312 326 315 313 314 317 316 316 316 316 315 315 316 315 315 314 313 312 311 311 309 306 304 301 300 300 298 296 295 295 295 292 292 292 292 292 293 292 292 292
312 315 316 325 317 316 313 312 313 315 315 316 316 315 315 314 314 315 313 313 314 312 312 311 308 305 302 301 300 299 297 296 295 295 291 291 291 292 292 292 292 292 292 291
311 311 318 315 329 330 315 311 314 315 316 315 316 316 315 314 320 315 313 312 312 312 311 309 306 303 301 300 300 298 296 296 293 290 290 289 290 291 291 292 292 292 291 291
318 317 322 318 324 317 313 311 314 316 316 315 315 316 315 317 316 315 312 313 312 311 309 305 304 300 300 302 299 296 296 292 290 290 289 289 290 291 290 291 291 291 291 290
319 320 321 314 323 323 309 314 318 317 316 313 314 315 315 315 314 311 311 311 311 308 304 303 299 300 302 299 296 293 291 290 290 289 289 289 290 290 290 291 291 291 290 289
318 318 319 317 318 313 311 315 315 313 314 314 314 314 314 314 314 311 309 308 306 303 299 301 300 300 301 295 293 291 291 290 289 289 289 290 290 290 290 290 291 291 290 289
315 311 316 315 315 313 312 312 312 312 312 313 313 313 313 313 313 311 307 304 302 298 295 296 300 299 294 297 291 290 290 289 290 289 289 290 289 289 289 290 290 290 290 289
316 313 315 315 314 313 313 313 312 313 313 313 314 314 314 313 313 311 304 301 298 295 298 300 299 297 292 290 290 290 290 290 290 289 289 289 289 288 288 288 289 290 289 288
312 316 317 318 314 314 314 312 313 313 314 313 313 313 310 310 310 305 300 295 297 300 299 296 295 294 290 290 290 290 290 290 289 289 289 290 289 289 288 288 288 289 289 288

GFSCGP_850_thetae_018.txt.gz
Theta_e
320 321 321 322 321 320 320 319 320 320 321 320 319 321 322 323 325 327 328 329 329 329 329 330 330 329 328 332 335 333 331 329 329 325 326 326 322 320 319 317 314 312 311 311
319 320 321 321 320 321 319 320 319 319 318 319 318 320 320 323 324 326 327 328 329 329 331 331 332 332 332 333 335 333 331 327 327 327 326 321 321 320 318 315 312 312 311 311
322 322 321 320 321 319 319 320 321 320 319 317 322 320 321 322 324 324 325 326 327 329 330 331 333 333 333 333 333 331 328 327 326 325 322 321 321 319 315 314 312 312 311 309
321 322 321 320 318 319 321 322 321 321 322 321 322 323 323 324 323 324 325 326 326 328 330 331 333 334 332 331 330 329 329 328 324 322 321 320 317 316 315 313 312 311 310 309
322 321 320 319 322 322 322 322 322 322 320 324 323 324 325 325 325 325 326 327 327 328 329 331 332 332 332 331 330 327 324 323 321 318 318 318 316 314 313 311 309 307 305 303
320 321 322 323 322 322 323 323 323 321 322 328 324 324 326 325 324 326 325 326 327 328 329 331 330 329 327 326 323 322 319 317 317 317 317 316 313 311 309 309 305 306 299 298
320 320 321 322 320 322 321 321 323 328 329 328 323 323 327 324 325 327 327 326 327 329 329 328 325 323 323 322 320 317 316 316 316 315 315 314 311 306 310 310 303 299 297 297
323 325 321 321 320 323 324 320 326 328 328 326 324 324 322 326 325 323 326 327 328 328 326 324 321 320 319 319 318 316 316 315 313 311 309 307 309 311 307 301 297 296 296 295
324 324 323 322 322 321 319 322 322 323 325 327 321 320 323 324 323 322 327 327 327 326 323 321 319 319 319 318 317 316 315 313 310 306 305 309 310 303 299 297 296 296 295 294
324 324 323 322 321 321 321 321 324 323 323 323 320 320 324 324 323 323 326 327 326 325 322 320 319 319 318 318 316 315 314 311 307 306 308 309 306 301 298 297 298 296 295 294
321 323 322 322 322 319 322 321 321 320 327 331 328 320 320 320 322 323 324 327 325 324 322 320 319 319 319 317 316 315 313 308 306 306 308 306 301 300 299 299 298 297 296 295
321 320 328 322 322 322 322 324 321 332 324 329 330 322 320 320 319 321 322 324 325 324 322 321 320 319 318 317 316 314 310 307 306 305 306 302 301 300 299 299 298 297 297 296
322 322 325 323 324 323 322 320 321 322 326 327 331 325 320 319 318 318 320 321 324 324 323 321 320 319 317 316 315 312 309 308 306 304 303 301 301 300 299 299 298 298 297 296
322 322 321 326 323 323 324 321 320 321 329 325 323 319 319 320 320 319 319 319 321 322 323 322 321 319 317 316 314 311 308 307 305 303 302 301 300 300 299 299 298 297 297 296
322 323 321 321 321 322 322 321 321 320 321 322 322 319 319 318 319 318 318 319 318 319 322 322 322 320 318 316 314 311 308 307 305 305 301 300 300 299 299 298 297 296 296 295
323 326 325 325 322 322 321 321 321 320 319 319 319 319 319 319 318 318 317 317 318 317 318 320 321 321 318 315 314 311 308 307 306 303 300 300 299 299 298 297 295 295 295 295
327 330 326 325 320 321 321 322 320 321 319 319 320 320 319 319 318 318 317 317 317 317 317 318 319 320 318 315 313 311 308 307 306 302 300 300 299 298 297 295 295 294 294 294
327 327 327 327 318 323 318 318 318 318 318 319 318 318 318 318 318 317 316 316 316 317 317 317 317 317 316 314 312 310 307 306 304 301 300 298 298 296 294 293 294 294 294 294
322 325 327 328 323 319 317 317 316 316 317 317 317 317 317 316 316 317 317 317 316 315 315 315 315 316 315 314 312 309 306 304 302 300 298 298 295 295 293 293 293 293 293 294
317 323 328 322 328 327 321 317 316 317 317 316 315 316 316 316 323 319 317 316 315 315 314 315 315 315 314 313 311 307 304 302 299 299 296 296 294 292 293 293 293 293 293 293
323 324 323 324 326 325 318 316 315 318 322 317 316 316 316 318 317 317 317 316 315 315 315 315 315 314 313 310 307 303 300 299 297 296 297 294 292 293 293 293 293 292 292 293
323 326 323 327 323 322 315 315 318 322 317 316 316 316 316 316 316 316 315 316 315 313 314 313 312 308 303 301 301 300 298 295 296 294 293 292 291 292 292 292 291 292 292 293
324 324 328 323 324 318 315 315 315 315 315 315 315 315 315 315 315 316 316 316 312 312 308 305 304 302 299 299 298 298 297 294 293 293 293 290 290 291 290 290 290 290 291 292
320 318 323 321 316 316 316 315 315 314 315 316 316 316 317 317 316 316 315 313 309 304 301 300 299 299 298 298 298 295 294 292 293 293 291 290 290 290 290 290 291 290 291 292
322 318 318 318 317 316 315 316 316 316 316 317 317 316 313 313 314 314 309 304 301 301 299 298 299 298 298 298 298 296 294 293 292 290 290 290 290 290 290 291 291 291 290 289
319 318 324 324 318 318 317 317 316 316 314 312 312 309 306 307 305 306 302 301 299 299 299 298 299 298 298 296 294 293 292 290 290 290 290 290 290 290 290 291 291 291 290 289

GFSCGP_850_thetae_024.txt.gz
Theta_e
318 315 316 316 316 318 319 318 315 314 316 317 317 323 324 326 328 326 326 325 325 328 329 328 328 328 328 324 319 323 321 319 324 327 326 325 321 322 323 321 318 315 311 311
316 317 317 319 319 319 319 318 317 316 315 315 315 321 324 323 324 325 326 326 326 326 327 328 328 328 329 329 328 328 325 323 325 325 326 323 323 323 322 318 316 313 311 311
316 318 319 320 320 320 319 319 319 318 314 314 315 315 324 322 322 322 325 327 326 325 326 326 327 328 329 330 331 330 328 328 327 328 327 323 324 323 319 317 316 312 311 312
318 319 320 321 320 320 318 318 320 319 316 315 316 316 318 319 323 322 324 326 327 327 327 328 328 327 329 330 331 329 330 329 329 329 324 324 322 319 318 317 315 312 312 312
318 320 320 321 320 318 319 318 319 320 318 319 319 318 317 318 318 323 325 326 326 326 328 328 328 329 331 331 331 330 330 329 330 325 325 321 319 319 319 317 314 313 312 311
317 319 319 319 320 319 319 320 319 318 318 318 322 318 316 320 319 320 322 325 324 322 328 329 329 330 330 331 330 330 329 330 327 326 323 321 321 320 318 315 313 313 310 306
318 319 319 320 320 318 320 317 318 318 318 318 322 321 319 318 319 318 318 321 324 326 328 330 331 331 332 331 330 328 326 327 327 328 322 321 321 320 317 315 313 311 308 306
319 320 321 320 320 319 319 317 317 320 321 321 322 324 321 320 319 321 321 322 325 327 329 330 331 332 332 331 328 327 326 326 325 322 321 320 318 315 313 312 309 308 303 298
321 322 320 320 321 320 320 318 318 321 321 323 322 322 318 320 320 320 321 322 327 328 330 331 332 332 331 330 329 328 327 324 321 319 318 316 314 313 312 309 309 303 298 296
320 321 320 321 321 320 320 318 320 318 324 325 318 317 321 322 322 321 321 321 327 330 330 331 332 331 330 329 328 325 324 324 321 318 317 315 313 310 309 307 304 300 299 296
319 318 320 321 321 321 319 318 317 318 315 318 319 316 313 319 319 319 319 322 324 329 330 330 330 328 328 327 326 324 324 322 321 317 316 315 312 309 309 309 301 299 299 299
319 320 318 322 320 319 319 318 317 314 316 313 313 316 315 314 316 318 322 322 322 328 328 328 327 326 325 324 322 320 320 318 317 316 315 314 311 308 309 305 300 300 299 298
318 317 314 317 316 319 319 318 319 317 312 316 313 315 314 313 313 318 320 323 322 327 327 326 325 325 325 322 320 319 318 318 317 316 314 312 308 308 308 302 301 300 299 298
319 316 314 314 315 317 321 321 318 317 313 315 313 316 316 314 312 314 318 321 325 326 325 324 324 324 322 320 319 318 318 317 316 314 313 310 307 307 305 301 300 299 298 297
317 318 317 317 320 320 319 319 320 318 316 315 316 316 315 315 313 313 316 317 321 324 324 323 321 321 320 319 318 318 318 317 316 314 310 307 306 305 301 301 299 299 297 297
318 318 320 320 317 318 319 317 317 317 318 317 316 315 313 313 313 313 315 316 316 318 319 321 322 320 318 318 318 318 317 316 315 312 309 307 305 302 301 300 298 296 296 296
317 314 313 318 313 313 314 314 315 317 316 317 316 314 312 312 312 313 316 316 316 316 317 317 319 319 319 319 319 318 317 316 315 310 307 305 303 301 300 298 297 297 298 296
315 313 309 312 309 313 316 314 314 314 312 313 312 312 313 314 314 314 315 315 315 315 315 315 315 316 318 319 318 318 317 315 312 308 305 304 301 299 298 297 297 298 295 294
319 312 313 311 311 313 314 314 313 313 314 313 312 312 314 316 315 315 314 314 314 314 314 314 314 314 315 317 317 316 315 311 307 305 302 298 297 296 296 297 298 297 295 294
314 309 312 310 312 310 311 314 314 312 313 314 313 313 313 312 309 312 314 315 315 314 314 314 314 314 314 315 316 315 312 308 304 299 297 296 296 297 298 299 299 294 294 293
308 307 308 303 306 309 311 314 313 310 309 315 315 315 315 313 313 315 314 314 314 313 313 313 313 313 313 312 312 311 307 302 298 296 296 297 298 300 300 297 293 293 292 291
312 311 307 312 310 313 315 313 311 310 314 314 314 314 315 315 315 314 313 313 312 312 311 310 310 309 305 303 304 303 302 301 300 300 299 299 300 300 295 293 292 290 290 290
314 312 311 311 311 313 313 315 316 315 314 314 315 315 315 315 313 311 310 309 309 308 306 305 305 304 302 301 300 300 302 300 300 300 299 296 293 293 291 290 290 290 290 290
316 316 313 313 315 315 313 315 314 314 315 316 316 316 316 314 311 309 307 305 304 302 301 300 300 300 301 300 299 299 298 297 295 294 292 291 290 290 290 290 289 289 290 290
314 314 314 312 314 315 315 315 315 315 315 315 314 314 313 313 307 306 302 301 300 300 299 300 300 299 298 298 296 294 292 291 290 290 290 289 290 290 290 289 289 289 290 290
314 312 310 310 314 313 313 312 313 313 312 311 313 309 308 308 305 303 301 300 300 300 299 298 297 296 294 293 293 292 291 291 290 290 290 290 290 290 290 290 290 290 290 290

GFSCGP_850_thetae_027.txt.gz
Theta_e
317 314 315 315 315 317 318 317 316 315 314 320 320 318 322 324 328 327 327 330 328 330 329 329 328 327 326 324 322 323 326 326 325 326 326 327 325 323 321 321 320 317 313 311
315 317 316 317 318 319 319 318 317 316 314 316 314 318 323 323 326 327 327 327 327 329 330 330 329 328 326 321 323 324 325 325 326 325 325 326 325 322 321 322 320 315 312 311
315 317 317 319 319 319 318 318 317 318 313 314 315 317 325 324 322 323 325 325 326 328 329 330 329 328 327 325 321 321 319 323 325 325 325 326 325 322 322 321 317 314 312 311
316 317 319 319 319 319 319 317 317 318 314 314 313 314 316 323 324 321 322 324 325 326 327 328 329 329 327 327 325 322 321 325 323 324 326 326 325 323 322 321 317 315 312 311
317 318 319 319 319 318 317 317 318 318 317 316 318 316 314 320 323 323 322 322 324 325 326 327 327 327 327 328 328 327 327 328 325 325 326 327 326 323 323 319 316 314 312 312
316 318 318 318 319 318 317 319 316 316 316 317 320 317 316 318 321 323 323 322 323 325 325 326 326 327 328 328 329 328 329 328 328 327 327 326 324 324 321 317 315 314 313 312
317 318 318 319 319 317 316 315 315 316 317 317 320 319 317 316 316 316 317 321 324 324 325 326 327 326 327 328 329 329 329 328 328 328 329 324 325 323 319 319 317 315 314 311
317 318 319 319 319 320 319 316 315 317 318 319 321 322 320 318 319 319 319 320 322 325 326 325 327 329 329 329 329 329 329 328 328 329 326 326 326 324 320 318 316 314 311 305
319 319 320 320 320 319 320 318 316 319 317 320 318 319 315 317 319 318 319 320 321 322 324 325 326 329 330 330 330 330 328 327 326 325 327 327 323 321 320 316 314 311 306 303
317 318 320 320 320 319 319 317 319 317 322 323 318 317 316 320 321 319 319 323 324 324 324 326 327 329 330 330 330 329 327 327 326 325 325 323 321 319 316 314 312 309 306 310
317 315 316 320 319 318 318 317 316 316 314 317 317 317 311 316 319 319 317 320 323 325 326 327 328 330 330 330 329 328 328 327 326 324 322 320 318 316 313 311 309 306 306 300
317 315 315 318 318 317 318 318 315 314 316 312 312 315 313 312 314 316 319 319 321 324 326 327 329 330 331 331 329 328 327 326 324 324 321 319 316 314 313 311 308 307 301 301
317 316 315 317 317 316 319 316 317 314 310 314 313 314 312 311 311 315 318 321 321 322 327 329 330 330 331 330 328 327 326 324 322 321 319 317 315 314 312 309 308 306 301 300
317 314 316 317 317 316 319 319 316 316 313 314 312 315 314 314 312 313 315 319 321 322 323 328 329 330 330 328 326 325 324 322 321 319 317 316 315 314 312 308 307 304 301 299
317 317 314 314 314 318 318 318 317 316 315 315 316 314 315 313 312 312 313 316 318 322 322 324 326 327 326 326 324 322 322 320 319 317 317 316 315 313 309 306 303 300 299 298
315 315 317 318 316 316 318 316 316 315 316 314 315 314 312 312 312 312 313 315 318 320 322 323 324 324 324 323 322 321 320 319 318 317 317 316 313 308 305 302 300 299 297 295
315 312 313 316 313 313 313 313 314 315 314 315 315 313 312 312 311 311 313 315 316 317 317 317 318 319 319 319 319 318 319 318 318 317 315 312 307 305 302 300 298 296 295 297
311 311 308 311 309 313 315 313 313 313 312 311 311 312 312 312 312 313 314 314 314 314 314 314 315 315 316 316 317 317 317 317 316 314 312 309 304 303 300 298 296 298 298 299
314 309 310 312 312 313 315 312 312 312 314 312 311 311 313 313 314 313 314 314 314 314 314 314 314 314 314 315 316 316 316 315 313 309 306 304 302 299 296 296 297 298 298 299
310 309 313 307 312 313 313 312 313 311 312 312 311 311 312 312 307 311 313 314 314 314 314 314 314 314 313 314 314 314 313 311 308 304 301 297 296 296 297 297 298 299 300 295
309 306 310 304 307 308 308 312 311 312 311 313 313 313 312 311 311 314 313 313 313 313 313 313 312 312 312 311 311 309 307 303 300 298 296 296 296 297 297 299 299 297 294 292
314 311 306 305 306 312 311 312 310 309 312 314 314 315 315 315 314 313 312 311 311 310 309 309 309 309 306 305 305 304 302 300 299 300 300 300 300 299 298 295 293 292 291 290
314 311 311 311 311 310 313 312 313 315 315 314 314 314 314 314 312 311 309 308 306 306 305 304 304 302 300 299 299 300 301 302 301 299 298 295 293 292 291 290 290 290 290 289
313 313 312 311 313 313 312 315 315 314 314 314 314 314 314 313 309 308 306 304 303 302 302 301 301 300 300 299 299 298 296 295 293 291 291 290 289 289 289 289 289 289 289 289
312 313 312 311 314 314 314 314 314 314 314 314 315 314 313 312 307 306 303 302 301 300 300 300 299 299 296 294 293 292 291 291 290 290 290 290 290 290 290 290 290 290 289 289
312 312 311 310 314 313 313 313 313 314 314 314 314 311 308 309 307 303 301 300 299 299 298 297 295 294 293 293 292 291 291 291 291 290 290 290 290 290 290 290 290 290 290 291

GFSCGP_850_thetae_030.txt.gz
Theta_e
316 313 314 313 314 315 317 317 316 314 315 322 321 319 321 322 325 327 328 329 330 330 327 325 322 323 326 327 326 326 325 323 324 325 325 326 325 325 321 320 320 319 318 317
314 316 314 314 315 317 318 318 317 316 312 318 318 319 320 321 325 327 328 329 330 330 330 328 324 324 325 322 324 325 326 325 325 325 325 325 326 324 322 321 320 317 314 312
315 315 316 318 317 318 317 318 317 317 313 312 315 317 323 322 323 326 327 328 330 329 329 329 328 327 327 326 321 324 325 326 327 326 326 326 326 324 322 320 319 317 313 311
316 315 318 319 318 318 318 317 315 317 313 313 313 315 314 322 323 321 324 326 328 330 328 328 328 329 327 328 326 323 321 321 324 325 325 326 326 325 323 321 319 316 314 312
317 318 318 318 318 317 317 316 317 317 315 316 317 315 314 319 324 324 323 324 326 326 328 328 328 328 328 327 326 323 324 323 324 324 325 326 326 325 323 320 318 316 314 313
315 316 316 316 317 317 317 317 314 314 314 316 318 316 315 315 322 325 324 325 327 325 325 326 327 328 328 327 328 326 324 325 324 323 325 326 326 324 322 321 318 316 315 313
316 317 316 318 318 316 316 314 314 315 317 317 318 319 317 315 314 317 320 323 325 326 323 325 325 326 327 327 328 329 325 326 326 324 325 326 325 325 323 323 320 318 315 314
316 315 318 318 317 316 317 315 314 316 316 316 318 319 317 317 317 318 318 318 318 322 324 323 325 325 326 326 326 328 327 326 325 326 327 326 327 325 323 323 321 318 318 315
315 316 318 319 319 317 318 317 314 317 315 318 316 316 313 315 317 317 319 318 317 319 321 323 324 326 325 325 325 326 327 328 327 327 327 326 327 325 325 324 321 318 316 313
316 317 318 319 319 318 318 315 318 315 321 322 316 316 314 315 318 319 318 320 320 320 321 323 324 325 326 326 327 327 328 329 328 327 326 327 327 325 324 322 321 319 315 312
314 313 314 319 317 316 316 317 314 315 313 316 315 315 311 313 315 317 316 319 321 322 323 322 323 324 325 325 327 329 329 329 327 327 326 325 325 322 322 321 320 318 314 308
315 313 311 316 316 316 315 316 314 315 316 311 311 314 312 309 310 314 315 319 319 320 322 324 325 325 326 327 328 329 329 328 326 326 326 324 321 322 321 319 317 314 310 304
315 314 313 314 314 315 318 315 314 312 309 313 312 314 311 310 311 314 314 318 318 320 322 324 325 326 327 328 329 330 328 327 325 324 324 322 322 320 318 316 314 310 306 303
316 314 314 315 314 314 318 316 315 315 312 313 312 314 313 312 311 311 315 315 315 318 321 323 324 325 328 329 329 328 327 326 325 324 323 321 320 318 316 314 311 307 303 300
313 314 313 313 314 315 316 318 314 315 314 315 315 312 313 312 311 312 313 314 314 316 320 322 323 326 327 328 328 327 327 327 326 323 321 319 317 315 313 311 308 303 301 299
313 315 313 317 316 316 317 315 314 314 314 313 313 313 310 311 312 312 312 315 317 319 320 321 322 322 323 324 324 324 324 324 323 320 318 316 314 312 311 308 304 302 300 299
313 311 312 316 313 314 314 313 314 314 313 314 314 312 310 311 311 310 312 315 316 317 317 317 318 318 318 318 317 317 317 318 318 318 317 315 312 310 308 305 302 300 299 297
309 310 309 310 309 313 315 313 313 312 311 311 310 311 310 310 311 312 312 313 314 314 314 314 314 314 313 313 313 315 316 316 315 315 314 311 309 307 304 301 298 297 296 296
311 308 310 313 312 312 314 311 311 312 312 310 309 310 310 312 312 311 311 312 313 313 313 313 313 313 313 313 314 314 315 314 312 310 308 307 305 303 300 297 296 297 297 297
309 307 311 306 312 314 313 312 311 310 311 309 311 310 310 311 304 308 309 311 311 312 313 313 313 313 312 312 312 311 311 310 307 305 303 300 298 297 297 297 298 297 298 298
310 306 310 302 307 310 310 310 311 312 312 311 313 312 312 308 308 311 309 310 311 311 312 311 311 312 311 309 307 308 306 304 301 300 299 298 298 299 298 298 299 298 298 294
316 313 308 305 306 316 309 311 311 310 310 312 313 314 312 313 313 312 311 311 310 310 308 308 308 307 305 304 304 302 300 298 298 298 299 300 299 299 297 294 293 291 290 290
315 313 313 312 312 311 311 311 312 312 312 313 314 314 313 313 313 312 310 309 307 306 305 304 304 302 300 299 300 300 300 299 298 296 294 292 291 290 290 289 289 289 289 289
311 309 310 311 311 309 313 313 313 313 314 314 314 314 314 313 312 310 307 306 305 303 302 301 301 300 299 298 298 297 294 292 291 290 290 290 290 290 290 289 289 289 289 289
310 311 311 309 312 313 313 313 314 314 314 314 314 314 313 313 309 308 305 303 302 301 300 299 300 299 297 295 294 292 291 291 291 290 290 290 290 290 289 289 290 290 290 290
310 311 311 312 312 314 312 314 313 313 313 313 313 313 311 311 309 305 303 301 300 300 299 298 296 295 293 293 292 292 291 291 290 290 290 290 290 289 289 288 287 286 285 284

GFSCGP_850_thetae_033.txt.gz
Theta_e
315 317 317 315 315 316 317 318 318 318 316 323 324 322 324 328 329 329 329 329 328 324 324 326 326 322 321 323 325 326 326 324 320 318 324 325 326 325 325 324 320 320 319 319
317 319 316 314 315 317 318 319 319 317 314 320 318 321 321 324 327 327 328 329 328 328 328 327 326 324 323 323 323 326 326 324 320 319 323 325 325 326 326 323 320 320 319 318
318 317 315 316 317 318 318 319 318 318 314 314 317 319 323 323 324 325 326 328 328 328 327 328 327 324 322 323 324 326 326 326 323 322 324 325 325 326 325 321 320 319 318 316
318 316 316 318 318 318 320 317 316 317 316 317 315 319 315 323 325 324 326 326 328 328 329 328 328 326 324 323 324 324 324 324 326 325 324 324 325 325 325 322 321 319 317 313
319 317 318 319 319 317 320 317 318 317 316 319 319 318 319 320 325 327 326 325 327 328 329 329 328 328 327 326 325 323 322 324 326 324 325 324 323 324 324 322 320 317 315 313
317 315 317 318 316 316 316 318 315 316 318 321 319 320 321 319 323 325 325 326 326 327 328 328 329 328 328 328 328 327 327 325 325 325 323 323 325 325 325 323 321 318 316 313
316 317 316 317 319 317 317 318 321 318 322 322 319 320 321 319 317 319 322 324 325 326 327 328 327 327 327 328 328 328 328 326 325 322 323 326 326 326 326 324 323 320 317 316
318 318 318 317 319 320 319 319 322 319 320 318 319 322 319 318 317 316 316 317 318 322 325 327 327 327 326 326 327 329 328 326 322 323 324 326 326 326 325 325 324 321 320 318
317 317 317 318 318 318 318 320 316 320 318 323 320 319 318 315 317 319 319 318 318 318 318 319 324 326 325 325 326 326 328 328 325 325 325 325 326 325 325 325 324 322 320 317
318 318 318 319 319 318 318 317 322 320 322 323 320 319 320 318 318 319 320 320 320 320 319 319 320 322 322 323 325 325 326 326 327 327 327 326 326 325 325 325 323 322 321 315
316 317 316 319 320 320 319 320 317 318 319 322 321 320 317 318 316 319 318 317 319 320 321 321 321 322 323 324 325 325 325 325 327 327 328 326 325 325 324 323 323 321 318 314
317 318 318 318 316 315 316 319 319 323 319 316 318 320 316 316 314 313 316 315 317 319 321 322 322 323 323 324 324 325 326 327 327 323 323 323 323 323 322 320 320 320 319 314
316 316 318 317 316 316 319 317 315 314 315 318 325 321 313 313 314 313 313 314 316 317 320 321 322 324 324 325 325 325 327 328 325 325 323 323 322 322 322 320 320 319 317 313
315 316 318 318 318 317 319 317 316 318 320 320 319 319 318 318 316 316 315 314 314 314 316 320 323 324 325 326 326 327 328 327 326 325 324 324 323 323 322 320 319 317 314 308
317 318 315 314 314 316 318 318 317 318 319 322 321 316 317 317 316 315 313 313 314 314 316 320 321 323 325 326 327 328 328 328 327 326 325 324 323 320 319 317 314 311 307 303
314 317 314 315 315 315 317 316 317 317 315 316 315 316 315 313 312 312 311 314 316 318 319 320 321 321 322 322 323 322 321 320 320 320 319 320 319 316 314 311 308 305 302 300
316 316 316 318 314 316 318 316 316 316 315 317 318 319 313 313 312 311 313 315 314 315 316 317 317 317 317 317 316 315 315 315 316 316 316 315 314 312 310 309 306 303 300 299
313 315 314 317 313 321 319 313 314 317 315 314 313 313 312 312 310 310 312 313 312 312 313 313 313 313 313 313 313 314 314 314 315 314 314 313 311 309 307 306 303 301 299 296
312 313 314 319 318 316 314 313 315 316 317 313 314 312 311 310 310 308 309 310 311 312 312 313 313 313 313 313 312 312 312 312 312 311 309 308 306 305 304 302 300 298 297 299
309 310 319 311 319 321 318 314 311 312 317 313 312 312 312 311 318 314 308 309 311 311 312 312 312 312 312 311 310 309 308 308 308 306 305 303 302 300 299 298 298 298 298 297
314 313 317 312 320 318 313 311 311 318 320 312 311 312 312 312 311 311 308 309 310 310 310 310 310 311 310 308 307 307 306 304 300 299 299 298 298 298 298 298 298 298 297 295
319 318 317 312 317 321 310 309 316 317 312 312 311 312 311 311 310 309 308 309 308 308 308 308 309 308 305 304 305 303 301 298 298 299 299 299 299 298 296 293 291 290 290 289
321 318 319 319 321 316 310 314 313 313 312 311 312 312 312 310 309 308 307 306 305 306 305 304 305 303 301 301 301 301 299 299 299 297 295 293 291 290 290 290 289 289 289 289
312 309 316 316 315 313 311 311 312 312 313 312 313 313 312 311 308 307 305 304 303 302 302 302 302 301 300 298 298 297 294 292 291 291 290 290 290 290 289 289 289 289 289 289
314 312 312 313 312 313 313 313 313 313 313 312 312 313 313 311 307 306 304 302 302 301 300 300 300 299 297 295 294 292 291 291 291 290 290 290 289 289 288 287 285 284 283 283
311 314 315 317 314 315 315 315 314 313 313 312 313 312 311 311 309 306 303 302 301 300 299 298 297 296 294 293 292 292 291 290 290 289 289 287 287 286 285 284 284 283 282 281

GFSCGP_850_thetae_036.txt.gz
Theta_e
319 320 319 318 318 320 320 320 320 321 322 324 323 323 328 329 329 328 328 328 325 324 325 325 324 324 323 323 324 325 325 325 324 325 322 322 324 324 324 324 324 323 321 321
321 320 319 318 319 320 321 320 321 321 319 321 322 322 324 329 331 330 330 330 330 328 326 327 327 325 324 324 325 326 327 328 326 326 323 325 326 325 325 324 324 322 320 320
321 321 319 319 321 321 322 321 321 321 320 320 320 322 324 326 328 330 329 329 329 329 329 329 329 329 326 325 325 326 328 329 329 327 325 325 325 325 326 325 325 322 320 320
321 320 320 321 321 321 321 321 321 321 321 320 320 321 322 324 327 328 328 328 329 328 328 329 330 329 329 327 327 327 327 329 329 328 326 324 323 325 323 324 323 322 321 319
321 321 321 321 321 321 321 321 321 322 322 322 322 321 321 322 325 326 327 328 327 328 328 328 329 330 330 328 327 328 328 329 330 329 327 323 323 326 325 323 323 322 320 318
320 319 321 321 320 321 321 322 321 322 322 323 321 322 321 322 322 322 324 326 328 328 328 328 329 330 331 330 329 326 327 329 330 329 326 325 325 325 325 322 323 322 321 319
320 320 320 320 321 321 321 322 323 322 323 323 322 323 322 321 321 322 322 323 326 327 328 328 329 330 331 332 332 330 330 327 325 325 322 321 322 325 324 324 323 323 323 320
320 320 320 320 321 321 321 322 323 322 321 320 322 321 321 321 321 321 322 322 322 326 327 328 328 328 330 331 333 331 329 327 325 324 324 322 323 323 324 322 324 325 323 321
320 319 319 320 320 321 322 322 321 324 324 323 321 321 321 320 321 322 322 323 322 322 322 325 327 328 329 330 332 332 330 329 328 324 322 320 321 324 323 324 326 325 321 320
319 319 320 322 321 321 322 321 323 323 323 322 321 321 320 320 319 320 321 321 323 324 322 322 323 325 327 328 330 331 331 331 330 325 324 324 325 325 325 325 326 325 323 319
319 319 322 322 323 322 323 323 322 322 323 322 322 321 321 320 320 320 321 320 321 322 325 324 324 325 326 327 329 329 330 331 331 327 325 326 326 327 325 325 324 322 323 322
319 320 321 320 320 320 321 321 322 323 322 322 324 321 320 321 321 319 321 319 320 321 323 326 327 327 328 328 328 329 329 330 330 330 328 326 326 324 322 322 321 322 322 321
319 320 320 320 319 320 320 320 320 321 321 322 328 322 320 320 320 320 319 319 318 319 322 326 327 328 329 329 329 329 329 329 329 327 326 325 323 322 323 322 322 321 321 319
319 319 320 320 319 319 321 320 320 320 323 322 323 321 321 321 321 321 321 320 318 317 319 324 327 327 328 327 326 326 326 326 327 326 326 325 324 323 323 322 322 320 319 317
320 319 319 318 318 317 318 318 320 320 321 322 322 321 321 320 321 320 318 317 317 317 319 322 326 326 326 326 325 325 327 327 327 326 324 324 323 322 321 319 319 318 316 315
319 319 319 319 318 318 318 318 319 320 320 321 321 321 320 320 320 319 318 317 319 320 321 322 323 323 323 323 322 324 323 322 320 319 318 318 318 318 317 315 313 311 309 306
320 321 320 320 320 319 321 320 319 320 320 321 321 321 320 320 320 319 318 319 318 318 318 317 317 317 317 317 317 316 315 315 315 315 316 315 314 312 311 309 307 306 304 301
321 321 322 321 319 327 320 320 320 320 321 321 320 320 320 319 318 316 317 317 314 314 313 313 313 313 313 313 313 314 314 314 313 313 312 310 310 309 307 306 305 303 301 300
320 321 322 327 322 321 319 318 319 321 321 321 321 320 319 316 314 313 312 313 311 310 310 311 311 312 312 312 312 312 311 310 309 308 307 306 306 305 304 303 302 301 300 298
317 318 325 319 323 326 321 320 318 319 322 320 320 320 318 315 320 319 309 308 308 308 308 310 311 311 311 310 309 309 307 307 306 305 303 302 301 300 300 299 298 298 298 299
319 319 324 324 326 322 320 318 316 321 323 320 319 318 317 318 319 314 308 307 307 307 308 308 309 310 309 308 307 307 306 305 302 301 300 300 299 299 299 299 299 298 296 295
321 324 324 323 327 327 317 315 321 322 320 319 318 318 317 315 312 309 308 307 306 306 307 307 308 306 305 304 305 305 304 302 302 301 301 301 300 298 294 292 291 291 291 290
323 322 324 323 323 322 316 319 318 319 319 317 317 317 317 311 310 308 307 306 305 304 304 303 304 304 302 302 302 303 302 301 300 298 295 293 291 291 290 290 290 292 291 291
317 315 321 320 321 320 318 317 316 315 316 316 316 316 314 311 309 307 306 305 304 303 303 302 302 301 301 299 300 300 298 295 293 292 291 290 290 290 290 289 288 287 286 285
319 315 320 321 321 316 317 317 317 315 314 313 314 315 313 310 308 307 305 303 303 302 301 300 299 299 299 298 298 295 293 292 291 291 290 290 289 288 286 286 285 284 283 283
315 319 322 325 321 320 321 320 317 315 314 313 314 313 312 309 308 305 304 302 301 300 298 298 298 298 297 296 294 292 292 291 290 289 288 287 286 286 285 284 284 283 282 281

GFSCGP_850_thetae_039.txt.gz
Theta_e
320 322 321 320 320 320 322 321 322 323 325 325 325 324 326 330 328 327 327 324 324 324 325 326 323 323 323 323 321 322 323 325 324 324 321 320 321 322 322 324 326 326 326 323
322 323 321 321 319 319 321 321 321 321 321 322 322 323 323 330 329 328 327 327 325 324 325 325 326 323 323 324 323 322 323 325 326 326 323 321 321 323 325 325 325 327 326 324
323 322 321 320 319 320 321 321 321 321 323 322 322 322 322 326 329 329 328 327 327 325 325 325 326 326 325 325 326 326 326 326 328 327 325 323 324 325 326 326 326 326 325 323
322 322 320 319 320 320 321 321 321 322 322 323 323 322 324 324 326 329 329 328 327 327 326 325 326 327 326 325 326 327 327 328 328 327 327 324 325 327 327 327 326 325 324 322
322 322 321 320 321 321 322 322 322 322 323 323 322 321 323 322 323 325 327 328 327 326 327 326 326 327 328 327 326 327 328 328 329 328 327 327 326 327 327 327 326 324 322 322
322 321 321 321 321 321 321 323 322 323 323 324 322 323 322 323 322 322 324 326 327 326 326 326 327 328 327 328 328 328 328 328 328 330 328 328 328 327 326 327 325 323 321 322
321 322 321 321 322 322 322 322 324 324 325 325 323 323 322 323 322 322 322 324 326 326 326 326 326 327 329 330 330 329 329 329 329 330 330 326 322 325 321 324 325 324 321 320
322 322 321 321 321 322 322 323 325 330 327 324 324 321 322 322 322 321 321 322 322 326 326 326 325 327 329 331 332 332 331 331 330 330 323 324 323 322 321 322 323 324 321 320
322 322 321 321 321 321 323 323 323 324 325 325 323 322 322 321 321 321 322 324 325 323 326 326 326 325 328 330 332 334 333 333 332 329 324 323 322 320 323 324 325 323 322 323
321 322 320 321 321 321 322 324 324 324 325 326 322 323 322 321 321 321 321 321 324 324 324 324 326 327 327 329 330 333 336 334 333 329 325 323 324 321 322 323 323 324 323 324
320 321 321 322 322 322 323 324 323 324 324 325 326 323 323 322 321 321 321 320 321 322 325 325 325 325 327 328 330 332 335 335 333 331 328 323 323 322 323 325 324 323 323 323
320 321 322 323 321 321 322 322 323 327 324 324 325 324 322 322 322 321 320 321 320 321 323 326 327 327 327 327 329 330 333 334 333 333 329 325 326 326 325 327 326 324 322 321
321 322 323 321 322 322 323 324 323 323 324 324 330 324 322 321 321 320 320 321 321 320 322 325 328 329 330 330 330 331 332 332 332 333 330 329 329 328 328 327 325 323 320 319
321 320 321 323 321 321 321 321 321 321 326 324 323 322 322 322 322 322 321 321 321 320 320 323 327 330 331 332 332 332 332 332 332 332 331 330 328 328 325 323 322 321 320 318
321 323 320 320 319 320 320 321 321 321 321 323 322 322 323 323 322 321 322 321 319 320 320 321 326 329 330 330 330 330 329 329 327 326 326 324 322 321 320 321 320 318 317 315
320 322 321 320 319 319 319 319 318 319 319 320 320 320 321 321 320 320 319 320 320 321 322 323 326 328 328 328 328 327 325 324 323 322 321 319 317 316 314 313 312 312 313 312
320 323 322 322 319 320 322 319 319 319 319 320 321 321 321 321 321 320 320 320 321 322 322 324 325 326 326 325 323 321 319 318 317 315 314 313 311 310 311 312 311 309 308 306
322 322 323 324 324 326 320 320 320 320 320 320 320 321 321 321 320 320 320 320 321 321 321 321 320 320 319 318 317 316 315 314 313 312 311 310 309 309 309 308 307 305 303 301
320 323 324 326 325 321 319 319 321 321 320 320 321 321 321 320 320 319 319 320 319 318 318 317 316 315 314 314 313 312 311 310 309 308 307 307 306 305 305 304 303 302 301 300
319 324 327 324 324 325 320 320 320 321 323 320 320 321 321 320 322 321 317 317 316 315 314 313 313 312 312 311 310 309 308 307 306 306 305 304 304 304 303 301 301 301 300 299
321 323 327 326 325 322 320 320 320 323 321 321 320 321 320 320 321 319 315 314 313 312 312 311 311 311 310 309 309 308 307 306 305 304 304 303 303 301 300 300 300 299 298 297
321 323 326 325 327 328 321 321 321 322 321 322 322 321 319 319 319 316 314 313 312 311 310 310 310 309 309 308 307 306 305 304 304 303 302 301 300 298 298 297 295 294 295 295
319 321 325 323 324 322 320 321 320 320 320 322 322 320 319 320 317 314 313 312 311 310 310 309 309 308 307 307 306 305 303 302 302 300 298 296 295 295 295 295 294 294 293 292
319 319 322 322 322 322 322 321 320 321 321 321 321 320 319 319 316 314 312 311 310 310 309 308 307 306 305 304 303 302 301 299 298 297 296 295 294 293 292 291 290 290 290 288
320 319 320 320 319 319 320 321 321 321 320 319 318 318 319 318 315 313 312 311 310 309 308 307 305 304 302 300 299 298 297 296 295 294 293 292 290 290 289 288 288 286 286 284
319 319 321 323 319 322 321 321 320 321 320 318 317 317 318 316 314 313 311 310 309 308 306 304 303 301 299 298 297 296 295 294 293 291 290 289 288 288 287 287 287 285 284 283

GFSCGP_850_thetae_042.txt.gz
Theta_e
318 318 318 320 321 320 320 322 323 326 326 325 327 330 328 329 326 325 323 319 321 324 324 326 323 321 320 319 316 314 316 318 319 320 320 319 320 321 315 320 324 324 322 326
319 321 321 321 322 321 320 320 322 322 324 322 322 323 329 329 328 327 325 322 322 324 326 324 325 323 323 320 318 315 315 317 317 317 317 316 315 313 314 314 319 320 323 325
320 321 323 322 321 320 319 320 321 323 323 323 322 322 323 329 328 328 328 327 325 325 327 325 324 324 324 322 319 321 322 323 322 320 321 323 321 320 322 322 320 322 324 324
321 322 322 322 321 320 319 320 321 322 323 322 323 324 323 328 327 328 328 327 326 325 325 326 325 324 323 324 323 321 322 323 324 323 326 324 322 322 324 326 326 326 325 325
322 322 322 322 319 319 320 323 323 322 321 324 323 323 321 323 325 329 330 328 327 326 325 326 326 326 325 324 324 324 324 325 325 326 325 327 323 325 325 324 324 326 326 324
321 322 322 322 320 320 322 323 324 323 322 325 324 322 324 325 325 324 327 329 328 327 327 326 326 326 327 326 325 326 326 327 328 327 326 327 326 324 326 326 325 325 325 324
321 321 322 321 321 321 321 322 324 324 326 327 324 323 324 325 324 324 324 324 328 327 326 327 327 327 328 327 327 326 327 327 328 329 329 327 326 327 326 324 324 325 324 324
322 323 321 321 321 322 322 322 325 331 331 328 325 324 322 324 323 322 322 321 324 328 327 326 326 327 328 328 329 328 327 327 328 328 329 328 321 323 326 324 322 321 322 322
322 322 321 321 321 322 323 323 323 328 327 328 328 324 322 322 321 321 321 322 323 323 327 327 326 326 328 328 329 329 330 328 328 328 329 329 322 322 324 322 321 321 320 322
321 323 322 321 321 321 321 323 326 326 329 331 324 322 323 323 321 322 321 322 324 324 323 326 327 326 326 329 330 330 331 330 330 330 330 330 324 323 323 322 322 322 323 323
321 322 323 322 321 321 321 322 325 326 326 329 328 325 323 323 323 322 322 321 321 322 325 325 325 325 327 327 330 332 332 332 332 332 331 330 329 325 324 323 322 323 323 322
320 322 323 322 321 321 321 322 323 328 326 328 333 327 324 324 323 322 322 321 321 321 322 325 326 326 325 326 329 331 334 334 333 333 333 331 329 325 324 323 322 324 324 324
321 321 323 323 323 322 322 321 323 324 326 328 330 326 323 322 321 321 320 320 321 320 321 324 327 328 328 327 328 331 334 335 333 332 331 330 329 326 323 323 326 325 324 321
322 322 322 324 322 323 323 322 324 325 327 326 326 325 324 324 323 322 322 320 320 321 321 322 326 328 330 330 330 330 332 333 333 332 331 332 326 325 326 325 323 323 322 320
322 323 321 322 321 321 323 321 321 323 325 325 325 322 322 322 323 321 322 322 322 321 320 321 324 329 331 332 332 331 332 332 332 330 330 329 328 327 325 323 322 320 319 318
321 322 323 323 322 320 320 321 322 321 321 321 321 322 322 321 321 321 321 320 321 320 320 320 322 329 331 332 332 332 331 331 330 327 328 327 326 322 320 319 319 318 317 316
321 323 323 324 323 321 321 320 320 321 321 320 320 322 321 321 322 322 321 320 320 320 322 323 324 329 330 330 330 328 326 325 325 323 322 321 319 316 315 314 314 313 312 311
321 322 322 324 323 323 320 320 320 320 319 320 320 320 320 321 320 321 321 320 321 322 323 324 327 328 328 327 325 323 321 320 319 318 316 314 313 312 312 311 310 308 306 305
319 323 325 325 323 321 319 320 320 320 320 321 320 320 321 320 320 322 320 320 321 322 322 323 324 324 323 321 319 317 316 314 313 312 311 310 309 308 307 307 306 305 304 302
315 317 321 326 324 324 322 320 319 320 320 321 321 321 321 322 324 323 320 320 321 321 321 320 319 318 317 316 315 313 312 311 309 308 308 307 306 306 305 303 302 301 300 300
318 319 321 325 325 324 321 320 319 321 323 322 321 321 321 323 322 321 320 320 319 319 318 317 315 314 313 312 311 310 309 308 307 307 306 305 305 304 303 302 300 300 299 298
320 320 322 324 325 325 321 321 321 323 321 322 321 321 321 320 320 320 319 318 317 316 315 314 313 312 311 310 310 308 307 306 306 305 305 304 303 301 300 299 298 297 296 296
321 318 320 322 324 317 318 320 321 320 321 322 321 322 322 321 320 319 317 316 315 314 313 312 312 311 310 309 308 307 306 305 305 305 304 301 298 298 297 296 295 295 295 295
316 318 318 317 316 316 317 320 322 321 322 322 321 322 322 321 320 317 316 315 314 313 312 311 311 310 309 308 307 306 305 305 303 300 298 296 295 295 295 294 293 293 292 291
317 317 319 319 318 317 317 318 319 321 322 321 321 320 320 320 320 317 315 314 313 312 311 311 309 308 307 307 305 304 302 300 298 297 296 295 294 292 291 290 290 290 289 287
317 317 320 320 318 321 320 320 319 320 320 319 321 320 319 319 320 317 315 313 312 311 310 309 308 307 305 303 302 300 299 297 296 294 293 291 290 290 289 289 288 287 285 284

GFSCGP_850_thetae_045.txt.gz
Theta_e
317 315 315 313 315 318 318 318 318 321 322 324 327 325 322 321 325 323 325 324 327 326 324 320 319 318 316 316 316 317 316 315 314 315 314 314 314 312 313 314 313 318 321 319
316 317 316 317 317 318 320 318 317 320 324 323 321 326 322 321 324 323 321 324 325 327 325 320 319 318 317 316 316 315 316 316 316 316 317 318 319 318 316 317 316 316 317 320
317 318 318 318 320 320 319 318 317 319 321 321 319 319 325 325 327 324 320 320 320 325 326 323 322 320 319 315 316 316 316 316 317 320 321 321 321 321 321 318 315 316 319 320
318 318 319 319 321 319 318 317 320 321 321 320 320 322 329 329 328 326 323 319 320 323 325 325 324 323 319 317 315 316 317 318 318 318 319 319 317 317 315 314 315 315 315 320
318 318 319 320 321 320 320 320 321 322 321 319 319 323 322 329 328 327 325 324 322 323 325 324 324 323 323 319 316 316 316 316 316 316 318 318 319 318 317 320 321 323 324 325
317 319 319 319 321 320 318 322 322 322 320 319 320 320 319 326 324 327 326 326 325 324 326 325 325 324 323 322 321 318 318 321 322 323 321 324 326 323 321 322 323 325 325 325
318 318 319 319 320 320 318 320 322 321 320 320 326 326 322 321 321 326 324 327 326 325 326 325 324 324 324 323 322 322 322 321 322 323 323 324 325 325 322 324 324 325 324 323
319 319 319 319 319 319 318 319 321 324 324 327 326 327 321 322 320 321 323 328 327 326 325 326 326 325 326 325 325 325 323 324 324 325 326 326 325 325 325 324 325 325 324 322
318 319 319 319 320 319 321 320 320 327 326 325 326 325 322 322 319 318 319 321 326 327 326 325 326 326 326 326 326 326 326 324 324 326 327 327 327 326 327 327 326 325 325 321
318 320 320 320 319 318 319 321 323 326 328 329 328 327 325 321 322 319 317 319 321 324 327 326 326 326 326 326 327 326 327 327 327 325 326 328 329 328 327 327 326 326 325 324
317 318 320 321 321 320 319 319 320 325 326 325 323 323 320 322 322 321 317 321 322 323 325 326 326 326 326 327 328 326 327 327 327 327 326 327 327 328 328 325 322 325 325 322
317 318 318 319 320 320 319 319 320 323 325 324 320 322 321 319 319 320 320 320 321 322 322 324 326 327 326 324 325 324 328 324 324 328 327 327 328 328 328 327 324 324 323 324
317 318 318 321 319 320 319 319 319 320 322 324 321 323 321 321 320 320 319 320 320 321 321 325 326 326 326 326 328 326 329 327 326 329 329 329 329 329 328 326 326 324 323 323
318 318 318 319 320 320 321 321 320 319 320 320 322 324 323 322 321 319 321 321 321 320 320 323 324 324 322 326 328 332 331 330 330 330 330 331 330 329 329 327 325 323 323 322
320 319 318 318 320 320 322 322 320 320 320 324 323 322 320 319 319 319 321 321 321 321 320 322 325 326 326 327 329 332 334 334 333 333 332 331 330 330 327 326 325 325 323 322
319 319 319 319 319 319 319 320 320 320 321 323 323 322 321 321 320 320 321 321 322 320 319 319 322 328 329 330 331 331 331 332 332 331 330 330 330 328 326 327 326 324 322 320
318 319 319 319 319 320 319 319 319 320 320 320 320 319 317 318 320 320 321 321 320 320 320 319 320 327 330 331 331 331 331 331 331 331 331 329 328 327 326 324 322 320 318 317
317 318 319 316 318 323 319 318 318 318 318 317 317 317 316 317 319 320 321 320 320 319 320 321 321 328 330 331 330 331 330 329 328 328 327 326 325 324 323 319 317 315 314 313
314 315 318 320 320 319 320 318 317 318 318 318 317 316 316 318 318 320 320 320 320 320 321 322 324 328 330 330 330 329 327 325 323 322 322 321 319 318 315 314 313 312 310 307
314 312 313 317 320 321 319 318 318 318 318 318 318 318 317 318 317 316 320 320 320 321 322 323 326 328 328 327 327 326 323 321 319 317 316 314 313 312 310 309 308 306 303 302
313 311 315 316 320 317 319 318 318 319 317 318 320 320 321 317 318 320 320 319 320 320 321 323 324 325 324 323 322 319 317 315 313 312 311 309 308 307 307 306 304 303 301 300
316 316 316 318 320 321 317 320 318 317 319 320 319 320 319 320 320 320 319 319 320 321 321 321 321 320 319 318 316 315 313 311 310 308 307 307 306 305 304 303 301 300 300 299
316 315 317 318 318 317 316 317 316 316 316 320 321 320 321 320 320 319 319 319 319 319 318 318 317 316 314 314 313 311 309 308 308 307 306 305 304 303 301 299 298 297 297 296
314 314 315 316 316 315 315 314 317 317 318 317 319 321 320 321 320 319 318 318 318 317 316 315 314 313 311 311 310 309 308 307 306 306 305 303 301 299 297 296 295 296 295 295
312 315 316 315 315 315 314 314 314 315 318 317 319 319 320 319 320 319 318 317 316 314 314 313 312 311 310 309 308 307 306 306 305 304 300 297 297 296 296 295 295 295 294 293
314 314 314 313 317 318 318 317 314 316 317 317 318 318 320 319 319 319 317 316 314 313 312 312 310 310 308 308 306 306 305 303 301 298 296 295 295 294 294 293 292 291 290 288

GFSCGP_850_thetae_048.txt.gz
Theta_e
315 314 315 313 312 315 316 316 316 315 319 324 323 322 320 322 324 321 321 322 323 324 323 320 320 319 318 317 317 319 320 318 315 316 316 314 315 314 318 316 314 315 315 314
314 315 315 314 314 315 315 316 317 315 320 322 321 324 322 319 322 321 321 325 325 324 323 319 319 319 318 317 317 317 318 317 316 316 315 315 315 315 317 316 315 315 314 314
315 316 316 316 316 316 316 317 317 316 320 320 318 320 323 322 322 323 322 324 325 326 325 320 319 318 317 317 317 317 317 316 316 316 314 314 316 316 316 316 314 314 314 315
315 315 316 317 317 316 317 318 317 320 319 319 317 318 324 323 323 325 321 323 325 327 325 323 319 317 316 316 316 316 316 316 315 316 315 315 315 314 314 313 313 314 314 318
318 317 317 318 317 317 319 318 318 319 319 318 319 318 319 323 327 326 321 320 322 324 324 325 321 319 317 315 316 317 316 316 316 315 316 317 317 318 318 316 314 313 315 317
316 317 316 316 317 318 319 320 320 320 319 320 320 319 318 328 327 327 325 319 319 322 323 323 323 321 318 315 316 317 317 316 317 318 320 320 320 320 320 318 317 316 314 314
315 316 316 317 317 317 317 318 320 321 320 321 323 324 321 319 326 326 326 325 321 320 322 324 324 323 322 318 315 316 316 317 317 318 318 318 318 318 317 316 316 317 319 321
316 318 317 317 317 318 317 317 318 321 323 322 323 323 321 320 321 322 326 326 325 322 321 323 324 324 323 322 318 315 315 315 316 315 314 315 316 317 317 320 321 319 321 322
317 317 317 317 317 317 318 318 317 323 324 323 322 322 320 319 319 318 321 324 325 325 323 323 324 324 324 324 322 319 317 317 317 318 318 319 319 320 322 325 325 322 322 323
316 318 317 317 317 316 318 318 321 322 325 324 325 325 323 323 319 319 316 320 325 325 324 325 325 325 324 324 324 323 321 321 319 319 319 320 322 322 323 324 325 325 323 325
314 316 317 317 318 318 318 318 320 322 322 323 323 321 318 321 321 319 317 318 321 325 325 324 325 325 325 325 324 325 324 323 323 322 321 322 322 323 325 325 325 325 325 325
314 315 316 316 317 318 317 318 319 322 324 321 318 322 319 318 318 318 319 319 321 324 325 325 325 325 325 325 325 325 325 325 325 326 325 325 325 325 326 326 326 326 326 324
319 316 316 317 317 317 318 318 318 319 319 321 321 323 319 318 318 320 319 319 320 321 323 324 325 325 325 325 325 326 326 326 326 326 326 326 326 323 325 327 326 319 321 324
319 318 316 318 318 318 319 320 318 318 317 318 319 320 320 319 318 319 320 319 320 321 322 324 325 325 325 326 326 325 325 326 327 327 326 326 324 326 327 326 326 322 319 322
321 321 318 317 317 318 318 319 319 319 318 319 318 320 320 319 318 319 322 320 320 320 320 324 325 325 326 326 325 326 327 326 327 326 326 327 325 327 328 327 327 326 327 325
318 321 318 317 317 317 318 319 319 319 319 318 318 320 319 320 319 317 319 320 321 321 321 320 325 325 327 327 326 325 325 328 328 326 327 327 327 328 328 327 326 325 326 324
318 318 318 317 317 318 317 318 318 318 318 320 321 319 319 318 317 317 319 320 321 320 320 320 320 323 325 325 325 326 326 328 332 331 330 329 329 328 327 326 325 325 323 322
316 315 317 316 315 321 318 317 317 317 317 316 316 317 316 316 319 318 319 321 321 320 321 319 319 319 324 327 328 329 329 331 330 330 330 329 329 328 327 324 323 322 321 319
315 313 314 317 319 318 317 318 317 317 318 316 316 315 315 316 315 316 318 319 319 321 320 320 319 320 325 328 330 330 330 331 330 330 329 327 327 324 324 322 322 319 316 314
312 312 314 315 317 321 317 316 317 316 316 316 315 315 316 317 314 313 319 319 320 320 319 320 320 321 327 330 331 331 330 329 328 328 327 326 325 323 323 321 319 314 311 311
311 310 314 314 316 317 316 316 317 319 316 316 318 318 316 315 316 319 319 320 320 320 320 319 320 322 326 329 330 329 328 326 325 324 323 322 320 319 317 314 312 311 310 307
312 313 313 314 317 317 317 316 318 317 316 317 318 318 318 320 320 320 319 320 320 320 320 321 321 325 328 328 328 327 325 323 321 320 319 317 314 311 310 309 308 306 304 301
313 313 313 316 314 316 316 314 316 317 317 318 318 318 318 319 319 319 320 319 320 320 320 321 323 325 325 324 324 323 320 318 316 314 312 310 308 307 306 305 304 302 301 299
309 313 315 315 313 315 314 315 314 314 316 317 317 317 318 318 320 319 319 320 320 320 320 320 321 320 319 318 317 317 316 313 312 310 308 306 305 304 302 301 300 300 299 299
309 312 314 314 313 314 314 314 314 314 313 314 317 315 316 319 319 319 319 319 319 319 319 319 318 317 315 314 313 312 311 310 308 307 305 304 303 301 300 299 299 298 298 296
309 311 312 312 312 312 314 315 315 314 314 313 314 316 315 317 318 318 319 318 318 317 316 315 314 313 312 310 309 308 308 307 306 305 303 302 301 299 298 296 296 295 294 293

GFSCGP_850_thetae_051.txt.gz
Theta_e
314 312 313 313 312 313 314 315 314 313 314 319 319 319 317 319 321 323 321 322 321 321 322 321 320 319 318 319 318 319 320 324 320 317 317 323 316 322 322 321 318 315 321 319
313 314 313 313 313 313 314 314 314 314 314 319 319 320 318 319 320 321 320 321 322 322 324 322 319 319 318 318 316 318 321 321 315 315 319 321 320 322 321 320 316 316 319 316
315 315 315 314 314 315 314 314 314 315 315 319 320 318 319 319 321 321 321 322 323 323 323 323 318 319 318 317 317 317 319 321 321 320 319 318 321 321 319 317 316 316 315 315
314 315 314 315 315 314 315 314 316 316 316 317 316 318 315 320 320 321 320 321 323 324 323 324 319 318 318 317 317 317 318 319 318 318 316 316 319 318 315 313 315 315 315 315
317 315 314 315 316 315 315 316 316 317 316 317 317 316 315 321 324 322 321 321 322 324 323 321 320 316 317 316 317 317 317 318 318 318 316 316 315 314 315 313 317 316 316 315
316 316 314 315 315 315 316 317 317 317 316 319 317 317 317 320 322 323 322 321 323 323 324 322 320 320 316 316 316 317 317 317 316 316 317 316 315 314 314 315 316 316 317 315
314 315 315 315 316 316 316 317 317 318 319 321 318 323 320 317 319 322 323 323 322 323 324 323 322 322 319 316 315 317 316 317 315 315 316 316 315 315 315 314 315 315 314 314
314 315 314 314 315 316 315 316 317 320 320 319 321 322 320 318 318 321 323 325 323 321 323 323 321 321 322 318 315 316 316 317 316 315 315 315 316 315 316 316 315 315 314 314
314 314 315 315 315 315 316 316 315 320 321 322 320 319 318 318 316 317 318 323 324 323 321 322 322 321 322 322 318 315 315 315 316 317 318 317 317 317 317 317 317 317 316 316
314 317 316 315 315 315 316 316 319 319 323 325 321 323 320 320 320 316 313 320 324 325 322 321 322 322 322 323 323 319 316 315 316 316 317 317 317 317 317 317 315 314 316 317
312 314 314 315 316 316 315 316 319 319 318 319 321 319 317 320 318 318 318 317 320 324 325 324 324 324 324 323 324 324 321 316 316 315 315 315 315 314 315 315 315 317 319 322
313 313 315 315 314 316 315 316 317 319 322 319 318 320 316 316 316 317 317 319 319 319 323 325 325 324 324 324 323 324 324 323 321 318 316 316 316 317 317 318 319 320 322 323
318 316 314 316 314 314 313 315 316 318 318 320 321 320 317 316 317 318 317 320 320 320 322 323 324 324 324 324 324 324 324 324 324 322 321 318 318 318 319 320 321 323 323 322
317 319 317 317 316 315 318 316 316 317 317 317 320 319 318 319 318 317 318 319 321 320 321 324 324 324 324 324 324 324 324 324 324 324 323 322 323 323 323 322 324 324 324 325
318 320 319 319 319 318 315 316 317 317 317 318 317 318 317 317 316 316 321 321 319 319 319 321 323 323 323 323 323 324 325 325 325 325 324 324 324 324 324 325 325 325 325 326
317 319 318 318 318 317 316 316 316 316 317 316 317 316 316 317 318 317 319 320 320 320 320 320 321 323 323 322 323 323 323 325 325 325 325 325 325 325 326 326 326 325 326 327
317 315 314 317 316 317 316 316 316 316 317 318 318 316 316 317 317 317 320 321 320 320 321 320 320 321 324 323 323 322 322 324 325 325 325 326 326 326 326 326 326 325 326 326
315 314 313 315 313 321 316 312 315 316 317 316 317 317 316 316 318 318 319 319 319 320 320 321 320 320 321 323 324 324 325 326 327 327 327 328 327 327 327 327 327 327 326 325
312 311 311 311 315 314 312 316 314 317 317 315 315 315 314 317 314 314 317 317 318 319 319 320 320 320 320 323 324 326 326 327 328 328 329 329 328 329 328 326 326 326 324 323
311 311 308 313 315 314 309 312 314 316 319 316 317 316 315 314 313 313 318 318 318 319 319 319 320 319 319 321 325 326 327 328 328 329 329 328 328 326 326 326 325 323 323 322
310 311 314 312 315 313 312 313 316 318 316 316 317 317 316 314 314 319 320 319 319 319 319 319 319 319 319 320 324 327 329 329 329 330 328 325 325 326 325 324 323 321 319 315
310 312 313 314 314 313 315 315 315 314 313 314 317 317 316 317 319 320 320 319 319 319 319 319 319 319 320 321 325 327 329 329 328 326 325 324 324 322 321 319 317 314 312 310
311 309 310 311 312 311 316 313 313 313 313 314 316 316 317 318 319 318 318 318 319 320 320 319 318 318 320 324 328 329 327 326 325 323 321 319 317 315 313 312 310 308 306 306
307 309 310 312 310 312 313 314 316 314 314 314 314 316 315 318 319 319 318 319 319 319 321 321 322 323 324 326 326 325 325 323 320 318 315 312 310 308 305 304 303 301 300 299
306 310 311 310 311 312 313 312 314 314 315 315 315 314 315 315 317 318 318 317 318 319 320 321 321 323 324 323 322 320 319 317 315 312 310 307 305 304 303 301 300 300 300 299
308 309 310 310 310 309 311 310 312 314 314 315 314 313 313 314 315 315 316 317 316 317 318 318 319 319 318 316 315 314 313 312 311 308 306 305 304 303 302 300 299 297 297 297

GFSCGP_850_thetae_054.txt.gz
Theta_e
314 312 314 312 312 311 311 313 314 311 312 314 313 313 314 318 324 324 326 326 322 321 320 320 319 319 319 319 320 321 322 323 324 323 321 322 315 322 317 315 315 317 315 314
312 314 313 313 312 313 313 313 312 311 312 313 314 317 316 316 319 322 323 325 323 321 321 321 319 319 317 319 318 319 320 323 324 323 318 321 317 320 316 321 318 317 315 316
315 314 313 314 313 313 312 312 313 313 312 314 318 317 317 318 319 320 321 322 322 322 322 322 320 318 318 318 317 317 319 321 323 322 318 317 322 320 314 321 319 317 316 316
314 314 313 313 314 313 314 312 313 314 314 316 317 319 314 315 318 319 320 321 322 322 323 322 322 318 318 317 316 317 319 320 323 322 315 314 320 319 314 321 320 319 316 317
315 314 314 314 314 313 314 313 314 314 314 315 315 314 314 319 321 319 318 321 322 323 324 323 321 321 316 317 317 318 318 320 321 319 318 318 320 319 317 319 319 317 316 316
314 315 313 315 314 313 314 315 315 315 314 316 315 315 314 314 318 318 319 321 322 322 323 324 323 321 318 317 316 317 319 319 320 320 318 317 318 320 319 320 319 317 316 315
313 314 314 314 315 314 314 314 316 317 319 319 316 316 316 316 315 317 317 320 322 322 322 324 324 322 321 317 315 316 317 318 319 319 320 320 319 317 318 320 319 316 314 313
313 313 314 313 315 315 314 314 316 320 319 317 320 322 319 317 317 318 318 320 322 322 322 324 324 323 321 320 316 314 316 317 317 317 318 317 317 316 316 316 315 315 315 313
314 314 313 313 314 315 315 315 314 317 319 320 318 317 316 316 316 315 315 319 323 323 323 324 324 324 323 321 320 316 314 316 316 316 316 316 317 316 316 315 315 314 314 315
314 315 315 315 314 313 314 314 318 316 321 323 319 321 317 317 316 316 313 317 321 324 323 323 324 325 324 323 322 321 317 314 315 316 315 315 316 316 316 315 315 315 315 315
311 313 314 314 315 314 314 315 317 316 315 318 319 317 315 317 317 317 314 316 318 321 323 323 323 323 323 324 322 322 322 322 316 315 315 315 315 315 315 315 315 315 315 315
315 312 312 312 312 314 314 314 316 317 318 316 314 316 315 316 315 316 317 318 316 318 320 323 324 323 323 323 323 322 322 323 323 320 315 315 316 316 316 316 316 316 316 317
317 317 314 315 314 313 313 312 314 316 314 316 318 317 317 315 316 317 317 319 320 319 319 319 322 323 324 324 324 323 323 323 323 322 320 317 316 315 315 316 315 316 316 315
316 318 318 318 318 318 318 316 313 314 315 315 316 318 317 318 317 318 319 320 320 321 320 320 321 323 323 323 323 323 324 323 323 323 323 322 320 319 319 317 316 315 315 316
316 316 319 319 318 318 316 316 315 315 314 316 316 316 316 317 315 315 320 320 320 320 320 319 321 322 322 323 322 323 322 323 323 324 324 324 324 323 321 320 319 319 319 319
315 316 315 316 317 313 315 316 314 314 314 315 315 315 313 315 317 316 318 318 318 320 320 320 319 321 322 321 321 321 321 321 321 322 322 323 323 323 322 322 322 321 321 321
314 314 312 314 313 314 315 313 311 313 314 315 316 315 314 314 315 315 317 318 319 320 321 320 321 321 320 320 321 322 320 321 322 322 322 323 323 324 323 323 323 323 323 323
314 313 310 313 311 314 312 311 314 313 313 310 311 315 314 315 318 319 318 317 317 319 320 319 319 321 320 320 320 322 322 321 322 323 323 324 324 325 324 324 324 324 324 324
312 311 309 309 311 312 311 314 315 313 312 309 313 317 316 315 314 313 319 318 317 317 317 317 318 319 320 320 320 319 323 322 323 323 324 324 325 326 326 325 325 325 326 323
309 309 310 311 310 310 307 309 313 313 312 314 314 315 315 314 311 313 317 316 318 318 318 318 318 318 318 320 320 319 322 324 324 324 325 327 328 327 326 325 325 323 322 321
310 312 314 312 313 309 309 312 314 315 308 312 314 314 315 314 313 317 317 318 318 319 319 318 318 318 318 318 318 318 322 325 326 327 328 328 328 325 325 323 322 321 321 321
310 310 308 312 314 310 312 314 314 312 313 313 313 312 313 315 315 317 317 317 318 318 318 318 318 318 317 318 319 321 324 326 327 327 327 327 326 322 322 322 321 320 318 317
309 307 308 309 309 309 315 314 313 313 313 313 312 313 314 314 315 316 316 317 318 318 319 320 320 320 321 323 325 326 327 327 327 327 327 325 323 322 321 318 316 314 312 311
306 307 309 309 309 309 311 312 311 311 312 313 314 313 314 315 315 314 315 316 317 317 318 320 322 322 322 323 324 325 326 326 325 325 323 322 320 318 314 311 310 310 309 308
303 307 308 307 309 309 311 310 308 310 312 313 314 314 313 313 313 311 314 314 315 316 317 318 320 320 321 321 323 324 323 322 321 319 318 316 313 310 308 306 303 302 302 301
307 307 307 305 308 308 308 308 307 307 307 308 307 310 308 309 310 311 312 313 313 314 315 315 318 318 317 316 317 316 316 315 315 314 311 309 307 306 304 303 302 300 299 299

GFSCGP_850_thetae_057.txt.gz
Theta_e
314 316 316 314 316 314 314 314 315 314 314 315 316 316 318 316 323 326 326 326 325 323 321 319 319 319 320 322 323 324 324 323 325 324 321 318 316 316 317 316 317 317 319 316
314 317 316 314 314 315 314 315 316 315 313 314 317 318 319 318 321 322 324 326 325 323 321 321 319 319 319 319 320 321 322 323 323 323 322 317 316 316 318 318 317 320 319 316
316 315 315 314 314 315 316 316 316 316 314 315 317 319 319 318 319 320 321 323 324 324 322 321 321 318 319 318 318 318 321 322 323 324 322 322 321 319 317 318 321 321 319 316
315 314 314 314 315 315 316 314 315 314 315 316 317 320 319 319 319 319 320 321 322 322 322 322 321 319 318 317 317 317 319 321 322 323 322 321 320 316 316 321 319 317 316 317
315 315 314 314 315 314 316 315 315 315 316 317 317 319 319 317 320 320 321 321 321 321 321 322 323 321 317 317 317 317 318 320 320 321 323 321 321 317 320 320 315 316 317 316
313 314 315 315 314 314 315 315 316 316 317 320 319 319 320 319 319 320 319 320 320 320 322 322 323 322 320 317 316 317 319 321 320 322 323 320 321 318 321 319 314 319 319 317
315 315 314 314 315 314 315 317 318 320 322 322 317 318 320 319 318 318 320 320 319 320 321 322 323 323 321 318 316 317 318 320 321 322 323 321 319 317 320 318 315 318 319 318
315 315 316 315 316 316 316 317 320 322 322 321 320 322 320 320 319 318 318 318 319 320 321 322 323 323 322 320 316 315 317 320 320 320 320 320 319 317 317 320 316 316 319 317
314 314 313 314 315 317 316 317 317 319 320 322 321 320 319 319 319 319 318 317 318 319 321 322 322 323 323 322 320 315 315 317 318 319 320 320 319 318 318 319 320 317 319 319
315 316 315 314 314 315 317 316 319 318 320 322 320 321 321 320 320 318 320 316 318 320 322 322 322 323 323 323 322 320 316 314 316 317 317 318 319 319 319 319 318 317 318 319
313 314 314 315 315 316 316 317 318 318 319 322 321 321 320 321 320 320 320 318 317 317 319 322 323 323 323 324 323 322 320 318 315 315 316 315 316 317 318 318 317 317 317 319
316 313 314 314 313 314 315 316 318 320 319 319 320 321 317 319 320 319 319 319 320 318 318 321 321 322 323 323 324 324 322 321 321 318 315 315 315 315 315 316 316 316 316 316
318 318 317 316 315 314 315 314 316 317 316 319 323 321 317 318 318 319 318 319 320 320 319 319 320 321 322 322 323 323 323 323 322 321 319 317 315 315 315 315 319 315 315 315
316 318 318 319 318 319 320 319 318 316 318 317 319 318 319 319 320 320 319 320 320 320 320 320 320 320 320 321 322 322 323 323 323 322 321 321 320 319 316 315 315 315 315 315
317 317 317 319 318 318 316 317 317 317 316 317 317 317 317 318 318 319 318 317 318 319 320 320 320 320 320 321 322 322 322 322 323 323 322 322 323 323 320 317 316 316 316 316
308 318 316 315 315 315 314 315 312 315 315 315 316 317 315 315 315 315 317 317 317 318 319 319 320 320 319 320 321 321 322 321 322 322 322 323 323 322 323 323 321 319 318 317
308 314 314 313 314 313 313 315 313 315 314 315 315 312 312 318 317 315 315 317 318 320 319 319 319 319 321 320 320 320 320 321 321 320 321 321 322 322 322 322 322 321 321 320
307 312 311 314 312 311 311 313 313 316 315 312 311 310 317 317 316 317 316 314 314 316 316 317 318 318 318 319 320 320 320 320 321 321 321 321 321 321 322 322 322 322 322 322
308 311 313 314 314 312 311 311 315 315 312 313 316 317 316 316 315 318 317 316 316 317 316 316 317 318 318 317 319 319 319 319 320 322 321 321 322 322 323 323 323 323 323 323
310 311 314 312 314 313 310 309 313 312 311 314 315 315 315 316 320 318 315 317 316 316 317 318 318 318 318 317 317 318 318 318 319 321 322 322 323 323 324 324 324 324 324 323
311 311 313 313 314 313 310 310 312 312 311 312 313 314 313 315 316 315 314 314 315 316 317 317 318 318 318 317 317 317 317 318 319 321 322 322 323 324 324 325 324 323 323 322
310 311 312 313 313 313 309 314 315 313 312 312 312 312 312 313 313 314 314 314 314 315 317 319 319 318 318 318 318 318 319 321 323 324 325 325 325 324 324 323 321 321 320 319
312 311 312 312 312 309 312 312 309 309 310 311 312 313 313 314 314 314 312 313 313 313 316 318 319 321 322 323 323 323 323 323 324 325 325 325 323 323 321 320 319 318 316 313
308 307 311 310 310 310 310 309 308 308 306 306 308 311 312 309 308 309 309 312 313 312 312 315 316 321 321 321 322 323 323 323 323 324 322 321 319 319 318 315 313 311 309 308
307 308 310 310 309 309 309 306 307 307 306 305 305 306 308 308 306 304 307 308 313 311 310 311 314 313 318 319 319 318 318 319 320 319 317 316 316 314 312 309 306 305 304 304
307 308 311 310 308 307 307 305 307 306 305 304 300 298 306 307 306 303 303 300 303 306 306 304 305 309 307 313 314 315 313 312 316 315 312 311 309 306 304 304 302 300 300 299

GFSCGP_850_thetae_060.txt.gz
Theta_e
316 317 317 316 318 317 317 317 318 318 318 319 320 320 321 321 322 325 327 328 328 328 326 323 322 323 323 323 323 325 325 325 325 322 319 317 317 319 317 316 320 317 318 317
318 319 317 317 317 317 316 317 317 318 318 317 317 318 320 322 322 323 326 328 328 328 326 324 323 323 322 323 322 323 324 324 324 324 321 318 316 318 318 318 318 317 318 317
318 316 317 317 316 317 317 316 317 317 317 317 317 319 321 321 322 322 323 325 327 328 327 325 323 322 322 321 321 321 323 323 323 323 324 318 317 319 319 318 316 317 317 317
313 314 316 318 317 316 317 316 317 318 318 317 318 319 321 321 322 321 321 325 326 327 327 326 324 323 322 322 320 321 320 322 322 324 323 322 320 318 318 319 317 316 317 320
315 314 314 316 317 317 317 317 317 318 319 318 317 319 320 321 321 322 321 321 325 326 327 326 325 323 322 321 320 319 319 321 322 322 323 323 321 319 317 316 317 319 317 317
315 315 315 315 315 316 316 317 318 318 318 320 318 320 320 321 321 320 320 320 323 325 326 326 325 324 322 321 321 319 320 320 322 322 323 322 322 320 317 317 319 319 317 319
314 315 316 316 315 316 317 318 319 319 321 321 320 321 321 322 322 321 321 321 323 324 325 326 325 324 323 321 320 319 319 320 320 322 323 323 322 322 321 319 318 317 321 320
312 315 315 317 317 317 317 318 320 321 322 322 321 322 322 322 322 322 322 322 323 324 325 326 326 325 324 322 320 317 318 320 319 321 322 323 322 321 322 320 317 318 320 317
313 314 315 316 317 317 318 319 318 319 322 324 323 322 322 321 321 322 321 321 322 322 325 326 326 326 325 323 319 316 318 321 319 320 322 322 322 320 320 320 317 318 319 316
314 314 314 316 317 318 319 319 319 320 321 323 322 322 322 321 322 321 323 323 321 323 324 326 326 326 326 324 321 318 317 320 322 321 320 321 321 322 322 321 319 319 319 316
312 316 317 316 318 319 319 320 320 320 320 321 322 322 322 322 323 323 323 323 323 321 325 326 326 326 326 325 323 321 318 320 321 321 321 321 321 321 322 321 320 320 320 319
311 314 316 317 316 316 318 318 319 320 321 321 322 322 321 321 322 322 323 322 323 322 322 324 326 327 326 326 325 323 321 320 319 320 321 321 321 321 320 320 320 320 321 320
318 314 313 312 314 315 317 317 317 319 320 322 324 321 320 320 320 321 321 322 322 322 321 324 324 326 326 326 325 324 323 322 321 320 319 319 318 319 318 318 319 320 320 320
317 319 314 315 315 318 319 318 319 318 320 319 319 319 319 319 319 320 320 320 321 321 321 321 323 323 325 326 325 325 324 323 322 321 320 319 317 316 315 316 317 317 318 319
315 318 318 318 317 318 318 319 318 320 319 320 319 318 318 319 318 319 319 319 319 320 321 321 320 321 323 324 325 325 324 324 323 322 321 321 321 319 317 317 316 316 316 316
310 314 314 314 315 316 315 315 316 316 319 319 319 319 318 316 317 319 319 320 319 318 319 320 321 320 320 322 323 324 322 322 322 322 322 322 321 321 321 320 318 317 316 316
309 314 313 312 314 314 313 314 315 318 318 319 320 319 315 314 318 320 320 319 318 318 318 317 317 318 318 320 320 323 324 324 322 322 321 322 322 322 321 321 320 320 320 319
308 314 315 313 315 312 313 316 316 318 318 317 315 314 316 318 318 319 318 319 319 319 319 319 319 317 317 318 318 319 322 324 321 321 322 322 322 322 322 321 321 321 321 321
308 311 315 314 313 311 311 313 314 317 315 315 315 315 316 316 318 319 318 317 317 317 318 318 318 318 317 317 317 317 318 321 324 324 323 324 323 322 322 321 321 321 321 321
308 310 313 315 313 313 311 313 314 313 312 314 313 314 315 315 320 320 317 316 315 316 317 318 319 320 320 318 317 316 317 320 322 323 324 324 324 323 323 322 322 322 321 322
310 311 312 313 314 313 312 312 314 312 315 314 313 313 314 316 316 316 316 315 314 314 315 316 318 318 318 317 318 318 320 320 321 322 323 323 323 323 323 323 323 323 323 323
311 311 312 312 313 313 312 313 313 315 314 314 314 315 315 314 315 314 313 313 312 312 312 313 315 312 318 319 318 321 320 318 319 319 320 321 322 322 322 323 324 324 322 322
312 311 312 312 312 314 314 313 312 312 312 310 310 310 310 312 311 310 311 308 308 310 306 308 312 316 315 315 318 318 318 321 322 322 323 323 323 323 323 321 321 320 319 319
310 311 313 312 311 312 313 312 310 309 308 307 306 305 305 306 306 307 305 304 303 311 308 301 312 316 314 309 310 315 317 318 318 320 320 319 318 317 317 316 314 314 314 311
310 311 310 310 310 312 310 308 307 308 307 305 304 302 301 301 302 302 301 301 304 306 306 301 304 313 311 307 306 310 312 315 317 316 315 314 313 314 313 309 305 304 304 305
309 309 311 310 310 310 310 306 304 306 304 301 300 299 298 296 297 297 298 294 301 309 302 299 300 303 307 302 303 304 306 309 313 311 309 308 306 304 305 304 301 298 299 299

GFSCGP_850_thetae_063.txt.gz
Theta_e
311 315 319 318 318 318 319 321 321 322 321 320 321 321 323 323 323 324 325 326 328 329 329 328 325 325 327 327 325 327 327 324 325 324 322 320 321 320 319 313 317 319 319 317
313 315 316 317 317 318 319 320 320 321 320 319 320 319 321 322 322 323 324 325 327 329 329 328 325 326 327 327 326 324 326 326 326 325 322 320 320 321 319 316 319 318 315 315
314 316 317 316 318 318 320 320 320 320 320 320 320 319 319 321 322 322 322 323 325 327 329 328 326 325 326 326 325 325 324 325 325 324 321 320 319 320 318 317 316 317 319 319
317 315 317 317 318 319 320 320 319 319 320 321 322 321 321 321 322 323 323 322 323 325 328 329 327 326 326 325 325 325 322 324 323 322 323 321 319 319 318 317 316 316 318 318
318 316 314 317 318 319 320 319 319 319 320 321 322 320 320 322 323 323 323 322 323 325 327 329 328 327 325 326 325 323 323 322 323 323 322 323 319 319 320 317 318 320 316 317
312 313 316 316 315 317 318 319 319 319 321 324 323 322 322 323 323 323 321 322 321 325 326 328 328 328 325 325 325 324 323 322 322 323 322 323 322 319 319 319 318 318 317 318
314 313 314 317 315 316 317 319 321 322 324 324 323 323 323 323 323 323 323 321 322 323 325 327 328 328 325 325 325 324 323 323 322 324 323 323 322 322 318 318 318 318 316 318
314 314 315 316 317 316 317 319 321 324 326 324 323 323 324 324 323 322 322 322 322 325 325 327 328 328 326 325 325 324 323 323 324 321 321 322 324 322 321 320 319 318 317 316
314 313 314 315 317 317 318 320 319 320 325 327 324 323 324 324 322 323 322 322 322 322 325 327 328 329 328 326 325 324 323 323 322 324 322 323 322 323 322 321 320 318 317 318
314 314 314 316 316 317 317 319 320 321 323 325 324 326 324 322 322 323 323 324 324 323 323 326 327 328 328 327 325 324 323 324 323 323 323 321 322 323 323 322 321 321 319 320
313 315 315 316 317 318 318 320 321 320 321 323 325 325 324 323 324 324 324 323 324 324 325 326 327 328 329 328 326 325 324 323 324 324 322 321 323 322 323 322 322 321 321 319
314 314 315 319 316 318 319 320 321 323 325 323 325 324 322 322 321 322 323 323 323 323 323 327 328 328 329 329 328 326 325 323 323 325 325 324 323 322 322 323 323 322 322 321
316 313 316 317 319 317 318 320 321 321 322 325 328 324 322 321 320 320 321 322 323 323 323 326 328 328 329 329 329 328 327 325 323 324 325 324 324 325 324 323 322 323 322 322
312 319 315 314 316 316 317 318 319 319 322 323 324 324 322 321 319 319 320 321 321 322 322 323 325 327 328 328 329 329 328 327 325 324 324 324 324 323 323 323 323 323 323 322
312 319 320 317 318 319 317 317 317 319 319 321 321 321 320 320 320 319 319 320 321 321 321 322 322 323 324 326 328 328 328 328 327 325 324 324 324 324 324 324 323 322 322 322
311 314 317 318 317 318 319 319 319 319 319 320 320 320 320 320 317 318 320 320 321 321 321 321 321 321 321 321 323 326 328 328 328 327 325 325 324 324 324 323 323 323 322 321
310 311 315 317 314 314 317 317 317 317 318 319 319 320 319 317 317 318 319 320 321 320 320 320 320 321 321 320 320 322 324 327 327 327 327 326 325 324 324 323 324 323 322 322
310 311 312 315 314 317 315 315 317 317 319 318 318 317 317 317 317 317 320 319 319 318 319 320 321 321 322 321 320 320 320 323 327 327 327 326 326 325 324 324 323 323 323 322
310 311 314 315 314 313 312 312 316 318 318 317 316 315 315 315 315 318 319 318 317 317 317 318 319 321 322 322 322 321 319 319 322 326 327 327 326 325 325 324 324 323 323 322
310 310 313 314 314 314 313 314 315 317 318 315 315 315 315 315 317 320 318 317 316 316 316 316 317 317 313 315 316 320 322 320 320 321 324 326 327 326 325 324 324 324 323 323
311 311 312 313 314 313 313 313 314 315 317 315 315 316 315 316 317 316 316 316 315 314 313 312 314 315 317 316 317 320 323 323 323 323 323 324 326 326 326 325 325 324 324 323
311 311 312 312 312 313 313 312 315 316 315 314 315 314 315 315 316 315 314 312 310 309 308 308 309 309 316 316 313 314 314 317 320 321 322 323 324 325 325 325 324 324 323 323
311 310 312 310 311 315 315 315 314 314 313 312 312 311 311 312 311 312 311 309 307 306 305 303 304 311 311 314 311 310 309 310 315 319 319 320 322 323 323 323 323 323 322 320
312 311 313 312 314 314 314 313 312 312 311 310 309 309 308 308 309 308 308 306 304 303 302 299 303 309 308 306 309 308 307 305 307 310 312 313 314 315 316 315 315 315 311 310
311 312 312 312 313 314 312 311 310 310 309 307 307 305 304 303 304 302 302 299 297 297 296 295 294 299 303 302 300 303 308 300 302 304 304 306 307 306 306 304 303 305 304 303
311 311 311 312 313 313 310 309 307 308 306 303 303 302 301 299 299 297 295 291 291 292 291 292 290 296 297 298 299 299 302 301 297 297 298 298 298 301 300 299 297 296 296 295

GFSCGP_850_thetae_066.txt.gz
Theta_e
313 313 311 317 318 319 318 319 319 320 322 322 322 321 321 323 323 325 325 325 325 328 329 330 327 326 328 329 328 328 327 327 325 325 325 322 323 324 323 322 321 318 321 315
315 315 314 315 317 317 317 319 320 321 322 321 321 321 321 322 323 323 324 325 326 327 330 330 327 326 328 329 326 325 325 324 325 325 323 321 323 323 322 321 320 318 316 316
317 315 313 315 317 318 319 319 320 320 321 321 320 320 321 321 321 322 322 323 324 326 329 330 328 326 327 329 328 326 324 324 325 325 323 321 322 322 321 320 317 315 315 316
318 318 315 316 319 317 318 318 318 320 321 321 321 322 323 323 321 322 322 323 323 323 328 330 329 327 327 328 328 325 323 324 325 326 323 321 321 321 320 319 317 316 316 315
319 318 315 317 318 318 318 320 320 321 320 321 320 322 322 322 321 322 323 323 323 323 325 330 329 328 327 327 328 325 324 324 322 324 323 322 320 321 320 316 317 318 318 317
315 313 315 316 316 318 318 319 320 321 321 322 321 322 323 324 323 323 324 323 322 323 324 328 330 329 327 327 327 325 326 323 323 322 323 322 320 320 320 315 317 319 319 316
313 314 314 314 315 316 316 319 321 323 324 324 321 322 325 324 323 323 323 322 322 323 325 326 330 329 328 326 327 325 325 323 322 324 322 322 322 320 320 320 317 317 318 318
316 318 316 315 316 318 316 317 322 328 328 323 322 323 324 324 324 323 322 322 322 323 325 326 329 329 328 326 326 326 325 323 323 321 323 322 323 323 320 320 319 317 316 317
314 316 315 316 316 318 317 318 318 321 322 325 327 323 324 324 323 322 323 322 322 324 325 325 327 329 329 326 326 326 325 324 322 324 323 324 321 323 321 321 320 319 318 318
312 313 314 314 315 316 318 317 320 320 325 327 327 325 325 325 324 323 323 324 324 324 324 326 327 329 329 327 326 326 325 324 324 322 322 323 324 323 322 323 322 320 319 319
314 314 315 316 315 318 318 319 319 320 321 326 328 327 327 325 325 325 325 323 324 324 325 326 327 329 330 328 326 326 325 324 324 324 322 324 324 323 322 322 322 322 321 321
316 315 315 315 316 317 317 319 319 323 323 323 325 327 324 323 322 323 324 324 324 324 324 326 327 328 330 329 328 326 325 325 324 324 324 322 324 324 325 322 323 321 322 322
310 315 315 314 317 317 319 318 319 321 323 327 329 324 323 322 321 320 322 322 322 322 323 325 328 328 330 330 330 328 327 325 324 325 325 324 322 323 324 323 323 323 323 323
309 314 318 316 315 319 319 318 319 322 324 325 326 326 323 322 322 321 320 320 321 321 322 322 323 328 329 330 330 330 329 328 326 324 325 326 325 323 321 322 324 324 323 324
311 316 317 317 319 317 316 317 319 322 323 324 324 323 323 323 321 319 320 321 322 322 322 322 322 322 322 326 329 329 330 330 328 327 324 325 326 326 325 325 324 323 323 324
310 316 314 317 318 318 318 318 318 320 320 318 319 321 320 321 320 320 320 322 321 321 321 321 322 322 322 322 322 320 327 329 329 329 328 326 325 325 325 325 326 326 326 325
311 311 313 317 317 317 319 318 319 319 320 320 322 321 319 320 318 318 321 320 319 319 319 320 320 322 323 323 323 322 321 320 328 328 328 328 327 325 325 326 325 324 325 325
310 310 312 316 315 318 316 317 317 317 317 317 319 319 318 318 317 320 319 318 318 318 317 317 318 320 319 319 321 323 322 321 320 323 328 328 328 327 326 326 325 325 325 325
309 310 313 318 317 317 314 314 315 318 319 318 319 317 316 316 318 319 319 317 317 316 315 315 316 315 315 317 319 321 319 322 323 321 322 328 328 328 327 327 326 326 325 325
309 311 312 314 317 316 314 314 314 316 319 315 315 316 316 315 320 319 317 315 314 312 311 311 311 310 313 315 317 318 320 322 322 321 321 321 325 328 327 327 327 326 326 325
311 312 312 313 315 315 313 314 314 317 318 316 316 317 317 318 317 315 314 312 310 309 307 307 307 308 310 312 313 315 316 318 318 319 319 322 322 326 328 327 326 326 326 326
311 312 313 312 313 314 313 313 315 317 314 314 314 314 314 314 313 313 311 310 308 306 304 303 302 302 304 305 308 309 310 310 314 315 315 317 320 321 324 326 327 326 326 325
312 311 312 311 311 315 315 316 314 314 313 313 313 312 312 312 311 310 309 306 304 302 300 299 298 298 303 302 302 303 303 303 307 314 312 310 311 315 319 321 322 323 323 322
311 312 312 312 310 315 314 313 313 312 311 310 309 308 307 308 306 306 302 299 297 296 296 296 297 298 299 299 300 301 302 301 301 306 309 301 300 302 307 311 312 311 312 310
311 312 313 313 314 314 312 311 311 309 307 307 306 304 303 304 301 300 296 293 293 294 294 294 294 294 294 296 296 298 299 299 299 300 302 303 294 290 293 296 298 299 297 296
311 313 314 315 311 310 309 307 307 305 303 303 302 302 300 299 297 295 292 290 290 290 290 291 290 290 289 291 292 295 296 296 296 297 296 297 299 293 293 292 289 289 292 293

GFSCGP_850_thetae_069.txt.gz
Theta_e
313 311 310 311 313 316 317 318 317 316 317 318 319 319 316 319 319 320 323 324 324 329 330 331 330 329 325 327 327 326 325 326 325 323 323 324 324 325 326 325 324 322 322 319
315 313 313 314 315 313 317 317 316 317 318 319 319 319 316 317 317 319 322 323 324 328 331 331 329 328 326 325 328 326 326 324 323 324 324 324 323 321 322 323 324 322 320 319
316 316 315 315 315 315 316 317 317 318 319 318 318 318 318 319 318 319 320 324 324 327 330 330 329 327 327 325 328 327 325 324 323 324 324 323 321 322 324 324 323 322 319 322
318 317 316 314 314 314 318 318 318 318 318 318 319 320 317 318 319 319 318 320 324 326 329 329 328 327 327 326 327 327 324 323 323 324 324 323 322 323 323 323 323 321 320 322
317 318 318 318 316 315 318 319 318 319 320 320 320 317 317 318 320 319 317 318 323 325 329 329 329 328 327 325 326 328 326 322 323 323 324 323 321 323 323 322 321 320 322 318
316 315 316 316 315 316 316 319 320 320 320 322 321 318 317 318 320 321 319 319 322 322 329 329 329 328 327 326 326 327 327 322 322 323 323 323 321 322 321 321 321 318 318 317
314 315 314 315 316 316 317 319 324 324 321 321 320 320 319 319 321 322 320 319 322 322 328 329 329 328 327 327 326 327 327 323 321 324 323 322 322 321 321 321 320 317 317 316
314 316 314 314 314 315 316 319 323 327 327 324 322 321 320 320 320 322 321 321 321 323 329 330 329 329 328 327 327 326 325 324 323 320 323 323 322 321 321 321 320 318 317 315
312 315 314 315 315 316 318 318 317 320 320 323 324 322 320 320 321 320 320 321 323 324 328 329 329 329 328 328 327 326 325 323 322 321 323 322 321 321 321 321 321 320 317 317
311 313 313 316 315 316 318 317 319 319 325 327 325 326 322 323 322 321 320 319 322 325 325 329 329 329 329 328 327 326 324 322 323 322 321 323 321 322 322 322 321 321 318 317
312 314 313 314 316 316 317 319 319 320 321 325 328 328 323 320 321 322 321 321 322 322 324 325 329 329 329 328 327 326 325 324 324 322 321 322 323 322 321 321 321 321 321 319
311 313 316 314 315 316 317 318 319 323 325 322 320 323 321 319 319 319 319 320 321 322 322 325 327 329 329 328 327 326 326 325 324 323 324 322 323 323 322 321 320 321 321 321
310 313 317 315 315 316 316 317 318 319 320 325 327 323 322 321 320 319 319 320 322 321 321 322 327 329 329 328 328 327 326 326 325 324 324 324 323 321 323 322 321 320 321 321
310 312 315 317 318 318 317 319 319 320 323 324 325 326 324 323 323 318 320 321 321 321 322 322 322 324 326 327 327 327 327 327 327 326 324 324 324 324 322 320 322 321 322 322
312 313 314 315 313 316 318 317 318 320 320 325 324 324 323 323 322 320 320 320 320 321 321 321 322 322 322 322 324 325 326 326 327 327 326 326 325 325 325 324 321 322 324 323
311 313 313 313 316 316 319 319 317 319 321 322 322 322 320 322 320 320 319 318 318 319 318 319 319 318 318 319 321 322 322 322 325 326 326 327 326 325 325 325 325 324 322 322
311 311 312 314 315 315 317 318 318 319 320 320 322 322 321 320 320 318 317 317 317 317 317 318 318 316 315 317 318 319 319 321 321 322 326 326 325 326 326 325 325 326 325 324
310 310 311 312 314 318 317 315 318 318 319 318 320 320 320 320 319 317 316 314 313 313 314 314 314 313 314 315 316 318 319 320 320 321 321 324 326 326 325 325 325 325 326 326
307 308 308 311 315 316 315 314 314 319 318 317 318 317 320 319 317 314 312 311 310 310 309 310 310 310 312 313 314 316 317 319 320 321 321 321 320 322 324 325 326 326 326 326
307 307 307 310 312 318 315 314 314 317 319 315 317 318 319 317 317 313 310 308 308 307 306 307 307 308 309 310 310 312 313 316 317 317 318 319 319 320 321 323 327 326 326 326
307 307 309 308 311 313 313 314 314 318 318 315 315 315 314 314 312 309 307 305 304 303 302 301 304 305 305 306 307 307 307 309 309 311 312 314 316 317 319 321 323 325 325 326
310 308 309 309 310 311 313 314 317 315 313 313 312 313 311 311 308 306 304 303 301 299 299 299 300 300 300 301 303 303 303 302 303 305 307 310 310 312 314 316 319 320 321 322
312 308 308 309 308 313 314 314 314 313 311 309 309 309 308 306 304 304 301 299 298 298 298 298 298 298 299 300 301 300 300 300 301 302 303 303 303 305 309 313 315 313 309 309
310 310 310 311 308 313 312 311 309 308 307 306 305 305 305 302 301 298 296 295 295 296 297 297 298 298 298 298 299 298 298 298 298 298 298 298 299 299 300 303 306 303 299 297
308 308 311 312 312 310 310 306 306 305 305 303 302 302 301 301 298 297 295 293 292 292 292 293 294 294 294 294 296 296 296 295 296 296 296 295 295 294 294 295 294 296 298 295
305 309 310 311 307 305 305 303 303 303 302 301 300 299 297 298 296 294 293 291 291 290 289 291 290 290 289 290 291 292 294 294 293 293 292 292 292 291 290 288 288 288 288 290

GFSCGP_850_thetae_072.txt.gz
Theta_e
311 309 308 308 309 313 314 315 316 315 316 316 316 316 317 317 317 314 316 320 320 326 328 329 329 328 328 327 323 322 325 326 325 325 324 324 326 326 326 326 327 326 324 325
313 312 310 311 313 314 314 315 315 316 316 316 315 316 316 316 316 316 318 320 322 327 329 330 329 329 328 327 324 323 324 326 326 324 323 326 323 324 325 325 326 326 325 325
313 315 313 314 314 315 314 315 316 318 317 315 315 316 316 317 316 317 318 322 322 325 329 330 329 329 328 327 325 325 323 322 323 324 323 323 325 323 323 324 326 326 325 323
316 315 316 314 315 315 315 315 318 319 319 317 317 319 317 318 316 316 316 318 320 323 327 330 330 329 328 328 326 325 326 323 323 323 323 323 322 323 323 324 325 325 324 321
315 317 317 318 315 313 315 316 318 319 319 319 319 318 318 317 317 317 316 317 318 322 325 329 330 329 328 327 327 325 326 323 321 322 322 323 323 321 324 322 322 323 323 322
314 315 315 316 317 316 314 318 319 319 319 320 319 320 319 317 317 318 318 320 317 322 326 327 329 329 327 327 327 326 325 325 322 322 322 322 324 321 321 322 322 323 323 323
314 315 313 315 316 315 316 319 323 323 323 320 319 320 320 318 318 318 318 319 318 320 327 327 328 328 327 327 326 325 326 326 323 321 321 322 323 322 321 322 322 322 322 322
309 312 314 314 315 317 317 319 323 324 324 323 322 320 319 319 319 319 320 320 317 325 327 327 328 328 328 327 326 326 325 325 323 320 321 322 322 322 322 322 322 322 322 322
309 313 312 313 314 314 316 319 318 321 320 322 322 321 320 320 320 319 318 319 318 324 326 327 328 328 328 327 327 326 325 324 323 321 321 322 321 321 322 321 321 322 321 321
309 311 311 315 315 316 317 317 319 320 323 325 323 323 326 322 322 320 320 319 320 325 326 327 328 328 328 328 327 327 325 323 322 321 320 321 321 321 321 321 321 321 321 320
312 312 312 314 316 317 319 320 319 319 321 326 327 329 322 321 319 319 319 320 321 322 326 327 327 328 328 328 327 327 326 325 323 321 320 320 322 321 320 320 321 321 320 320
310 312 315 314 315 315 316 318 318 324 322 320 321 324 320 322 322 319 320 320 321 323 323 326 327 325 326 327 328 327 326 326 324 321 321 320 319 322 320 321 320 321 321 321
309 313 315 314 315 315 316 317 318 318 319 324 325 323 321 322 322 320 320 321 321 322 323 325 326 325 325 326 326 325 326 326 325 324 322 322 322 320 320 321 320 320 320 320
309 310 314 316 317 316 320 317 317 319 322 320 322 324 323 322 323 321 319 320 320 321 320 320 322 323 324 325 325 325 325 325 325 325 324 324 323 322 322 321 320 320 319 319
309 310 313 314 313 313 317 318 318 320 319 322 321 323 323 323 323 321 318 318 320 318 315 314 315 318 320 322 323 324 325 325 325 324 324 324 324 324 324 323 322 321 320 320
309 310 311 312 314 314 314 316 318 317 319 319 320 321 320 322 321 319 318 317 317 315 314 312 312 314 316 317 319 320 322 322 324 325 324 324 324 324 324 324 325 324 323 322
310 310 309 311 311 312 316 316 318 318 318 319 322 321 320 321 320 318 315 315 313 311 308 308 309 311 312 313 315 317 318 319 320 321 323 324 323 323 324 324 324 324 324 324
308 309 309 310 311 315 314 310 313 317 319 319 319 319 320 315 313 312 310 310 309 310 309 307 307 308 309 310 311 313 314 316 317 318 319 319 320 321 321 323 323 323 324 325
306 307 305 308 310 309 309 314 316 319 319 317 318 320 316 312 310 307 306 306 306 305 305 305 306 307 309 309 309 310 310 311 312 313 314 315 317 318 319 320 322 323 324 324
305 305 305 308 309 311 314 313 315 316 320 316 319 318 316 314 312 307 302 303 301 301 302 303 305 307 308 309 309 310 309 309 309 308 309 310 311 311 314 316 318 320 322 323
305 305 307 307 307 308 310 313 313 318 318 316 318 318 314 311 307 301 300 300 301 301 302 303 304 304 303 304 305 307 307 308 305 306 306 307 308 308 308 310 312 314 318 319
307 308 305 305 307 308 308 314 313 315 313 313 312 309 305 303 301 299 298 298 300 301 299 297 297 297 298 300 302 302 303 302 302 303 303 304 304 304 305 307 307 309 312 312
309 309 308 306 306 310 312 313 313 310 308 308 307 306 304 301 297 296 296 296 294 295 295 296 297 297 298 298 300 300 300 301 301 301 301 301 301 300 302 304 303 302 301 302
309 308 310 310 308 309 308 306 305 305 304 305 304 305 303 298 296 296 296 294 293 293 293 293 294 294 293 293 294 293 294 295 297 298 298 298 299 299 299 298 297 296 296 295
306 306 310 310 308 305 304 303 303 301 302 301 300 300 300 300 295 295 292 291 290 289 289 290 290 290 289 291 292 293 292 293 294 294 294 294 294 294 294 293 292 291 290 291
301 303 307 308 302 304 303 302 300 300 299 298 298 297 295 296 294 292 290 289 289 288 288 289 289 289 289 289 290 290 291 292 292 292 291 290 290 290 290 289 288 288 288 287

GFSCGP_850_thetae_075.txt.gz
Theta_e
310 307 307 306 307 311 312 313 313 312 313 315 314 314 313 313 314 313 316 317 315 316 319 327 328 328 328 328 327 324 319 322 324 327 326 325 324 326 326 327 327 325 325 326
310 310 308 308 308 310 312 313 313 314 314 317 313 313 314 314 313 315 315 316 315 316 321 326 328 328 328 327 327 324 320 321 323 326 324 325 325 328 327 328 326 323 324 322
309 311 313 311 311 313 313 313 314 315 316 316 315 316 315 314 315 317 318 315 316 318 321 326 328 328 328 328 327 325 321 320 322 324 323 324 324 326 326 327 327 327 326 325
312 312 314 313 314 314 315 313 314 318 319 318 314 318 316 315 315 315 315 315 317 319 322 324 328 328 328 328 328 326 323 321 322 322 323 323 324 323 325 325 325 326 326 325
314 315 316 316 315 314 315 314 317 318 319 318 318 317 316 316 317 317 315 317 317 320 322 325 327 328 328 328 328 327 325 323 321 321 323 322 323 323 321 323 323 325 326 326
313 314 314 314 315 314 314 317 318 317 319 323 318 317 317 316 317 317 316 317 318 318 320 324 327 328 328 328 328 327 326 324 322 321 322 322 322 322 323 323 323 324 324 326
313 314 312 314 315 315 316 318 321 322 322 322 317 318 317 316 317 318 318 318 319 318 319 325 326 328 328 328 328 327 326 325 323 320 320 321 322 322 322 323 320 322 324 324
309 307 313 313 313 316 316 317 321 322 322 319 319 320 318 318 318 319 319 320 319 318 318 323 325 326 328 329 328 327 326 324 324 322 320 321 321 322 322 321 322 321 323 322
307 309 312 313 313 314 318 318 316 321 320 320 319 320 319 320 319 318 319 317 318 317 319 324 325 326 327 328 328 327 326 324 324 323 319 321 321 322 322 322 321 323 322 321
307 310 309 313 313 314 316 316 319 321 322 323 321 322 324 322 322 319 319 319 319 321 325 324 325 326 327 328 327 327 326 325 324 323 320 320 320 322 322 322 322 321 321 321
311 309 310 315 316 317 318 319 318 318 320 325 324 328 322 323 323 320 320 321 322 322 325 324 324 325 326 326 327 326 326 326 325 323 321 320 321 321 321 321 322 321 321 321
309 312 314 313 312 314 316 318 318 322 321 319 322 323 320 321 322 319 320 322 321 322 324 325 324 324 325 326 326 326 327 326 325 324 323 321 320 319 321 321 320 320 321 321
310 311 312 313 314 314 317 317 317 318 318 322 322 323 321 320 322 321 320 319 317 316 319 321 324 324 325 325 325 325 326 326 325 325 324 323 322 320 319 320 321 320 320 320
308 309 311 311 314 315 316 316 317 319 321 321 321 324 320 319 319 319 318 316 313 313 313 316 319 320 322 323 324 324 324 324 324 324 324 324 324 323 322 321 320 319 319 320
307 308 312 312 312 312 313 313 316 317 318 321 319 320 321 320 319 318 318 315 311 309 309 312 314 316 318 320 322 323 324 324 325 325 324 323 323 324 323 323 323 322 321 320
308 309 310 310 311 311 310 310 312 314 318 318 318 318 319 320 320 319 317 313 309 306 305 306 310 313 315 316 319 319 320 320 322 323 324 323 322 322 324 323 323 323 323 322
308 308 307 308 307 308 310 313 309 313 317 317 318 318 320 321 320 317 314 310 306 303 302 301 305 309 313 313 312 315 316 317 318 319 320 322 322 321 322 322 322 322 322 323
308 308 306 307 307 308 309 305 314 314 316 316 318 319 319 313 309 309 309 306 303 302 305 305 304 306 308 308 309 310 311 313 315 317 317 317 317 318 319 320 321 321 321 321
305 305 305 305 307 305 305 313 315 317 320 318 318 317 310 306 305 303 303 302 301 300 301 304 305 305 307 307 307 308 308 309 309 309 310 311 312 314 315 316 317 317 318 320
304 304 304 306 307 306 309 308 312 313 319 316 318 314 311 312 311 305 300 299 299 300 301 303 303 303 305 305 305 306 307 307 308 308 307 308 308 309 309 310 311 312 313 314
304 304 306 305 305 305 306 306 310 312 318 315 317 313 313 311 307 300 298 297 298 298 299 300 300 300 300 301 302 304 304 304 303 304 305 306 306 307 306 306 308 308 309 309
307 306 303 304 307 306 309 312 312 311 312 310 310 307 301 299 298 296 295 295 296 298 298 298 299 299 301 302 302 302 303 300 301 301 302 303 303 302 302 304 305 306 305 304
301 306 308 305 305 307 306 308 308 310 308 305 304 302 300 298 296 298 295 295 294 295 296 296 296 296 296 296 298 298 297 298 299 300 301 301 301 301 301 301 301 301 300 300
306 306 308 308 307 305 304 302 302 303 305 304 306 307 305 299 294 292 292 291 291 291 291 292 292 292 292 293 294 294 295 296 297 298 297 297 298 297 297 297 295 295 294 294
304 302 305 307 306 303 301 300 299 299 297 300 299 298 297 297 294 293 290 289 289 290 291 291 291 290 291 291 291 292 293 293 294 294 294 294 294 294 293 293 292 291 290 290
299 301 301 306 304 304 300 298 300 300 297 294 296 294 293 294 292 289 287 288 288 288 288 289 289 289 289 289 290 290 291 291 291 291 291 290 290 290 290 290 289 288 288 288

GFSCGP_850_thetae_081.txt.gz
Theta_e
307 308 309 308 307 308 308 309 310 310 311 312 312 313 314 314 315 316 315 315 316 316 317 317 318 317 317 328 330 329 330 329 324 324 325 326 326 325 325 324 325 324 324 325
310 310 309 308 307 308 309 309 309 311 312 313 313 314 314 315 315 315 316 316 316 317 317 317 318 318 318 324 330 329 330 328 325 324 324 327 327 325 325 325 325 327 326 324
311 310 309 308 309 309 310 311 312 313 313 313 314 315 314 314 315 315 315 315 315 316 316 317 318 318 317 322 328 329 329 327 325 324 324 324 323 324 324 324 325 324 326 326
311 310 310 311 313 312 314 313 313 314 315 317 316 319 316 315 315 316 316 316 317 317 317 317 318 317 317 320 327 329 329 327 325 324 323 324 323 322 323 324 325 325 324 324
310 315 314 312 312 313 315 314 315 315 316 317 316 318 317 316 317 317 317 316 317 317 317 317 318 316 317 323 328 329 328 327 325 323 322 324 321 321 323 324 325 324 325 323
310 313 314 315 314 314 314 315 315 316 316 318 316 317 318 318 318 317 317 316 317 317 317 316 316 317 320 322 327 329 328 327 325 322 322 322 321 321 323 324 325 324 323 322
312 314 314 314 314 315 315 316 317 318 319 318 316 317 318 318 322 320 321 321 321 321 315 317 319 319 320 321 326 328 327 326 325 322 321 321 322 321 322 323 323 323 324 324
311 309 313 314 313 313 316 316 317 319 321 320 318 320 320 322 320 321 321 321 321 322 321 315 320 322 322 323 325 327 327 326 325 323 321 321 322 321 321 322 322 322 322 323
310 308 311 313 313 314 316 317 316 317 318 320 319 318 322 322 321 321 321 319 319 321 322 322 317 322 324 324 326 327 327 327 326 323 321 320 321 322 321 322 321 320 320 320
308 309 310 313 313 314 317 316 320 319 319 321 320 321 323 323 322 320 319 318 317 319 322 320 320 322 324 325 326 325 327 327 326 323 321 320 320 321 321 322 320 321 319 319
308 309 312 314 315 315 317 319 317 318 320 320 320 320 322 321 319 320 316 315 315 314 320 323 323 324 324 324 325 324 326 327 326 323 322 321 320 321 321 321 321 321 320 320
310 311 311 314 313 314 315 316 316 318 319 320 318 320 321 320 318 317 313 311 312 312 314 321 323 322 323 322 322 324 328 327 325 323 322 321 320 321 320 321 320 319 320 320
310 313 314 313 315 315 315 315 316 316 316 316 320 319 320 319 316 317 312 309 308 308 309 316 320 321 322 322 322 322 326 326 324 324 323 322 321 321 321 320 320 319 319 320
308 310 310 312 311 311 313 312 312 314 315 318 316 317 317 319 319 317 311 308 306 304 304 307 312 316 319 320 321 321 320 323 324 324 324 323 323 323 321 319 319 319 319 319
307 310 311 310 310 311 311 309 308 309 311 312 311 313 314 316 319 317 310 307 304 302 301 301 304 309 314 318 319 320 321 322 322 323 323 322 323 323 322 322 321 321 321 321
308 310 309 308 308 306 305 304 304 306 308 309 311 313 314 315 318 316 309 306 303 300 298 298 300 302 308 311 313 316 319 320 322 322 321 320 321 322 321 321 321 320 320 321
308 309 308 306 306 305 304 305 305 307 312 313 314 314 314 318 319 315 309 304 303 299 297 297 297 298 301 306 308 312 315 315 319 319 318 318 319 320 320 319 319 319 320 320
307 308 307 307 305 302 304 305 306 307 311 309 312 316 316 311 307 306 304 302 299 298 296 297 298 298 301 303 304 308 312 313 316 314 316 317 316 315 316 316 317 317 317 318
305 307 307 306 306 304 306 306 306 306 305 315 316 314 309 305 303 299 298 298 300 300 299 297 298 299 300 301 303 305 303 308 310 310 311 308 310 309 308 311 311 312 312 312
304 305 306 306 305 302 303 307 309 309 309 309 310 313 308 307 310 301 296 296 297 298 298 299 301 300 298 298 302 303 303 303 304 304 303 302 304 303 303 304 305 306 307 308
306 306 307 307 306 306 307 308 309 305 310 307 304 309 312 308 301 295 294 293 294 295 295 296 299 301 300 299 300 302 300 301 299 298 300 300 300 300 301 302 303 304 304 303
306 307 307 306 306 306 305 308 309 307 307 302 300 299 296 294 293 293 292 293 295 294 293 294 295 296 295 296 299 300 300 298 299 300 300 301 299 299 299 300 301 301 301 301
306 306 307 306 306 304 302 302 300 303 303 301 298 295 295 295 293 292 291 292 291 292 292 292 292 293 293 293 293 295 294 295 296 297 297 297 297 296 296 297 297 298 297 296
305 302 308 307 307 304 302 299 297 297 297 298 297 295 294 291 291 290 290 291 291 291 290 290 291 290 290 291 292 292 292 293 294 294 294 294 295 294 295 295 294 294 293 293
301 301 300 303 303 301 297 296 295 294 296 297 296 293 291 292 290 290 289 290 289 289 289 289 289 289 289 290 290 291 291 292 293 293 292 292 293 293 293 293 292 291 290 290
298 300 300 302 297 297 294 293 293 292 291 291 294 294 291 292 290 290 289 288 288 288 288 289 288 288 288 289 290 290 290 291 291 291 290 290 289 289 289 288 288 288 287 288

GFSCGP_850_thetae_084.txt.gz
Theta_e
308 310 310 309 310 310 310 309 309 310 311 312 313 315 316 316 316 317 318 318 318 318 318 318 319 322 328 331 334 333 329 330 330 329 323 324 326 328 329 328 330 329 328 327
310 310 310 309 309 309 310 310 311 312 312 314 315 316 317 317 317 317 317 318 319 318 318 318 318 322 326 330 331 330 329 329 330 329 324 323 324 328 328 328 326 326 325 325
313 312 312 311 311 311 311 311 311 313 315 316 317 318 318 318 317 316 316 316 318 318 318 318 318 320 327 329 329 325 328 330 330 327 323 324 324 325 325 325 324 325 325 325
313 312 312 311 311 311 311 313 314 315 316 318 318 319 319 319 319 318 318 318 317 318 318 318 318 319 325 328 331 325 329 329 330 327 324 324 324 324 325 325 324 326 324 325
311 311 312 312 311 313 314 315 315 316 317 318 318 320 319 319 320 321 320 319 318 318 319 319 319 318 325 329 331 327 329 329 329 327 326 325 324 324 325 323 325 325 324 324
310 312 315 315 314 312 314 315 315 316 317 320 318 319 320 321 323 323 323 322 322 322 322 321 320 320 324 329 332 328 329 329 328 326 327 325 324 323 323 323 326 325 324 323
310 311 312 315 315 316 315 315 314 320 321 319 318 320 320 323 323 324 325 324 324 324 325 325 323 324 326 330 330 328 329 329 327 326 327 323 324 323 322 324 325 325 324 323
312 313 313 314 314 313 315 313 315 317 319 319 319 321 323 323 323 323 322 322 322 322 325 326 323 326 327 330 330 329 329 328 327 327 324 321 325 322 322 323 324 324 324 324
312 311 312 314 314 313 316 318 316 319 318 320 318 320 323 322 322 321 320 319 319 319 321 326 323 327 327 329 328 330 328 328 327 324 321 321 324 323 322 322 323 323 323 323
311 311 313 315 315 315 316 316 319 319 320 320 319 320 323 324 322 320 320 318 316 315 316 322 325 327 328 328 326 327 328 326 326 324 321 320 322 323 323 323 322 322 321 320
311 311 314 315 315 315 318 318 318 319 320 322 319 321 323 322 319 319 319 315 313 312 312 317 326 326 327 325 325 326 327 324 326 324 321 320 321 322 322 321 322 321 320 320
312 313 312 314 314 315 315 317 318 320 321 320 322 321 322 321 319 318 315 313 310 309 308 311 322 325 324 323 323 323 325 325 325 323 321 320 320 321 322 320 323 321 320 320
305 313 313 314 315 315 316 317 317 317 317 318 320 321 320 319 320 318 315 312 308 306 307 307 313 322 322 323 322 322 324 324 324 322 322 320 319 320 321 324 320 320 320 320
304 312 313 313 313 315 316 315 315 316 318 318 318 316 315 314 315 318 314 310 306 303 303 302 306 314 318 321 321 322 322 322 323 323 321 321 321 321 321 321 320 319 319 319
307 314 312 311 310 310 311 311 311 312 313 313 312 310 312 315 317 317 312 308 304 301 301 299 300 305 310 315 319 320 320 320 321 320 320 319 319 319 319 321 320 319 319 319
305 313 310 310 309 307 307 306 306 306 307 309 312 314 315 316 316 315 311 307 302 299 298 297 296 300 305 309 313 316 317 320 320 320 320 320 320 320 320 320 320 320 320 320
309 309 308 309 307 306 306 307 308 310 312 313 314 315 316 318 317 312 308 304 301 299 298 296 294 295 298 303 305 309 311 313 317 319 318 318 319 319 320 320 320 320 320 320
308 309 307 307 306 305 306 309 307 307 311 313 314 316 313 310 304 302 302 300 298 298 300 298 295 295 296 299 300 303 307 309 310 312 315 315 315 315 315 317 317 317 317 317
307 309 308 306 306 305 306 308 309 308 310 311 311 311 311 304 301 296 296 296 295 298 296 300 299 295 296 298 299 303 302 303 305 306 307 309 311 309 309 314 314 313 312 312
307 308 309 307 305 303 309 308 309 310 311 310 309 309 309 307 312 298 294 293 292 293 295 296 297 299 294 295 298 302 299 302 304 303 302 299 304 308 308 306 307 308 307 307
308 308 308 307 306 307 308 308 308 310 311 308 304 302 305 308 299 292 293 291 291 291 292 292 292 293 294 297 301 302 301 300 300 301 304 300 301 302 301 301 301 302 302 302
307 308 308 307 307 307 306 308 309 307 306 304 299 297 294 292 292 291 291 290 290 290 290 291 293 294 292 294 298 299 299 296 296 297 297 298 298 297 298 299 298 298 298 298
308 307 309 308 310 305 302 302 301 301 301 300 298 294 292 291 290 290 291 290 289 292 292 291 290 290 292 293 294 296 294 294 294 294 293 295 296 296 293 294 294 293 293 294
306 304 310 308 305 302 300 299 297 295 295 294 294 293 292 290 289 288 288 288 290 290 292 292 292 291 291 291 292 291 291 292 293 294 294 294 294 293 293 293 292 292 292 291
304 303 303 306 302 299 297 296 296 294 292 293 293 293 292 290 288 287 288 286 287 288 288 287 288 288 289 291 291 291 289 290 291 291 291 290 291 291 292 292 291 291 290 290
300 300 303 304 298 299 295 293 293 291 290 290 290 289 289 289 286 286 286 287 288 286 286 286 284 286 287 289 289 289 289 290 290 290 289 288 288 287 287 287 288 287 287 288

GFSCGP_850_thetae_087.txt.gz
Theta_e
309 310 311 311 312 312 312 312 312 313 313 312 313 314 315 315 315 317 317 317 319 319 320 320 319 319 321 326 331 336 340 337 338 335 330 330 325 326 327 326 328 328 328 328
312 312 312 312 312 311 311 312 312 312 313 314 315 317 317 317 317 317 318 318 318 319 320 320 320 319 323 328 333 336 339 337 337 331 332 330 327 329 327 328 328 328 328 328
314 314 314 312 311 311 311 311 313 313 313 316 317 318 318 319 320 319 319 318 318 319 320 320 320 319 323 328 332 336 337 337 336 333 333 331 329 327 326 328 328 328 328 328
313 314 314 313 313 313 313 312 312 313 315 316 318 320 319 319 319 320 320 320 319 318 319 320 320 319 321 328 331 334 336 336 336 334 332 330 329 327 327 327 330 328 327 327
312 313 313 314 313 312 312 313 315 316 317 318 317 318 318 320 321 323 323 322 322 320 319 319 320 320 319 324 330 334 335 335 335 334 332 330 329 327 327 328 327 326 325 325
312 312 313 313 313 313 313 314 316 315 317 319 317 317 317 321 325 324 325 324 325 325 324 322 322 321 320 322 330 335 334 334 333 333 332 331 329 327 327 327 327 325 325 324
311 311 312 312 314 315 313 315 317 318 320 319 318 319 319 324 324 324 324 323 324 324 325 328 326 323 321 324 331 335 333 334 332 332 332 330 328 326 326 326 325 325 325 323
313 313 312 311 314 315 315 316 316 314 316 320 319 319 321 324 322 321 322 322 323 323 322 324 329 326 325 325 331 334 332 332 331 332 332 330 327 326 325 325 325 325 324 324
315 313 313 314 314 314 314 315 315 315 316 318 318 317 324 323 323 322 321 320 321 321 320 321 324 326 328 329 333 332 329 330 330 332 331 328 326 325 325 326 325 326 324 324
314 315 314 314 315 315 315 315 318 318 318 319 317 318 324 325 322 321 321 320 319 319 317 319 321 327 329 332 330 330 328 330 331 332 329 325 325 325 326 325 324 324 324 324
311 314 314 315 316 315 315 318 318 318 319 320 321 324 325 322 321 320 319 319 317 316 313 317 321 326 329 328 328 327 326 326 330 329 325 323 325 324 323 323 323 323 323 322
307 312 315 315 314 315 316 316 317 319 318 319 321 322 322 321 320 320 319 317 314 312 310 314 315 321 326 326 326 327 328 326 326 327 323 321 326 324 323 323 322 322 322 321
305 310 314 314 315 315 315 317 317 318 319 320 321 322 321 317 316 318 319 317 314 310 307 312 312 314 318 324 325 326 325 325 324 325 326 321 323 321 324 323 323 323 322 320
304 307 310 315 314 316 315 315 317 318 320 319 319 318 316 314 316 318 319 315 311 307 304 306 307 307 311 315 323 324 324 324 322 322 322 321 321 321 322 322 322 321 320 320
307 307 308 313 314 315 316 315 316 316 316 317 315 313 313 316 317 320 316 312 308 304 301 301 304 303 306 307 318 321 322 322 322 321 321 320 319 319 320 320 321 320 319 319
304 308 306 315 311 311 311 311 310 310 309 308 310 313 318 318 319 317 312 308 304 301 298 298 301 301 302 303 308 314 318 320 320 321 320 320 320 319 320 320 321 322 320 320
304 307 312 314 311 309 309 309 308 310 312 314 317 317 315 311 305 303 304 302 299 297 295 296 297 299 298 299 301 307 311 312 317 319 318 319 319 319 319 319 320 321 320 320
304 306 309 310 308 309 309 309 309 309 313 312 312 313 311 304 299 296 297 296 295 295 294 294 296 297 296 297 298 300 304 306 310 314 314 313 316 317 317 318 318 318 318 318
304 308 312 310 310 306 308 309 310 311 314 312 311 311 310 302 300 296 294 294 293 293 293 292 293 297 296 295 296 300 300 300 303 304 306 307 308 310 311 313 312 311 312 311
307 308 310 308 306 307 311 309 309 310 313 310 308 307 307 308 310 299 293 294 294 293 293 293 292 292 297 296 295 299 297 300 300 300 300 302 303 305 307 307 302 304 307 306
308 308 309 309 307 309 310 309 309 310 313 307 304 301 297 299 297 292 292 292 292 292 292 292 292 293 291 294 295 297 296 296 296 298 297 300 301 301 304 305 300 299 304 305
307 308 309 308 308 309 307 309 311 306 305 303 299 296 294 292 291 291 291 291 290 290 290 290 291 291 291 293 295 298 295 291 295 298 294 298 299 300 299 301 299 299 299 299
309 309 311 312 311 305 303 302 301 300 299 299 297 296 294 292 291 290 290 290 289 289 289 289 289 289 288 288 291 292 292 292 294 296 295 297 296 297 294 293 292 292 291 291
307 306 309 309 304 302 301 301 298 296 295 295 296 294 292 291 290 289 289 289 288 288 288 289 290 290 290 288 288 289 288 289 290 292 292 292 292 292 291 292 292 291 289 289
305 306 306 304 302 301 299 297 296 295 293 292 292 291 291 290 289 288 288 287 287 287 287 287 287 286 287 289 289 287 287 287 287 288 288 290 290 291 292 291 290 290 289 290
300 300 303 304 300 300 296 295 294 292 292 292 290 290 289 288 287 286 285 285 285 285 286 287 286 286 287 289 289 289 288 288 288 288 287 286 286 286 287 288 289 288 288 288

GFSCGP_850_thetae_090.txt.gz
Theta_e
311 310 309 311 311 311 312 313 314 314 314 313 314 314 313 314 315 315 315 314 315 317 318 319 320 320 320 319 320 331 335 334 339 337 339 337 334 329 326 324 324 326 329 329
314 312 312 312 313 313 312 313 312 312 313 313 313 313 315 316 317 317 316 316 317 317 318 319 320 320 320 319 321 331 332 334 338 336 339 334 331 329 326 322 323 329 328 328
313 314 314 313 313 313 312 312 311 311 312 313 314 314 315 316 317 317 317 317 317 317 319 319 320 320 320 319 325 334 334 337 338 337 338 333 332 331 329 326 325 328 328 328
311 313 314 314 314 314 313 313 313 313 313 312 314 317 317 317 317 319 320 320 320 320 319 319 320 321 320 323 326 333 337 339 337 338 335 333 331 330 327 325 325 326 328 328
312 313 313 314 314 314 313 313 313 314 315 316 316 317 316 316 317 319 324 324 326 326 323 319 319 321 321 323 326 329 338 339 338 338 335 334 331 330 328 325 327 327 328 328
311 311 313 313 314 313 313 313 313 314 315 318 315 316 316 316 325 326 325 324 324 325 325 327 327 322 320 323 325 330 336 338 338 337 335 333 331 329 328 327 326 327 326 326
313 311 312 313 313 314 315 314 314 315 318 318 316 319 317 323 325 324 324 323 323 324 324 324 326 329 327 323 329 331 335 337 336 335 334 333 331 329 328 326 327 325 327 325
312 313 313 313 313 313 314 315 314 317 318 317 318 323 320 324 323 322 322 322 322 323 322 323 324 326 327 327 332 335 336 335 335 334 333 332 331 329 327 327 327 326 325 324
315 314 315 314 313 312 313 318 314 318 317 318 315 321 321 324 322 321 321 321 320 320 320 319 320 325 328 329 333 335 335 334 335 333 332 332 330 328 327 326 326 325 325 325
312 313 312 313 314 313 314 315 318 318 320 316 315 316 319 322 322 320 320 320 318 317 316 314 318 326 331 332 331 331 333 332 332 332 333 331 329 326 326 325 325 325 326 324
309 311 311 312 317 316 314 316 317 318 318 319 322 324 322 321 322 319 319 318 316 314 313 311 319 325 328 329 330 332 331 330 329 331 333 330 327 326 324 325 325 325 324 324
308 308 310 311 312 315 314 315 316 318 318 317 320 321 319 320 320 320 319 317 314 311 310 310 314 319 325 327 327 325 327 329 329 331 330 327 325 324 325 324 324 323 324 323
306 307 309 311 311 314 317 317 316 317 319 321 324 322 316 316 317 320 318 315 312 308 306 304 309 312 318 323 324 326 327 327 329 327 326 326 323 323 323 322 323 322 322 321
305 306 306 310 310 310 313 317 317 318 321 319 321 319 317 319 320 319 316 312 309 305 303 301 304 307 309 315 321 324 325 326 327 325 324 322 323 322 322 322 322 322 322 321
305 307 307 308 308 308 311 316 316 317 318 320 317 315 318 317 314 312 311 309 305 302 300 298 299 302 304 308 314 318 321 324 324 323 322 322 322 322 321 321 323 322 321 320
304 304 306 306 307 309 313 315 315 314 315 316 314 318 314 309 305 306 304 302 300 298 296 294 296 299 301 302 305 310 314 319 322 322 321 321 321 321 321 321 321 321 320 319
304 304 306 306 306 313 316 313 313 311 314 315 316 315 312 309 303 299 300 297 296 294 293 293 293 295 297 300 302 305 306 310 316 319 319 320 319 319 319 320 321 320 319 319
304 304 305 306 307 316 311 310 310 314 313 312 312 311 309 303 298 296 295 294 293 293 292 291 293 294 295 298 301 300 302 304 307 310 311 316 318 318 318 318 319 319 319 319
304 304 307 311 312 311 311 310 310 312 313 309 309 308 307 303 299 295 293 293 292 292 292 292 292 292 294 297 299 300 300 301 301 301 302 302 312 313 314 314 314 315 315 315
304 305 307 312 310 311 313 310 309 310 315 307 306 304 302 305 308 296 293 292 292 291 292 293 293 293 293 295 298 301 299 299 299 299 298 297 301 304 304 303 303 304 307 306
306 307 310 311 310 313 307 308 308 310 311 304 302 298 296 296 294 292 292 291 291 291 291 292 292 292 293 294 294 297 298 295 295 297 297 297 297 300 300 299 299 299 299 302
308 308 309 310 310 312 304 307 308 304 301 300 298 296 293 292 292 291 291 291 291 290 290 290 292 292 292 292 294 292 292 292 294 296 296 294 296 296 296 296 294 294 295 297
310 309 312 310 308 303 302 301 299 299 299 298 297 295 293 292 291 290 290 290 289 289 289 288 288 289 290 291 290 291 290 291 293 294 295 294 292 293 293 295 293 292 294 294
307 306 308 308 304 302 300 298 297 296 296 296 295 293 292 291 290 290 290 289 289 288 288 287 287 288 288 288 288 288 289 290 292 293 292 293 293 293 293 294 293 293 292 293
302 304 305 304 302 300 297 297 296 295 293 292 292 292 291 290 289 289 288 288 287 287 286 286 286 287 288 289 289 289 288 288 290 291 290 290 291 291 292 293 291 292 290 291
299 299 301 302 298 299 296 294 293 293 293 292 290 289 289 289 288 288 287 286 286 286 285 285 285 286 287 288 288 288 289 289 288 287 287 287 288 288 288 288 288 288 288 288

GFSCGP_850_thetae_093.txt.gz
Theta_e
308 305 305 305 306 308 308 309 309 309 310 310 310 310 310 310 311 311 312 313 313 314 315 314 316 318 319 319 319 319 327 337 339 340 337 333 333 336 332 327 323 324 325 327
310 308 309 309 308 309 310 309 309 310 311 310 309 309 310 310 311 313 313 314 314 314 315 315 316 317 319 320 319 321 326 338 338 338 336 334 334 335 332 328 326 330 325 327
309 312 312 311 311 311 311 311 310 310 309 309 309 309 310 312 313 314 315 315 315 315 315 316 316 317 319 320 320 323 326 338 336 338 337 338 337 335 332 329 325 327 324 327
309 309 311 312 312 312 312 312 312 312 311 310 311 312 312 314 315 315 316 319 317 324 324 320 317 319 320 320 320 323 327 338 336 338 336 335 334 336 331 328 326 322 326 330
310 310 310 311 311 312 313 313 313 312 310 312 314 314 314 315 315 314 323 323 324 325 325 326 326 324 321 320 322 327 334 336 334 336 336 335 335 334 330 329 327 324 326 326
309 310 309 309 311 312 312 312 312 311 310 313 313 314 314 313 314 325 324 323 323 323 323 324 325 327 325 323 332 334 336 334 334 335 336 334 335 332 331 328 326 326 326 326
311 312 310 309 309 311 312 312 311 312 312 314 316 319 316 320 323 324 323 322 322 321 321 321 322 326 326 325 329 334 336 336 334 336 336 333 334 333 330 327 328 326 325 326
312 311 312 312 310 310 311 311 315 315 314 314 316 320 319 321 316 318 321 320 319 319 319 319 321 324 326 327 325 333 330 333 334 336 335 334 333 332 329 328 327 325 324 324
313 313 311 310 312 312 311 313 314 317 315 316 315 315 318 317 317 315 318 317 316 315 314 316 321 324 329 330 333 333 331 332 330 331 334 334 332 331 329 328 327 324 324 325
308 309 309 310 313 312 313 312 314 316 321 319 316 315 323 321 318 318 317 315 313 311 312 314 317 321 324 329 332 331 332 333 330 330 332 332 331 330 328 327 326 325 324 324
307 308 308 308 311 315 315 315 315 316 316 317 321 323 319 317 316 319 315 312 309 307 307 311 314 317 321 325 328 329 329 325 328 328 331 330 330 329 328 326 324 325 325 325
306 306 307 305 305 306 314 315 315 316 317 318 317 319 314 315 316 317 313 310 306 304 303 306 310 314 317 322 325 328 329 330 328 328 331 333 330 328 326 323 324 324 324 323
305 303 303 301 306 310 312 311 310 312 317 316 318 322 313 316 315 311 309 306 304 301 301 303 307 309 310 315 319 324 324 328 328 330 331 329 327 326 324 323 324 323 323 322
304 304 303 302 304 306 307 309 309 312 317 318 321 318 317 315 311 309 306 303 301 299 298 298 301 304 306 308 315 319 323 326 327 329 327 326 325 323 323 323 323 322 322 321
302 303 304 305 305 305 307 308 309 313 316 317 316 316 314 310 308 305 303 301 299 297 296 294 296 298 303 305 308 313 318 323 324 324 325 324 323 323 322 321 322 322 321 320
302 303 301 303 304 305 306 308 311 312 314 315 314 315 308 305 303 301 299 298 296 295 293 293 294 296 298 301 303 307 310 318 322 323 323 324 323 323 322 322 323 322 322 320
300 300 300 301 305 305 309 313 311 312 313 313 316 311 307 302 300 298 297 295 294 293 292 292 292 293 295 298 299 304 304 308 316 317 319 321 322 321 321 321 322 322 321 320
300 301 303 303 304 310 311 311 312 310 308 308 308 306 303 299 296 294 293 293 292 292 292 292 292 293 295 296 298 300 303 304 308 309 312 313 317 317 319 320 320 320 319 318
300 301 304 306 307 312 311 310 310 311 308 305 304 302 302 298 296 294 292 291 291 291 292 292 292 294 294 295 295 298 301 301 304 303 303 303 305 308 309 313 316 314 314 314
302 303 304 307 309 314 308 305 306 309 309 303 300 298 299 301 304 293 292 291 291 291 291 292 293 293 295 295 295 298 298 299 299 300 299 300 301 300 298 299 302 305 306 306
304 305 305 305 307 309 303 304 306 308 307 300 297 294 293 294 293 291 291 291 290 290 290 291 292 291 292 294 295 296 296 295 295 298 298 299 298 299 299 296 295 297 299 299
305 308 310 309 310 308 300 303 305 303 300 298 295 293 292 291 291 291 290 290 290 289 289 289 289 289 290 291 293 293 294 293 295 296 297 296 296 296 297 297 294 294 297 297
309 308 308 308 306 300 298 298 299 299 298 296 294 292 291 290 290 290 289 289 288 288 288 288 288 288 288 289 291 292 291 293 294 295 295 294 294 294 294 295 295 292 292 293
303 303 306 304 300 298 298 296 295 295 295 294 293 291 290 290 290 289 289 288 288 287 287 287 288 288 288 288 288 288 289 290 292 293 293 293 293 292 292 293 293 293 292 292
299 300 303 303 300 297 296 295 295 293 292 291 291 290 290 290 289 288 287 287 287 286 286 286 287 287 287 288 288 289 289 290 290 291 290 290 291 292 292 292 291 292 291 291
297 299 299 298 296 297 295 293 293 292 291 290 289 289 289 289 288 287 287 286 286 286 286 286 286 287 287 287 287 287 288 289 288 288 287 286 287 286 286 287 288 288 287 288

GFSCGP_850_thetae_096.txt.gz
Theta_e
307 304 303 303 303 306 307 308 307 307 307 309 309 308 308 307 309 308 310 312 312 313 313 314 314 314 316 315 317 317 318 320 324 334 335 337 335 334 337 333 328 328 326 325
309 305 306 306 306 306 306 306 306 307 308 308 308 308 308 308 307 310 310 311 312 313 314 314 314 315 315 317 316 317 318 319 321 327 330 333 337 336 334 329 328 326 326 325
309 309 310 309 309 309 308 307 308 309 309 308 307 308 309 310 310 310 311 312 314 315 316 316 313 315 316 315 317 317 318 318 320 321 333 333 335 334 334 333 330 325 326 323
306 307 308 308 310 311 310 310 310 311 310 311 308 311 311 311 311 312 313 315 323 323 323 321 317 314 315 316 317 317 319 319 320 324 332 330 335 334 332 333 330 327 330 333
309 308 308 308 309 309 310 311 311 311 310 309 311 311 311 310 312 312 313 322 322 321 321 321 324 324 323 320 318 319 320 321 323 326 330 330 336 334 332 333 330 328 326 330
307 309 308 307 308 308 309 311 310 310 309 312 312 310 311 311 314 319 321 322 320 318 319 319 319 323 325 325 325 325 322 323 325 331 333 336 334 334 334 333 331 328 325 323
307 307 308 309 309 308 309 310 311 311 310 312 310 311 312 313 318 317 317 319 316 315 317 319 321 322 326 327 330 335 332 332 329 334 334 335 334 335 335 334 330 328 324 324
312 311 309 308 310 310 308 311 313 316 314 312 312 314 316 319 317 317 315 315 312 311 317 318 317 320 325 328 328 335 334 331 331 333 333 332 335 336 335 331 329 327 324 324
310 311 306 308 307 310 312 310 310 313 313 316 313 312 317 318 317 316 313 313 310 307 308 309 316 318 320 324 329 330 334 330 330 330 330 331 332 334 332 331 329 327 326 324
307 307 307 307 305 307 312 311 312 311 315 315 314 314 318 318 316 315 315 310 306 304 304 308 312 315 318 321 326 330 331 330 330 331 329 329 332 333 332 331 328 327 326 325
305 306 306 305 305 306 304 310 314 315 314 315 316 316 316 316 315 315 313 307 303 301 300 302 306 312 315 319 323 326 330 331 329 330 330 329 330 332 330 329 328 327 326 323
305 304 306 304 303 303 303 306 314 316 317 315 314 316 314 312 314 311 307 304 302 299 298 301 303 307 313 316 322 324 327 325 321 320 327 327 329 330 328 327 327 326 324 324
304 302 302 301 301 305 305 306 309 310 312 314 315 317 311 311 306 304 303 301 299 298 296 299 302 303 307 310 314 320 324 326 326 325 325 326 329 329 328 326 323 322 323 323
303 303 302 302 301 303 304 305 306 309 310 313 314 317 315 309 309 305 303 300 298 296 295 295 298 299 302 306 308 312 317 323 326 327 328 329 329 327 325 323 323 324 323 323
300 302 302 303 302 302 302 303 303 306 308 313 314 315 309 307 305 302 300 298 296 295 293 293 294 296 298 303 306 308 311 316 323 325 327 326 325 324 323 323 323 323 323 322
301 298 301 301 301 301 303 304 305 306 312 313 315 312 305 303 301 299 297 296 294 293 292 292 293 295 296 298 301 304 307 310 315 322 324 323 324 323 323 322 322 322 322 321
299 298 299 299 301 302 302 304 305 311 309 312 313 309 304 300 297 295 295 293 292 291 290 292 292 293 294 296 298 301 303 305 308 315 318 321 323 323 322 322 322 322 322 321
298 296 298 300 302 303 309 311 309 307 306 305 305 303 301 297 294 292 291 291 290 289 289 291 293 293 294 295 298 299 300 303 304 305 306 312 317 320 319 320 321 321 321 321
298 298 300 302 304 304 306 307 307 309 305 302 301 300 298 295 294 293 291 290 289 290 290 291 292 293 295 295 296 298 298 300 301 301 301 301 303 309 307 313 307 309 314 316
298 299 300 304 306 308 306 301 302 306 306 299 297 295 300 298 301 292 291 290 290 289 289 290 291 292 294 294 295 297 296 297 297 298 299 300 300 302 302 301 300 300 302 303
301 302 302 302 305 307 301 300 302 307 304 296 294 293 293 294 293 291 290 289 289 288 288 290 291 291 291 293 295 295 294 294 294 295 297 299 301 299 300 300 300 299 297 296
305 306 306 305 306 306 298 301 304 301 297 295 293 292 291 290 290 289 289 288 289 289 289 289 289 290 290 291 293 292 292 292 293 294 295 295 297 297 298 298 297 297 298 299
305 304 304 304 301 298 296 296 297 297 296 294 293 291 290 289 289 288 287 287 287 288 288 289 289 289 289 289 290 291 290 291 292 293 293 293 294 294 294 295 294 295 295 294
300 299 302 301 299 298 296 294 294 293 293 293 291 290 290 289 289 288 287 287 287 288 288 288 289 289 288 289 289 289 290 291 291 291 291 292 292 292 293 293 293 293 293 294
297 298 301 299 297 296 295 294 293 292 291 291 290 290 289 289 287 287 286 286 286 287 287 287 287 287 287 288 288 288 289 290 291 291 290 291 291 292 291 291 291 291 290 291
296 297 299 297 296 296 293 292 292 291 290 289 289 288 287 288 287 286 285 285 286 286 286 286 286 286 287 287 287 287 287 287 288 288 287 286 286 286 287 289 289 288 288 288

GFSCGP_850_thetae_099.txt.gz
Theta_e
306 303 303 302 303 306 307 306 305 304 305 306 306 307 308 308 305 305 307 309 310 311 312 313 313 313 314 314 314 314 315 315 318 322 326 332 335 337 332 330 331 331 328 328
308 304 304 304 304 304 304 304 304 305 305 305 305 306 308 306 305 308 309 309 310 311 313 313 314 314 316 316 315 314 315 316 317 319 320 324 328 334 335 333 334 334 331 328
307 309 309 306 306 307 306 305 306 307 307 307 306 309 309 309 309 310 310 311 312 317 321 321 319 317 316 313 313 314 314 315 316 318 321 326 331 336 334 335 332 333 334 329
305 306 306 306 307 308 309 309 309 309 308 309 307 311 311 310 308 309 311 315 320 318 318 318 320 321 318 316 316 315 315 315 316 319 321 321 323 331 330 330 331 335 331 328
307 308 307 307 307 307 308 308 309 309 309 309 310 309 310 310 310 312 316 320 317 315 315 316 319 320 323 324 321 318 315 317 316 318 321 321 326 328 326 330 331 333 331 327
307 308 308 307 308 307 307 307 309 307 307 310 310 309 309 308 313 317 317 314 312 311 312 314 318 319 322 326 325 325 319 318 318 320 321 324 322 330 331 330 330 332 331 327
308 307 307 308 309 308 307 308 308 310 309 311 310 310 308 317 318 316 315 313 310 308 310 311 318 316 320 324 326 331 325 323 322 323 326 327 327 329 330 329 333 332 331 328
310 307 307 306 309 309 308 307 308 313 314 311 311 312 311 316 315 313 312 311 308 307 305 304 315 310 320 321 323 327 333 336 331 326 327 330 330 332 334 333 331 332 331 328
308 309 305 305 305 304 308 310 310 312 311 313 310 311 316 315 314 315 313 310 306 303 303 301 307 311 316 319 320 324 332 337 333 330 330 330 329 330 332 331 332 333 330 327
306 304 305 305 303 305 307 308 310 312 314 314 311 312 311 316 316 315 312 307 304 301 300 299 301 307 313 314 319 323 328 334 333 331 329 329 329 329 329 330 333 331 329 325
304 304 304 302 303 303 302 302 308 311 312 317 314 312 316 315 315 316 308 304 301 299 297 297 299 302 307 311 317 320 325 327 330 330 328 328 328 329 328 329 331 329 327 326
304 303 304 302 302 301 301 307 309 302 308 309 311 314 313 310 308 306 303 300 300 297 296 295 296 300 305 310 316 319 323 324 323 324 327 328 328 327 328 329 330 327 327 326
303 301 302 300 300 301 303 303 305 307 308 309 313 316 311 308 306 303 301 300 297 296 295 294 295 298 301 304 310 317 320 324 323 321 320 322 324 321 328 329 327 327 326 325
302 302 301 301 301 302 303 302 302 303 303 305 307 308 313 309 306 302 300 298 296 295 294 293 294 295 297 301 304 309 316 319 324 327 324 323 323 325 328 327 326 323 323 323
299 301 302 302 302 302 301 301 301 302 302 303 304 310 309 306 302 300 298 296 295 293 292 291 291 293 295 299 301 304 310 313 317 323 325 325 325 323 327 325 323 323 323 323
300 297 300 302 300 299 300 300 301 302 304 305 305 310 304 300 298 297 295 294 293 292 291 290 291 292 293 296 298 301 304 307 310 316 320 321 324 325 325 324 324 324 323 324
298 298 298 297 299 300 299 302 302 302 308 308 312 307 302 299 296 293 293 292 291 290 289 290 291 291 292 294 295 298 300 303 305 306 305 310 317 321 324 324 324 324 322 322
297 295 295 298 299 299 304 303 305 305 305 306 305 304 300 296 293 292 290 290 289 289 290 290 291 292 293 294 295 297 299 302 303 304 303 303 303 310 316 321 321 321 321 321
297 297 293 296 300 302 302 304 304 305 302 300 301 301 296 294 293 292 290 289 289 289 290 290 291 292 293 295 294 295 298 299 301 300 301 301 302 302 300 311 312 312 313 315
297 297 294 298 302 305 303 300 300 303 303 297 296 296 298 295 300 292 290 289 289 289 289 291 291 292 293 294 295 296 296 297 296 297 298 298 299 301 301 300 301 300 302 303
299 298 299 300 301 304 299 299 299 308 303 295 293 293 296 295 292 290 289 289 289 289 289 290 291 290 290 292 294 294 293 293 294 296 297 298 299 299 300 298 300 299 300 301
304 304 302 301 303 305 297 299 303 299 295 293 292 290 290 290 289 289 288 288 288 289 289 290 289 289 289 290 292 293 292 292 294 295 295 294 294 295 295 295 295 297 297 298
302 301 302 301 300 297 295 295 295 295 294 293 291 290 289 288 288 287 287 287 287 288 288 289 289 289 289 289 290 291 291 292 293 294 294 294 294 294 294 294 294 295 296 295
299 298 300 299 298 296 295 293 293 292 291 291 290 289 289 288 287 286 286 286 287 287 287 288 289 289 288 289 289 289 290 291 292 292 293 294 294 293 293 293 292 293 293 292
296 297 299 298 297 295 294 292 291 291 290 290 290 289 288 288 286 286 285 285 285 286 287 287 288 288 287 287 288 288 288 288 289 289 289 290 291 292 292 293 292 291 290 290
295 296 298 296 295 294 292 292 291 290 289 289 289 288 287 287 286 285 285 285 286 285 286 286 286 286 286 286 286 285 285 286 286 287 286 286 285 285 287 289 289 288 288 287

GFSCGP_850_thetae_102.txt.gz
Theta_e
305 303 304 304 302 304 306 306 305 303 303 304 304 305 304 305 306 305 308 309 310 311 310 311 312 313 313 313 313 313 314 313 314 314 322 330 334 328 329 335 333 326 324 326
307 304 304 303 302 303 303 303 303 303 304 303 303 305 306 305 305 307 309 309 309 310 315 316 317 318 318 317 315 314 315 313 313 314 316 317 323 328 324 332 334 332 326 328
306 308 308 305 306 305 304 304 305 306 306 305 305 307 307 307 307 309 312 315 318 316 316 317 319 319 321 320 317 316 313 312 313 314 316 323 327 331 333 330 335 334 329 330
303 304 306 306 306 306 306 305 307 307 308 307 306 309 308 308 308 308 317 316 313 313 313 313 315 317 318 320 324 320 316 313 312 314 317 320 322 323 322 323 330 334 333 332
305 307 306 306 306 306 306 307 307 307 307 307 306 308 308 308 308 316 315 313 311 310 310 312 313 314 316 319 320 325 322 318 314 315 316 316 318 322 322 321 323 333 331 330
306 307 307 307 307 307 307 307 307 306 307 309 308 308 309 307 314 316 315 313 310 308 309 310 311 313 315 318 319 320 325 324 318 325 317 318 317 319 325 328 326 332 332 331
308 307 306 306 309 307 305 307 309 308 309 310 309 308 309 315 316 316 314 311 308 306 307 307 309 309 312 315 319 320 322 326 323 323 325 318 322 322 323 324 325 331 331 331
306 305 306 305 306 304 305 307 308 311 312 309 309 309 308 315 313 312 311 308 305 303 305 305 306 306 305 309 314 321 321 324 327 328 330 329 330 326 326 329 332 331 330 328
309 309 305 304 304 303 305 309 309 311 310 311 309 309 314 315 314 314 311 306 303 301 300 302 305 304 302 308 313 318 320 324 331 334 337 336 336 330 330 328 330 331 331 331
305 303 304 304 302 302 302 303 305 307 311 313 309 310 310 314 313 312 308 304 301 299 298 301 301 302 302 304 311 316 319 323 329 333 335 336 331 334 331 330 332 331 330 329
302 302 303 301 302 300 300 300 303 308 308 310 313 312 314 312 311 309 305 302 299 297 296 296 299 301 301 303 307 311 314 318 326 331 330 334 333 330 329 331 331 329 328 328
303 302 302 301 300 301 301 305 307 298 302 306 306 308 311 309 307 305 303 300 297 296 295 295 296 298 300 302 305 308 312 319 322 327 326 327 327 327 327 327 327 327 327 328
301 300 301 299 300 301 301 302 304 304 305 304 302 306 310 309 306 301 299 297 296 295 294 293 294 295 296 299 302 305 310 314 320 322 324 326 326 323 323 326 326 328 327 326
301 300 300 299 300 301 302 301 301 300 295 301 303 304 304 307 304 300 298 295 294 293 292 292 292 292 294 297 299 302 305 309 314 321 321 323 323 324 324 325 323 328 327 327
299 301 301 301 301 301 301 301 301 300 300 300 300 300 303 304 300 297 295 294 293 292 291 291 291 291 292 295 298 300 302 305 309 315 321 324 326 324 324 323 323 326 325 323
298 296 300 301 301 301 300 298 298 299 300 300 301 302 305 299 296 295 294 292 292 291 290 291 291 291 291 293 295 297 300 302 305 308 314 315 321 323 324 323 325 323 322 323
297 297 297 296 298 298 297 299 300 301 304 301 301 303 300 297 294 292 292 291 290 289 289 290 291 291 292 292 293 295 297 300 302 305 306 309 310 312 320 322 323 323 323 324
298 294 295 297 297 296 296 303 303 303 302 302 306 304 299 295 292 291 290 289 289 289 290 290 291 292 293 293 294 295 297 297 300 302 304 305 304 305 305 306 312 318 320 319
296 296 293 294 295 297 300 301 302 303 300 298 301 298 295 292 292 290 289 289 288 289 289 289 290 291 293 294 294 295 296 297 298 299 300 301 303 304 305 302 300 302 313 315
296 297 292 293 297 301 300 299 298 302 303 296 296 298 296 295 298 291 289 289 288 288 289 290 290 291 292 293 293 294 294 295 295 296 296 298 299 301 303 302 301 300 302 301
298 298 297 297 299 300 297 296 298 306 299 294 292 294 297 292 291 288 288 288 288 288 289 289 290 290 290 292 293 293 293 293 292 293 295 297 298 298 297 298 299 300 300 301
301 300 299 300 300 302 295 297 300 296 293 291 290 290 289 288 288 287 287 287 288 288 289 289 290 290 291 291 291 291 291 291 293 294 294 294 295 296 296 297 297 297 296 296
300 300 301 300 299 296 294 294 294 294 292 290 289 289 288 287 287 287 286 286 287 287 288 288 289 289 289 290 291 290 289 291 292 294 294 293 293 294 294 295 295 295 295 295
298 298 299 299 296 295 293 292 291 291 290 290 289 289 288 287 286 286 286 286 286 287 287 287 288 287 287 287 287 287 287 288 290 292 292 293 293 292 292 292 293 292 292 292
296 297 298 297 296 294 293 291 290 290 290 289 289 288 287 287 286 286 286 286 286 287 287 287 287 286 286 286 285 285 286 286 286 285 286 287 289 291 291 291 289 289 289 289
295 295 297 294 294 293 291 290 290 289 289 288 288 287 286 286 286 286 286 285 286 286 286 286 285 284 283 284 284 283 283 284 284 284 283 283 283 283 284 286 287 288 287 288

GFSCGP_850_thetae_105.txt.gz
Theta_e
304 307 307 307 306 306 307 307 307 307 307 306 309 309 308 308 307 308 309 308 307 309 313 315 316 317 316 315 314 314 313 313 313 312 312 313 315 318 332 333 333 334 332 324
306 307 307 307 305 305 305 306 307 307 307 306 309 309 310 309 308 308 308 310 317 317 318 319 319 318 319 320 320 319 315 313 313 313 312 313 314 319 319 330 333 333 334 327
310 310 307 305 305 306 307 308 308 309 309 308 308 310 309 310 308 313 318 317 315 312 312 315 318 318 318 318 319 321 322 318 314 312 315 323 326 332 335 333 332 332 330 332
306 307 308 307 309 308 309 307 308 308 309 310 309 310 310 310 310 317 317 314 312 310 310 311 313 315 316 318 318 318 319 323 321 316 317 329 327 331 331 324 325 326 328 333
306 306 305 307 307 306 308 308 308 309 309 309 309 310 310 309 310 316 317 314 311 308 306 306 309 311 313 314 317 318 319 320 323 321 316 327 331 328 326 330 325 326 324 330
306 306 307 308 307 307 307 308 308 308 309 311 310 310 310 310 311 317 316 312 308 305 304 304 306 308 310 312 314 316 318 319 319 324 323 320 330 330 331 331 325 324 322 326
307 306 307 307 309 307 308 310 309 310 312 310 309 310 310 312 317 317 314 309 306 303 302 302 301 302 305 309 312 313 316 319 320 320 326 321 327 334 331 331 328 324 323 322
305 308 307 306 305 305 306 310 311 311 311 311 310 312 311 316 313 312 309 306 305 303 301 300 299 299 298 306 310 310 314 318 319 323 326 323 325 332 333 330 331 328 326 321
309 308 305 304 304 303 307 310 307 310 311 310 310 310 316 314 313 312 309 305 302 300 299 297 297 297 297 305 308 306 310 316 319 322 328 327 327 330 333 332 331 331 330 330
306 306 304 304 302 302 304 302 306 311 308 306 306 310 312 313 313 311 307 303 300 298 298 296 296 294 297 304 305 305 308 310 316 322 329 333 330 330 331 332 330 331 331 331
303 303 303 302 302 301 301 301 304 308 310 307 304 307 313 312 308 306 304 300 298 297 296 295 294 294 299 302 303 304 308 312 319 324 327 327 331 331 332 331 332 332 329 331
303 303 302 301 301 301 302 304 305 304 303 307 308 306 311 308 306 303 301 298 297 296 295 294 293 295 299 299 300 302 305 309 315 319 323 323 327 328 329 330 331 331 330 330
303 302 301 302 302 301 303 302 305 304 304 304 305 305 310 308 304 301 299 297 296 295 295 293 292 294 295 296 297 300 302 307 313 319 322 323 326 327 325 327 328 329 328 328
302 301 300 299 301 302 302 302 302 302 302 301 303 304 305 303 304 300 297 296 294 293 295 292 291 292 293 294 296 299 302 303 306 311 319 322 323 324 323 322 323 325 326 326
302 301 302 301 301 302 302 301 301 302 301 301 301 301 302 302 303 298 295 294 293 292 294 291 291 291 292 293 296 298 300 303 305 309 314 318 322 323 324 324 323 323 325 326
300 301 301 300 300 300 299 299 299 299 299 299 299 301 301 300 297 296 294 293 292 291 292 291 291 291 291 292 293 295 297 299 302 304 306 309 314 318 322 323 323 322 324 325
300 300 299 298 297 297 296 298 299 300 302 301 301 301 301 298 295 293 292 291 291 289 290 290 290 291 291 291 293 294 295 297 299 301 304 305 308 309 311 314 315 312 320 321
299 298 298 298 298 296 298 303 302 303 301 300 302 304 300 295 292 290 290 289 288 288 289 289 290 291 292 293 294 293 295 297 297 299 300 302 304 304 305 305 307 313 313 313
298 298 298 298 298 297 299 300 301 301 302 298 299 296 294 292 291 289 288 287 287 288 288 289 289 290 291 293 293 294 295 294 295 295 297 299 301 303 303 305 303 302 301 300
296 298 298 297 297 299 298 298 297 300 304 296 296 296 294 293 299 291 287 288 288 288 288 289 290 290 291 292 292 293 294 294 293 293 294 296 297 298 300 301 300 301 303 300
299 299 298 298 299 299 296 296 297 304 299 292 292 295 296 293 291 287 288 288 288 288 288 289 290 290 290 291 291 292 293 292 292 293 294 295 295 295 296 296 297 297 298 296
300 300 299 299 299 301 294 296 299 295 292 291 290 290 289 287 287 287 287 287 288 288 289 289 289 289 289 290 291 291 291 292 293 294 294 294 294 294 294 294 295 296 296 295
301 300 301 300 299 295 293 293 292 292 291 290 289 288 287 287 286 287 286 287 287 287 287 288 288 288 288 287 287 287 289 291 292 293 293 292 293 293 293 293 293 293 293 293
298 297 298 299 296 294 293 291 290 290 289 289 288 287 287 286 286 286 286 286 286 286 287 286 286 286 285 285 285 285 285 285 286 288 290 291 292 292 292 292 292 292 291 291
296 297 298 297 295 293 291 290 289 289 289 288 288 287 286 286 285 285 285 286 286 286 285 284 283 283 283 283 283 283 283 284 284 284 283 284 285 287 287 288 288 288 287 288
295 295 297 296 294 293 291 289 289 289 288 287 287 286 286 286 285 285 285 285 285 284 283 283 282 282 282 282 282 282 282 282 283 283 283 282 282 282 282 283 283 284 284 285

GFSCGP_850_thetae_108.txt.gz
Theta_e
308 309 311 312 312 312 312 311 312 312 312 310 311 313 314 314 313 313 313 313 313 315 318 318 319 318 318 319 319 317 314 315 313 311 323 329 323 315 330 332 332 335 332 331
309 309 310 310 310 310 310 311 312 312 312 312 313 314 314 314 314 313 313 313 318 318 318 317 317 316 316 317 318 319 320 319 317 318 317 326 330 331 328 333 333 329 333 332
311 312 312 310 311 311 311 311 312 312 312 312 313 313 314 313 313 312 316 319 318 317 316 315 314 313 313 313 313 316 317 318 320 320 317 319 329 331 332 332 328 318 319 329
312 312 312 311 311 311 311 311 311 310 311 312 312 312 313 313 313 316 318 318 317 315 313 312 311 311 311 310 310 311 313 316 318 318 320 322 325 330 331 331 328 320 317 325
312 309 309 311 310 311 311 309 310 311 312 313 312 312 312 313 313 316 319 318 314 312 311 310 309 309 309 309 309 309 311 312 315 318 318 321 322 328 331 332 332 332 324 325
310 308 310 310 310 310 310 310 311 311 312 313 312 312 311 313 313 317 319 315 313 311 310 309 307 307 307 306 308 311 312 312 314 317 318 319 322 322 331 331 332 335 336 332
309 309 310 310 310 310 310 311 312 313 313 311 311 311 312 314 317 318 316 314 312 310 308 306 305 304 304 304 304 308 311 312 313 315 317 318 319 322 326 332 333 334 336 338
310 311 310 308 310 310 310 311 311 310 310 311 312 312 315 317 315 313 311 309 307 307 307 305 303 302 302 301 301 304 308 311 314 315 317 318 320 322 324 328 331 333 335 334
310 309 307 306 305 306 309 311 310 312 311 312 311 312 317 315 315 313 311 308 306 304 304 303 302 300 299 299 298 304 307 309 311 314 316 320 324 325 325 330 331 331 334 334
309 309 307 306 304 304 307 306 310 311 309 307 307 308 311 315 314 311 308 306 305 304 303 301 300 299 297 296 298 302 302 305 308 312 316 321 326 327 328 332 330 331 333 334
308 308 305 304 305 307 304 304 305 307 309 308 307 307 315 313 310 309 307 305 304 303 301 300 299 298 296 295 297 300 302 304 306 308 318 323 329 330 329 329 328 330 331 331
305 305 306 304 303 303 303 303 303 306 304 306 308 308 313 311 309 307 305 303 302 301 300 299 297 296 295 294 297 299 302 304 303 310 315 322 324 327 327 330 330 330 329 332
305 304 304 302 304 304 304 305 305 307 306 306 307 308 312 308 307 305 304 302 301 299 298 297 296 295 294 294 298 299 299 299 302 306 312 318 323 324 327 327 330 328 329 331
303 303 302 301 303 304 304 304 303 304 305 305 305 305 306 307 306 305 303 301 299 298 296 295 294 294 294 294 294 295 297 298 299 303 306 313 319 322 323 322 324 326 326 327
303 302 302 302 301 302 301 302 303 303 303 304 303 304 304 303 303 303 300 299 298 295 293 293 293 292 292 293 293 294 295 296 300 301 304 306 308 315 316 322 322 322 325 325
303 302 302 301 301 301 301 301 301 301 301 301 301 303 302 302 301 300 298 297 295 293 291 291 291 291 290 290 291 293 294 295 297 299 300 302 307 309 313 318 321 323 322 324
302 302 301 300 299 299 299 300 300 300 301 302 303 304 305 302 300 299 296 294 292 291 289 289 290 289 290 291 291 292 293 295 296 297 299 302 300 304 306 307 313 315 316 319
301 301 300 299 299 299 303 303 303 303 304 304 302 304 305 300 295 293 292 291 290 289 288 289 289 290 291 292 293 293 293 294 295 295 295 298 300 301 302 303 303 302 304 303
300 300 300 300 301 300 300 301 301 302 304 300 300 300 297 294 293 291 289 288 288 288 288 288 288 289 291 292 292 293 294 294 294 294 294 294 295 297 298 300 301 301 301 303
300 300 300 300 301 301 303 300 299 300 303 297 298 297 295 295 301 293 288 288 287 287 288 288 289 290 290 291 292 293 293 293 292 292 292 293 294 295 295 296 297 299 301 301
301 301 301 301 302 303 298 298 298 302 300 294 294 297 296 295 293 288 288 287 287 287 287 288 288 289 290 291 291 291 291 291 291 293 293 294 293 293 293 294 295 295 295 297
302 303 302 302 303 304 295 298 300 297 293 292 292 293 290 289 287 287 287 287 287 287 287 286 286 286 286 287 289 290 291 290 292 292 293 293 293 293 293 294 293 294 295 295
304 302 305 302 302 296 294 294 293 293 293 291 290 289 288 287 287 286 286 286 286 285 285 285 285 285 284 285 284 284 286 288 290 292 291 292 292 292 292 293 293 292 292 292
301 299 301 301 297 295 294 291 291 290 290 289 288 287 287 286 286 286 286 285 285 284 284 284 284 283 283 283 283 283 283 283 284 285 286 286 286 288 288 289 288 289 288 288
298 299 300 298 296 294 292 291 290 289 288 288 287 287 286 286 285 285 284 284 284 283 283 283 283 283 282 282 282 282 282 282 283 283 283 283 283 283 283 283 283 284 284 284
296 296 300 300 296 295 292 290 289 288 287 287 286 286 285 286 285 285 284 283 282 282 282 282 282 282 281 281 281 281 282 282 282 282 282 282 282 282 282 282 280 280 280 281

GFSCGP_850_thetae_111.txt.gz
Theta_e
312 313 315 316 317 316 317 317 318 317 318 317 317 316 316 315 316 316 315 315 315 315 317 320 320 320 321 321 321 321 321 321 322 323 323 320 329 332 334 336 338 340 340 340
314 314 314 315 315 315 315 315 316 315 315 315 315 315 316 317 317 316 316 316 316 316 319 319 318 318 318 318 318 318 318 319 320 321 323 324 321 327 329 333 335 336 340 339
315 314 314 314 314 314 314 314 314 315 315 315 315 315 315 316 315 315 315 316 319 319 318 317 316 316 315 315 315 315 315 316 316 318 319 322 323 322 329 331 332 333 336 337
316 316 315 315 315 314 314 314 314 314 314 314 314 314 317 316 315 315 317 319 319 317 316 315 315 314 313 313 313 313 313 313 313 314 316 319 321 324 321 327 330 332 334 337
316 316 315 315 315 315 313 314 313 313 313 313 314 314 316 316 315 317 319 319 317 316 315 314 313 312 311 311 311 310 310 310 310 311 313 314 316 319 324 324 331 331 332 333
316 314 314 312 312 312 313 312 311 312 312 313 314 315 315 315 315 317 320 317 316 315 314 313 311 310 310 309 309 308 307 307 308 310 312 313 313 314 317 322 326 334 332 334
314 313 313 311 311 310 311 311 312 312 313 314 314 314 315 317 320 320 320 317 314 313 312 311 310 309 308 307 306 306 305 306 309 310 311 313 313 313 314 316 321 329 333 332
315 317 312 311 311 311 311 310 312 317 316 316 314 314 316 320 318 316 315 313 311 310 310 309 308 307 306 304 304 303 303 307 309 310 310 312 315 315 315 317 318 324 331 332
313 312 312 309 309 309 310 313 311 313 315 315 315 316 320 317 316 315 312 311 310 309 308 307 306 305 304 303 302 300 298 303 304 307 309 310 313 314 315 317 319 321 327 332
312 315 310 309 307 308 308 308 313 311 311 311 311 311 313 319 316 313 311 310 308 307 307 306 305 304 302 301 300 298 297 300 303 305 307 310 313 314 317 319 321 322 327 330
312 312 311 308 308 308 308 307 307 308 310 312 312 312 318 317 314 313 311 308 306 306 305 304 303 302 301 298 297 296 299 300 302 304 307 310 311 313 317 324 326 326 329 330
309 310 311 309 307 306 307 307 308 310 308 308 308 307 315 314 312 309 308 306 305 304 304 303 302 300 298 296 295 293 295 297 301 302 304 307 308 314 321 323 323 327 328 331
308 308 309 307 306 306 305 306 305 306 307 307 312 310 313 310 310 309 307 305 304 303 302 301 300 298 296 295 293 291 292 297 300 302 302 302 306 317 323 323 320 322 328 328
305 307 307 307 305 306 306 305 306 307 309 307 306 306 310 310 308 306 306 305 303 301 299 298 298 297 295 293 291 291 294 295 296 298 299 300 307 312 317 321 323 324 326 327
305 306 305 305 305 303 304 305 305 305 306 306 305 306 306 305 305 305 304 303 302 299 297 296 295 294 293 291 290 292 294 294 294 295 298 301 304 306 311 315 320 323 324 325
305 305 304 304 303 303 303 303 303 303 304 304 304 304 304 303 305 304 302 300 299 296 294 293 292 291 290 291 290 290 291 293 293 293 295 296 300 303 304 309 315 320 322 323
305 304 303 303 301 301 301 302 302 302 303 303 305 304 306 306 305 302 299 297 295 293 292 290 290 290 290 290 289 289 289 291 292 293 294 296 297 301 301 302 306 305 312 317
304 303 303 302 301 301 304 304 304 304 304 304 305 306 304 303 298 295 294 294 292 290 289 289 289 289 290 289 290 289 289 290 292 293 292 292 293 296 298 300 301 300 302 304
302 302 302 302 302 302 303 303 302 302 303 303 303 302 300 297 296 293 291 290 289 288 288 288 289 289 289 289 290 290 291 290 290 291 290 291 292 293 295 297 296 298 300 300
302 301 302 302 302 303 305 302 300 301 303 299 300 301 299 298 303 295 289 289 288 288 288 288 289 288 290 290 290 291 291 291 290 290 290 292 292 292 292 292 293 293 295 295
304 303 302 303 304 306 300 299 300 303 302 296 296 299 298 298 293 289 288 288 288 288 288 288 287 285 286 289 291 291 291 290 290 292 292 293 293 292 292 293 293 293 293 294
304 304 305 305 307 306 297 300 301 298 295 294 295 296 292 290 289 288 288 287 287 287 287 288 287 286 285 284 285 286 288 288 289 290 291 292 292 293 294 294 293 293 293 293
305 304 307 303 303 297 295 295 294 294 294 293 292 291 290 289 288 287 287 287 286 286 287 286 286 286 285 285 285 284 284 284 285 285 285 285 286 286 286 287 288 289 290 292
303 302 304 302 299 297 295 294 292 292 291 290 290 289 288 288 287 287 287 286 286 286 286 286 285 285 285 284 284 284 285 284 284 284 285 285 284 283 283 284 284 284 284 284
302 302 303 300 297 295 294 293 291 290 289 289 288 288 287 287 287 286 286 285 286 286 285 285 284 284 283 283 283 283 283 285 285 284 284 285 284 285 284 282 281 281 281 282
298 299 303 303 298 297 294 292 290 290 288 288 287 287 287 287 286 286 285 284 284 284 284 284 284 283 282 282 282 282 282 282 283 284 283 283 283 283 283 284 283 280 280 281

GFSCGP_850_thetae_114.txt.gz
Theta_e
313 314 316 316 317 317 317 317 318 318 318 319 320 318 319 318 318 318 318 317 316 316 319 321 321 321 321 321 321 320 320 321 321 320 321 324 321 327 333 337 339 340 340 340
313 316 316 316 316 316 317 317 317 317 317 317 317 317 317 317 317 316 317 317 316 316 320 320 319 318 318 317 317 316 316 317 318 319 321 321 322 320 324 332 336 335 338 340
316 316 316 315 315 314 315 315 317 316 315 316 316 316 316 317 317 317 317 317 318 318 320 319 317 317 316 315 315 314 314 314 314 314 315 317 320 321 318 322 329 334 337 337
316 315 314 316 316 316 315 316 316 315 315 317 316 317 317 317 317 317 317 319 320 318 317 317 316 315 314 313 312 312 312 311 311 312 312 313 315 317 319 323 324 328 333 331
317 316 315 317 317 317 316 316 316 315 315 316 315 315 315 316 316 316 319 320 318 317 316 315 314 312 312 311 310 310 309 309 309 310 311 312 313 314 314 317 320 323 328 332
316 316 316 316 317 316 313 312 315 316 314 315 314 314 314 315 317 317 321 318 317 316 315 314 312 311 310 309 307 307 306 306 307 308 310 311 311 313 315 316 315 318 320 329
316 315 315 316 315 313 312 312 313 317 315 316 313 313 314 321 321 321 319 317 315 313 312 311 310 309 308 307 305 305 304 304 304 305 307 309 311 312 313 314 315 316 317 320
314 316 314 315 315 313 312 312 315 315 315 315 316 318 319 319 318 317 315 313 312 310 309 309 308 307 306 305 304 303 302 303 305 305 307 308 309 310 311 313 313 314 317 317
315 314 313 313 314 312 312 313 313 314 314 315 315 318 320 317 316 313 312 311 309 308 307 307 306 305 304 303 301 300 299 300 302 304 305 307 308 309 309 310 311 315 316 317
313 313 314 313 309 309 309 309 312 315 318 315 313 314 318 318 315 313 311 309 308 306 306 305 304 303 302 300 298 297 296 296 299 300 302 303 305 306 307 309 312 315 317 319
312 313 314 312 310 310 309 309 309 310 309 315 313 313 317 316 314 313 310 308 306 305 305 304 303 302 300 298 296 295 295 296 297 298 299 300 301 304 306 307 313 316 317 320
310 312 314 312 310 308 308 310 310 311 309 310 310 310 316 315 314 310 308 307 306 305 303 302 301 300 298 296 294 294 295 295 296 298 298 299 301 304 306 310 316 319 323 326
310 311 311 310 311 308 307 308 308 309 310 309 310 309 313 311 309 309 308 307 305 304 301 300 299 298 296 294 292 293 292 293 296 296 297 299 301 305 306 309 314 319 321 323
308 309 311 312 309 307 308 307 306 308 310 308 308 307 309 312 309 307 306 305 304 301 299 298 296 295 293 291 291 291 290 291 293 294 295 297 299 299 303 308 310 313 318 319
306 307 308 307 307 306 305 305 306 306 307 308 309 308 307 307 307 306 304 303 302 299 297 295 294 292 291 290 291 290 289 290 291 292 293 295 297 299 302 304 308 313 314 315
307 307 305 305 305 304 304 304 304 304 304 305 305 306 306 305 307 306 303 301 298 296 294 293 291 290 290 290 289 289 289 289 289 290 290 293 296 298 299 301 305 306 313 316
307 306 305 304 303 302 302 303 303 303 304 304 305 306 306 306 303 299 299 296 294 293 291 290 289 289 290 290 289 289 288 289 289 289 291 291 292 294 296 298 301 302 303 307
305 305 304 304 302 302 302 305 305 304 304 305 306 305 304 301 296 294 293 293 291 290 289 289 289 289 290 290 290 289 289 290 289 289 290 291 291 291 293 295 296 297 300 302
304 304 304 303 302 303 303 304 303 302 302 303 304 303 301 298 295 292 291 290 289 288 288 288 288 289 290 290 289 290 290 291 290 289 290 291 291 292 291 291 292 293 295 296
302 302 304 302 302 303 305 302 301 301 302 299 299 301 300 299 301 293 290 289 289 288 288 288 288 289 290 290 290 290 290 291 290 290 290 291 292 292 291 291 291 291 293 294
303 303 302 304 304 306 301 300 300 303 301 296 296 298 300 297 293 289 289 288 288 289 288 287 286 285 284 284 285 286 287 286 285 286 288 291 292 292 293 292 293 293 292 293
304 304 305 305 306 306 298 300 301 298 295 295 296 295 292 290 289 289 288 288 288 288 288 287 286 286 285 285 285 284 284 285 285 284 283 284 285 285 285 286 287 289 292 293
306 306 307 303 303 297 296 295 295 295 295 293 293 292 290 289 289 288 288 287 287 287 286 286 286 285 285 285 285 285 285 285 285 285 285 285 283 283 284 284 284 285 284 284
304 303 305 302 299 297 295 294 293 293 292 291 291 290 289 288 288 287 287 287 287 286 286 286 285 285 284 284 284 285 286 285 284 285 284 284 285 285 283 283 282 283 283 283
303 303 303 300 297 296 295 293 292 291 290 290 289 289 288 288 287 287 287 286 286 286 285 285 284 283 283 282 283 283 283 284 284 284 284 283 283 284 284 283 282 281 279 280
299 300 303 303 299 298 295 293 291 290 289 289 288 288 288 287 287 286 286 285 285 285 285 284 283 282 282 282 282 282 282 282 283 283 283 283 283 283 282 283 283 282 281 280

GFSCGP_850_thetae_117.txt.gz
Theta_e
312 310 310 309 311 313 314 315 315 315 315 315 314 314 314 315 315 315 316 316 316 318 320 321 321 321 320 320 319 319 318 317 317 318 315 314 317 322 334 331 335 335 336 337
310 311 312 313 314 315 315 315 314 313 314 314 313 313 312 313 313 314 315 315 316 320 321 320 319 319 317 316 316 315 315 315 315 315 317 318 317 316 319 323 328 333 335 337
312 313 313 313 314 315 315 314 313 313 313 313 313 313 312 313 314 315 316 316 316 319 318 317 316 315 314 314 313 313 312 312 311 311 311 312 313 316 318 316 322 326 331 332
315 314 315 314 314 313 313 315 316 316 316 315 313 315 314 314 314 314 314 317 317 316 315 314 313 312 312 311 311 311 310 310 310 310 310 310 311 311 312 312 316 317 322 326
315 315 315 316 316 314 314 316 312 312 314 315 314 313 313 312 313 315 317 316 315 314 313 312 311 310 310 310 310 309 308 308 308 308 309 310 310 311 311 312 313 312 316 318
314 314 314 315 315 315 316 314 311 310 313 315 315 313 313 312 315 319 317 315 313 312 310 309 309 308 308 307 306 306 306 305 305 306 307 308 309 310 311 312 312 313 313 313
313 314 314 315 315 314 315 312 313 312 313 313 313 314 313 319 317 318 315 311 310 309 308 307 307 306 305 304 304 303 304 305 305 305 306 307 308 308 309 310 312 313 314 314
312 313 314 313 314 315 314 311 313 316 315 314 313 315 317 315 313 310 310 309 307 307 306 305 305 304 303 303 302 302 303 303 304 304 305 306 307 307 308 309 309 311 313 314
312 314 312 312 312 313 312 311 311 313 313 313 311 316 313 312 312 310 308 307 307 306 305 304 304 303 302 301 300 300 300 301 302 303 304 305 306 306 306 308 309 310 311 313
312 313 313 313 309 309 310 309 313 312 316 315 312 313 319 316 313 311 308 307 305 304 303 302 301 300 299 298 298 299 299 299 300 301 303 304 303 305 305 306 307 307 307 309
312 311 313 312 311 308 308 308 308 313 311 313 314 313 316 315 312 311 308 306 304 302 302 301 299 298 298 297 297 297 297 297 297 298 300 301 302 303 303 304 305 306 308 310
308 311 313 313 311 310 308 310 309 308 308 308 309 309 315 314 313 310 307 305 302 301 300 299 298 297 297 297 297 296 295 295 294 295 296 297 298 299 300 301 303 306 309 313
309 308 310 311 311 311 311 308 309 309 309 309 310 310 313 313 310 308 306 302 300 299 298 296 295 294 294 295 294 293 292 292 292 292 293 294 296 298 299 300 301 303 307 312
309 308 309 311 311 309 307 308 307 307 306 307 307 307 309 311 309 306 303 300 298 297 295 294 293 292 291 292 292 291 291 290 290 290 290 291 293 295 297 298 301 303 304 306
306 306 308 308 308 308 308 307 306 307 306 307 306 308 307 307 305 303 302 299 296 295 293 292 291 290 291 291 291 290 290 290 290 289 290 290 291 292 295 296 298 299 301 301
305 306 304 305 305 305 305 304 303 304 304 304 303 304 305 303 301 299 298 296 294 293 291 290 289 289 291 291 290 289 290 290 290 289 289 289 289 289 290 293 297 299 299 299
306 305 304 304 303 302 301 302 304 303 306 305 300 305 302 298 296 296 294 293 292 291 289 288 288 289 290 289 290 291 291 291 291 290 289 289 289 289 290 292 293 294 293 295
305 304 303 304 302 302 305 304 303 303 303 304 304 301 297 295 293 292 291 290 289 288 287 288 289 290 290 290 291 292 292 291 292 291 290 290 289 290 292 292 292 292 292 293
304 303 302 302 302 303 303 301 299 299 301 299 300 299 295 293 292 291 290 289 288 288 288 288 289 289 290 290 291 292 292 291 292 291 291 290 291 292 292 292 292 292 293 293
303 301 300 301 301 296 302 301 301 300 297 296 297 298 298 295 296 290 289 288 288 288 288 288 288 287 286 285 285 285 284 283 283 283 284 288 291 293 293 292 292 292 292 293
301 300 301 300 299 302 300 299 300 299 295 295 295 296 298 294 292 289 288 288 289 288 287 286 285 285 285 285 285 285 285 285 285 284 282 283 284 284 284 286 290 292 293 293
302 302 299 298 299 302 296 299 300 296 294 294 294 293 291 290 289 288 288 288 288 287 287 286 285 285 285 285 286 285 285 285 285 285 284 283 282 283 283 284 284 284 285 285
302 299 304 299 297 296 295 295 294 295 293 293 292 291 290 289 288 288 288 287 287 286 286 286 285 285 285 286 286 285 285 284 284 284 284 284 283 283 283 283 283 284 284 284
302 302 299 299 298 296 294 293 293 292 292 291 291 290 289 288 288 287 287 287 286 286 285 285 284 284 283 283 284 285 284 283 284 283 283 283 283 283 282 282 282 282 281 282
300 302 300 298 297 295 294 292 291 290 290 290 290 289 288 288 287 287 287 286 286 285 285 284 283 282 282 282 282 283 283 283 283 283 283 283 282 282 282 282 281 280 279 280
298 298 301 299 296 296 294 292 291 290 289 289 289 288 288 288 287 287 286 285 285 284 284 283 282 282 281 281 281 282 283 283 283 282 282 282 282 282 281 281 281 280 279 278

GFSCGP_850_thetae_120.txt.gz
Theta_e
312 309 308 310 309 311 312 312 313 312 312 312 312 312 312 312 311 312 314 314 314 316 320 321 321 321 320 320 319 318 317 315 314 314 313 313 313 315 320 329 330 325 330 335
310 309 309 309 310 310 311 313 314 314 313 313 311 310 309 310 311 312 312 314 316 320 317 317 318 318 317 316 315 314 313 313 313 313 312 312 313 315 316 315 317 324 325 328
309 310 311 311 311 312 313 313 313 313 313 313 312 313 311 313 313 313 314 314 317 317 314 314 314 313 313 313 312 312 311 311 311 311 311 311 311 311 311 312 314 316 317 323
312 312 312 313 314 313 313 312 313 314 311 312 312 315 313 313 312 312 315 316 315 313 312 311 310 311 311 309 310 310 310 309 309 309 309 310 310 310 310 311 311 311 312 315
314 313 313 314 314 314 315 315 315 313 311 310 313 313 312 311 311 315 313 312 310 309 309 308 308 308 308 308 307 306 305 305 305 306 306 306 308 308 309 310 310 311 311 311
313 314 313 313 313 313 314 313 310 309 309 313 311 312 312 315 317 314 312 309 308 307 306 305 305 306 304 303 302 302 302 303 304 305 305 306 306 307 308 308 309 310 311 311
313 313 311 312 313 313 314 314 317 312 311 312 312 312 314 314 311 310 308 306 306 305 305 305 304 303 302 301 300 301 303 303 304 305 305 306 306 307 307 308 309 310 310 311
311 311 311 312 313 313 314 315 315 316 314 311 311 310 314 311 308 308 308 306 305 303 303 303 302 301 299 299 300 301 302 303 304 304 305 305 305 305 306 306 308 309 310 311
310 311 311 310 311 312 312 311 311 313 312 312 310 313 312 312 309 306 305 306 304 303 303 302 301 300 299 299 300 301 302 303 303 302 302 303 304 304 305 305 305 307 309 311
310 311 312 312 309 309 311 309 311 311 316 315 312 311 314 314 309 309 306 304 303 302 301 301 301 299 297 297 297 297 298 299 299 299 299 300 301 302 302 303 305 305 306 308
310 310 311 311 309 308 307 307 307 312 312 313 313 308 313 314 311 310 307 304 301 299 298 297 297 296 295 295 298 298 297 296 296 296 297 297 299 300 300 301 302 303 305 307
309 309 310 311 310 307 307 307 308 311 310 308 307 307 313 311 311 308 302 300 299 298 298 297 295 295 295 295 296 294 293 292 292 293 294 295 296 297 298 299 301 302 304 306
308 308 310 309 309 309 310 308 308 309 309 309 309 307 312 311 310 304 301 299 297 295 294 294 294 294 294 292 291 291 291 292 292 292 292 292 293 294 295 296 298 300 301 302
309 308 308 309 310 308 307 309 307 308 310 309 308 307 307 309 306 301 300 297 295 294 293 291 290 289 290 291 291 291 291 291 291 291 291 290 290 290 290 292 294 296 297 299
305 307 308 308 308 310 310 310 309 307 307 307 306 306 305 304 302 299 297 296 294 293 291 290 289 289 291 291 291 292 292 291 291 291 290 289 289 289 289 290 292 293 294 295
304 305 304 304 305 305 307 306 304 303 304 305 304 304 301 299 297 296 295 294 293 291 290 288 287 290 290 291 292 292 293 293 292 291 290 290 290 289 289 290 290 291 292 294
304 304 303 304 303 301 302 302 302 303 305 305 302 304 299 297 297 295 292 292 291 289 287 287 290 290 291 291 292 292 292 292 292 293 292 292 292 290 289 289 289 290 290 291
304 304 303 305 302 304 303 303 303 303 301 302 302 300 297 296 293 292 291 290 288 287 286 288 289 290 290 291 292 290 288 288 290 292 293 293 292 291 290 290 289 289 289 290
304 302 301 301 302 302 303 300 298 298 300 297 301 296 294 292 291 290 289 288 287 287 287 288 288 289 288 286 284 284 284 284 284 284 285 286 290 291 291 291 290 290 290 291
302 301 299 299 301 295 294 300 300 297 297 296 296 298 294 291 292 290 289 287 287 287 287 287 287 286 285 285 285 285 285 284 283 282 282 284 284 283 284 286 288 289 289 289
301 300 300 299 298 300 299 298 299 299 296 295 295 295 297 295 292 290 288 287 287 287 286 286 285 286 285 285 285 285 285 285 284 283 283 283 283 283 283 283 283 283 283 283
300 301 297 296 295 298 296 298 300 295 294 294 294 294 293 292 289 288 288 288 287 287 286 285 285 285 286 286 285 285 285 284 284 284 284 283 283 282 283 283 283 283 284 284
300 298 297 299 295 294 295 295 295 295 294 293 292 290 290 289 288 288 288 288 287 286 286 285 285 285 285 285 285 284 284 283 283 283 283 283 283 283 283 283 283 283 282 282
301 301 296 298 295 295 294 293 293 293 293 292 291 290 289 288 288 288 287 286 286 285 285 285 284 283 283 284 284 283 283 283 283 283 283 282 283 283 283 281 280 281 281 281
299 300 298 297 296 295 294 293 291 291 291 291 290 289 289 288 287 287 286 286 285 285 285 283 282 282 282 283 283 283 282 282 283 283 282 282 282 282 281 281 280 279 278 279
296 299 297 294 295 295 294 292 291 290 290 290 289 288 288 287 287 286 286 285 285 284 283 282 282 281 281 282 282 282 282 282 282 282 282 281 281 280 280 280 279 279 278 278

GFSCGP_850_thetae_123.txt.gz
Theta_e
312 310 309 310 308 310 310 311 311 310 310 311 311 311 311 309 311 311 312 312 316 318 318 318 316 316 316 318 318 318 317 317 316 315 314 313 313 314 315 317 319 321 324 323
310 309 309 308 309 309 309 310 310 310 311 311 310 311 309 309 310 312 312 313 317 318 317 315 314 314 313 312 312 312 312 312 312 312 312 312 312 312 312 312 312 313 315 317
310 311 310 310 310 310 310 311 311 312 311 311 310 312 310 311 312 313 315 315 316 312 310 308 308 309 310 309 308 308 307 307 308 309 309 309 310 310 310 310 311 311 311 311
310 309 309 309 310 310 311 310 311 313 313 315 310 315 313 310 312 311 309 307 307 307 306 305 305 306 306 305 305 304 303 303 304 305 305 306 306 306 306 307 307 308 309 310
312 313 312 312 312 312 313 313 313 313 312 310 311 311 310 314 315 309 307 306 305 305 304 303 302 302 301 301 301 301 302 302 303 303 303 303 304 304 304 304 305 305 305 307
311 312 312 312 312 311 313 313 312 309 309 315 312 310 309 314 314 309 306 305 304 303 302 302 301 301 301 300 300 300 301 301 302 303 303 304 304 305 305 305 306 306 306 306
312 312 311 312 312 311 311 313 318 314 311 312 311 310 311 312 310 307 305 304 305 304 305 306 303 303 302 301 301 301 301 302 302 302 302 303 304 305 305 306 306 307 307 308
311 311 309 310 310 311 312 312 313 316 314 310 309 310 311 311 308 306 306 305 305 304 304 304 304 306 305 304 302 301 301 301 300 302 303 302 302 303 303 304 305 305 306 307
309 310 310 310 311 311 312 313 311 312 310 312 309 311 311 310 308 307 307 306 305 304 304 302 301 301 301 300 301 301 301 300 299 300 299 299 299 300 301 302 303 303 304 304
309 310 311 311 308 308 310 309 310 309 314 315 310 310 309 313 310 308 309 307 305 302 300 299 298 298 296 296 295 296 295 294 294 294 295 296 295 296 298 298 300 300 301 301
307 308 310 310 309 308 306 307 308 310 309 312 312 309 310 312 311 310 308 305 303 299 298 297 296 294 294 294 294 294 293 294 295 294 293 292 293 294 295 296 295 296 298 299
310 310 311 311 309 306 306 306 307 309 310 308 307 307 308 310 309 309 306 301 299 298 296 296 296 296 296 295 295 294 294 294 293 291 292 292 292 293 291 292 293 295 297 298
308 307 311 312 308 308 309 308 307 308 307 309 310 308 312 310 309 305 300 297 296 295 294 294 293 294 294 293 294 293 293 292 291 290 290 291 291 290 289 290 291 293 295 297
309 306 308 310 309 308 309 309 308 308 309 309 309 307 308 309 304 301 297 295 294 293 292 290 292 293 292 292 292 291 292 292 291 291 291 290 290 290 290 290 290 291 292 293
306 308 307 308 308 309 310 310 310 309 308 309 307 306 304 304 302 297 295 294 293 292 290 289 289 291 291 291 291 292 292 293 292 291 291 292 291 290 290 290 290 290 290 290
304 306 304 305 305 306 308 308 307 308 308 306 304 304 299 298 297 296 295 294 292 291 289 288 289 290 289 290 290 291 291 292 292 293 293 293 292 292 291 291 290 290 290 290
304 305 305 308 304 302 302 304 305 305 304 304 300 302 298 297 295 294 292 292 291 289 288 287 288 288 288 288 286 284 284 285 287 291 293 293 293 293 292 292 293 292 292 292
304 305 305 307 302 304 303 301 302 303 301 302 301 299 297 297 293 292 291 291 289 289 287 287 287 286 285 284 284 283 283 284 285 285 285 286 289 292 293 293 293 292 292 291
305 304 305 304 303 302 302 300 297 298 300 297 299 296 295 292 291 290 290 290 288 288 287 286 285 285 285 285 285 285 284 284 284 284 284 284 284 285 285 285 286 289 292 290
303 304 302 299 301 296 295 300 299 296 297 295 297 295 293 291 293 287 289 288 287 286 286 285 285 285 285 285 285 285 285 284 283 283 283 283 284 284 284 283 283 284 284 283
304 301 304 300 299 300 299 298 299 298 296 295 295 296 294 292 293 291 289 287 287 286 286 286 286 286 285 285 285 285 285 284 284 283 283 283 283 283 283 283 283 283 284 283
304 303 301 297 297 301 297 298 299 294 294 294 294 294 295 294 291 289 288 287 286 286 285 285 286 286 285 285 284 284 283 283 283 283 283 283 283 283 282 283 283 283 283 283
299 298 297 299 298 294 295 295 295 295 295 292 293 292 293 290 289 288 287 287 287 286 285 285 285 285 286 285 283 283 283 283 283 283 283 283 282 282 282 282 282 282 281 281
300 299 297 298 295 293 294 294 293 293 293 293 292 290 289 289 288 288 288 287 286 286 285 285 284 284 284 283 283 283 283 283 283 283 282 282 281 282 281 281 281 281 280 280
299 300 298 297 295 295 294 294 292 292 292 291 290 290 289 288 288 287 286 286 285 285 285 283 282 282 283 283 283 282 283 283 282 282 281 281 281 281 280 280 279 278 278 278
296 297 298 296 296 295 294 293 291 291 290 290 290 288 288 288 287 287 286 285 285 285 283 282 281 281 282 282 282 282 282 282 281 281 281 280 280 280 279 279 278 277 277 276

GFSCGP_850_thetae_129.txt.gz
Theta_e
313 316 318 317 312 311 311 312 312 311 310 310 312 312 312 313 311 312 313 311 307 305 306 307 307 307 308 308 309 309 309 310 310 312 311 312 312 312 312 312 313 313 313 315
312 316 315 312 312 311 312 313 312 311 310 312 312 313 313 311 309 309 311 308 306 305 306 306 306 305 305 303 303 303 303 304 304 304 305 307 307 308 309 309 309 309 309 309
315 314 311 312 311 312 311 312 312 311 311 312 313 314 312 310 308 307 306 305 304 304 304 304 303 303 303 303 304 302 301 301 301 301 301 302 302 303 304 304 305 305 305 305
312 311 310 311 311 311 312 311 311 311 313 316 312 314 312 312 309 307 306 305 304 303 304 304 304 305 305 306 307 306 306 305 303 302 301 301 301 301 302 302 302 303 304 304
312 312 310 311 312 310 312 311 312 313 314 313 313 314 312 312 311 308 305 304 304 303 303 304 305 305 305 305 305 306 307 306 304 303 303 302 301 301 302 302 302 302 302 303
311 310 311 312 311 310 311 313 313 310 312 316 314 314 313 315 314 309 306 305 305 305 306 306 307 306 307 306 305 305 306 305 305 302 301 301 301 301 302 302 302 303 303 303
312 312 311 311 312 311 312 314 315 316 316 316 311 314 314 313 311 310 308 306 306 305 305 306 306 306 304 302 302 301 300 301 300 301 299 298 298 299 299 300 301 301 302 303
313 312 311 311 312 313 313 314 315 317 316 313 309 313 313 312 309 308 307 306 306 305 305 304 305 304 300 299 300 300 300 300 300 299 298 297 297 297 297 297 298 298 299 299
312 312 309 309 310 312 312 314 312 315 311 314 313 312 311 311 309 308 307 307 306 304 302 303 302 300 299 299 299 298 298 298 298 298 297 297 295 296 296 295 294 295 296 296
312 313 309 309 308 307 312 311 314 314 316 314 312 312 312 312 312 309 308 308 307 304 303 301 300 299 297 297 297 297 297 297 296 296 295 294 294 293 292 290 291 292 293 294
309 310 311 311 310 311 311 312 311 313 312 316 314 312 311 312 312 311 309 308 307 302 303 300 297 297 297 296 296 296 295 295 296 295 294 294 293 292 292 291 292 292 292 292
309 310 311 311 309 308 308 311 312 315 313 313 312 313 311 311 311 310 310 307 303 302 301 298 297 296 296 296 295 295 295 295 295 294 293 293 292 292 291 290 290 289 290 290
309 312 311 311 310 310 311 312 310 310 311 313 314 313 311 311 310 310 305 300 300 301 298 295 295 295 295 294 295 294 294 295 294 294 294 293 292 292 291 290 290 289 289 289
309 310 311 312 310 309 311 310 308 310 312 312 313 312 312 311 310 305 302 301 299 295 294 293 293 293 293 293 293 293 293 293 293 294 293 292 292 291 291 291 291 290 289 288
309 310 309 310 309 309 309 310 310 309 310 311 312 311 310 310 310 308 300 296 294 293 292 291 291 292 291 290 290 288 286 285 286 289 291 290 290 290 291 291 292 291 291 290
305 310 306 309 308 308 309 309 309 309 309 309 310 311 305 300 299 298 297 296 294 293 291 291 290 291 289 288 286 284 285 285 284 284 284 284 284 284 284 286 289 292 291 291
307 308 308 309 308 307 309 308 308 309 309 310 311 310 302 301 300 299 297 296 294 292 291 290 290 289 288 286 284 284 284 284 284 284 284 284 284 284 284 284 284 284 284 284
307 307 308 309 306 310 307 302 303 306 307 305 303 302 301 300 295 294 295 295 292 292 291 289 288 288 286 285 285 284 283 283 283 283 283 283 283 284 283 283 283 283 283 282
306 307 308 309 308 307 306 303 303 305 304 303 303 299 295 294 294 292 292 293 293 291 289 288 287 286 285 287 286 286 284 284 283 283 283 283 283 282 283 283 283 282 282 282
306 307 308 308 308 308 304 300 299 299 303 299 300 298 296 295 299 298 292 292 290 288 288 287 286 286 287 286 288 286 284 283 283 282 282 282 282 282 282 281 281 281 281 281
308 307 308 309 308 306 301 300 298 303 304 298 299 297 295 297 296 293 291 289 288 287 286 286 286 287 287 287 288 284 283 283 282 281 281 281 282 282 281 281 281 281 281 282
308 308 307 306 306 307 299 299 302 300 295 296 296 296 295 293 293 292 289 288 286 286 285 286 286 286 287 287 284 283 283 282 281 281 281 281 281 281 281 281 280 280 281 281
307 307 306 306 306 297 299 297 296 296 295 295 296 295 294 292 292 291 288 286 286 286 285 285 286 286 286 284 283 283 282 282 281 281 281 280 280 280 281 280 280 280 280 279
301 299 302 301 299 297 295 295 295 295 295 295 294 294 293 292 291 288 287 286 285 285 285 285 285 285 285 283 283 283 282 281 281 280 280 280 280 280 280 279 278 278 278 277
301 300 301 299 296 295 295 295 295 294 294 293 292 292 292 292 289 288 286 286 285 285 285 285 285 285 283 283 282 282 281 281 281 280 279 279 279 278 278 278 277 276 276 276
300 301 302 304 298 298 296 294 293 292 292 291 292 290 290 290 288 287 286 286 286 285 284 284 284 283 282 282 281 281 281 280 280 280 279 279 278 278 278 277 277 276 275 275

GFSCGP_850_thetae_132.txt.gz
Theta_e
315 316 316 316 316 317 316 316 316 316 315 314 314 315 315 315 315 315 316 315 312 309 306 305 304 306 305 307 308 309 309 309 310 309 309 309 310 310 310 311 312 312 313 313
316 316 316 317 317 317 317 317 316 314 313 314 315 316 316 316 315 315 316 314 312 310 308 306 305 305 305 305 305 303 303 303 303 303 303 303 303 303 304 306 306 307 308 309
314 314 314 317 316 316 315 315 314 314 314 314 316 317 316 315 314 313 312 312 311 311 310 307 306 304 306 307 307 307 306 306 306 305 304 303 301 301 302 302 302 303 304 304
313 312 314 314 313 313 314 314 313 313 315 317 316 314 316 316 316 314 312 312 311 310 308 307 306 304 303 304 305 305 306 306 306 306 306 305 303 302 301 301 301 301 301 302
311 313 313 314 314 313 313 313 314 315 316 317 316 316 316 316 316 316 314 312 311 310 308 307 306 306 303 303 304 305 303 302 303 302 301 302 302 300 299 299 300 301 301 301
311 313 314 313 313 313 314 315 315 316 316 315 315 315 314 316 316 316 314 312 311 309 309 308 306 304 302 300 300 299 299 299 300 300 299 298 297 298 298 297 297 298 300 300
312 313 312 313 314 314 314 315 315 315 317 315 314 315 315 316 315 315 314 312 311 310 310 308 305 303 300 299 299 298 299 299 299 299 299 297 298 295 294 294 294 293 294 296
312 312 314 314 314 314 315 315 315 313 313 314 314 314 315 314 314 314 313 313 312 311 308 306 303 301 299 298 298 299 298 298 298 298 297 297 296 293 292 291 291 291 291 292
314 313 312 313 314 314 315 316 314 315 314 316 314 314 315 315 314 313 312 312 311 310 306 305 301 299 298 297 297 297 298 298 298 298 297 296 295 294 292 292 290 290 290 291
313 310 309 312 312 313 314 314 315 316 315 314 313 313 314 317 316 314 313 312 312 309 304 302 300 298 297 296 296 297 298 297 297 297 296 295 294 293 291 290 291 291 292 291
311 312 310 313 312 311 314 314 314 314 314 315 315 314 314 313 314 315 314 312 312 310 304 300 299 296 296 295 295 297 297 296 297 297 296 295 295 293 292 292 292 291 290 289
307 307 310 309 311 312 312 313 314 317 314 316 317 315 314 313 313 313 313 312 312 308 301 299 298 296 295 294 293 294 295 296 296 296 296 295 295 294 292 292 291 290 288 287
309 307 308 306 310 313 313 313 313 313 313 315 316 316 314 314 313 313 313 312 310 304 299 297 296 295 294 292 292 292 294 294 294 294 294 293 293 293 292 292 291 291 289 286
309 311 310 308 307 310 312 312 312 313 314 314 313 312 312 314 314 313 312 309 306 302 298 297 296 294 293 291 291 292 289 288 288 289 289 288 288 289 291 291 291 291 290 289
308 309 309 309 309 309 310 310 310 311 312 314 313 312 312 312 312 312 311 308 304 300 298 296 294 293 292 291 289 288 286 286 286 286 286 285 285 284 284 285 288 289 288 288
308 308 308 309 308 309 309 309 309 309 311 312 312 312 312 310 309 310 309 305 302 299 296 293 292 292 290 288 287 285 285 285 285 285 285 285 284 284 284 284 284 283 282 282
307 308 307 309 308 309 309 309 309 310 310 311 314 313 312 311 308 307 305 302 300 296 293 292 291 290 289 286 285 284 284 284 284 284 284 284 284 284 283 283 283 283 282 282
306 306 307 309 308 311 308 307 307 309 310 311 311 311 309 307 304 302 302 301 297 294 293 290 289 288 287 285 284 284 283 283 283 283 284 284 283 283 283 283 283 282 282 281
306 307 308 308 307 307 307 310 309 308 309 308 308 309 304 301 299 296 297 297 294 291 290 290 289 287 285 286 286 284 283 283 283 283 283 283 283 283 282 282 282 281 280 280
306 306 307 306 306 307 310 306 304 305 308 307 305 307 301 300 306 305 295 292 291 291 290 289 287 286 286 286 288 285 283 283 283 282 282 282 282 282 282 281 281 280 280 279
308 307 308 309 308 307 307 304 303 308 309 304 304 303 300 302 300 295 291 290 291 289 288 287 286 287 286 287 287 284 283 283 282 282 282 282 282 282 281 281 280 280 279 279
305 307 309 309 310 311 304 302 304 304 301 302 302 301 300 295 293 290 290 289 288 287 286 286 286 287 287 287 284 283 283 282 282 281 281 281 281 281 280 280 280 280 279 279
308 309 310 308 309 304 302 302 301 300 301 301 301 299 298 293 290 288 287 286 286 286 286 286 286 286 285 284 283 283 282 282 281 281 281 280 280 280 279 279 280 280 279 279
306 305 307 307 307 302 302 299 298 298 299 297 298 297 295 292 289 288 287 287 286 286 286 285 285 284 284 284 283 283 282 281 281 281 280 279 279 279 279 280 279 278 278 279
306 304 305 306 302 298 298 299 298 296 296 295 295 294 293 292 289 288 287 287 286 286 285 285 286 285 284 283 283 282 281 281 280 280 280 279 278 278 278 277 277 277 276 276
304 305 305 307 304 303 303 299 296 295 295 294 293 292 291 290 288 288 287 287 286 285 285 285 285 284 283 282 282 281 281 281 280 280 279 279 278 278 278 278 276 275 275 274